<?xml version="1.0" encoding="UTF-8" standalone="no" ?>
<gpx xmlns="http://www.topografix.com/GPX/1/1" xmlns:xsi="http://www.w3.org/2001/XMLSchema-instance" xsi:schemaLocation="http://www.topografix.com/GPX/1/1 http://www.topografix.com/GPX/1/1/gpx.xsd" version="1.1" creator="VisuGPX - https://www.visugpx.com">
  <metadata>
    <name>Tracé actuel: 15 AVR 2022 15:09</name>
    <desc><![CDATA[Besançon,morre,la veze,pas de difficultés techniques]]></desc>
  </metadata>
  <trk>
    <name><![CDATA[Tracé actuel: 15 AVR 2022 15:09]]></name>
    <trkseg>
      <trkpt lat="47.26206" lon="6.04398">
        <ele>327.95</ele>
        <time>2022-04-15T13:09:17Z</time>
      </trkpt>
      <trkpt lat="47.26206" lon="6.04398">
        <ele>327.95</ele>
        <time>2022-04-15T13:09:23Z</time>
      </trkpt>
      <trkpt lat="47.26201" lon="6.04433">
        <ele>326.5</ele>
        <time>2022-04-15T13:09:32Z</time>
      </trkpt>
      <trkpt lat="47.26201" lon="6.0444">
        <ele>326.5</ele>
        <time>2022-04-15T13:09:33Z</time>
      </trkpt>
      <trkpt lat="47.26201" lon="6.04446">
        <ele>326.5</ele>
        <time>2022-04-15T13:09:34Z</time>
      </trkpt>
      <trkpt lat="47.26201" lon="6.04453">
        <ele>326.5</ele>
        <time>2022-04-15T13:09:35Z</time>
      </trkpt>
      <trkpt lat="47.26209" lon="6.0457">
        <ele>325.54</ele>
        <time>2022-04-15T13:09:50Z</time>
      </trkpt>
      <trkpt lat="47.26208" lon="6.04578">
        <ele>325.06</ele>
        <time>2022-04-15T13:09:51Z</time>
      </trkpt>
      <trkpt lat="47.26207" lon="6.04596">
        <ele>325.06</ele>
        <time>2022-04-15T13:09:53Z</time>
      </trkpt>
      <trkpt lat="47.26208" lon="6.04604">
        <ele>325.06</ele>
        <time>2022-04-15T13:09:54Z</time>
      </trkpt>
      <trkpt lat="47.2621" lon="6.04612">
        <ele>325.06</ele>
        <time>2022-04-15T13:09:55Z</time>
      </trkpt>
      <trkpt lat="47.26211" lon="6.0462">
        <ele>325.06</ele>
        <time>2022-04-15T13:09:56Z</time>
      </trkpt>
      <trkpt lat="47.26212" lon="6.04628">
        <ele>325.06</ele>
        <time>2022-04-15T13:09:57Z</time>
      </trkpt>
      <trkpt lat="47.26213" lon="6.04637">
        <ele>325.06</ele>
        <time>2022-04-15T13:09:58Z</time>
      </trkpt>
      <trkpt lat="47.26213" lon="6.04646">
        <ele>325.06</ele>
        <time>2022-04-15T13:09:59Z</time>
      </trkpt>
      <trkpt lat="47.26221" lon="6.04806">
        <ele>324.1</ele>
        <time>2022-04-15T13:10:18Z</time>
      </trkpt>
      <trkpt lat="47.26221" lon="6.04814">
        <ele>324.1</ele>
        <time>2022-04-15T13:10:19Z</time>
      </trkpt>
      <trkpt lat="47.26218" lon="6.04822">
        <ele>323.62</ele>
        <time>2022-04-15T13:10:20Z</time>
      </trkpt>
      <trkpt lat="47.26215" lon="6.04829">
        <ele>323.62</ele>
        <time>2022-04-15T13:10:21Z</time>
      </trkpt>
      <trkpt lat="47.2621" lon="6.04836">
        <ele>323.62</ele>
        <time>2022-04-15T13:10:22Z</time>
      </trkpt>
      <trkpt lat="47.26206" lon="6.04843">
        <ele>323.14</ele>
        <time>2022-04-15T13:10:23Z</time>
      </trkpt>
      <trkpt lat="47.26188" lon="6.04872">
        <ele>321.7</ele>
        <time>2022-04-15T13:10:27Z</time>
      </trkpt>
      <trkpt lat="47.26188" lon="6.0488">
        <ele>321.7</ele>
        <time>2022-04-15T13:10:28Z</time>
      </trkpt>
      <trkpt lat="47.26188" lon="6.04894">
        <ele>321.7</ele>
        <time>2022-04-15T13:10:30Z</time>
      </trkpt>
      <trkpt lat="47.2619" lon="6.04899">
        <ele>322.18</ele>
        <time>2022-04-15T13:10:31Z</time>
      </trkpt>
      <trkpt lat="47.26193" lon="6.04905">
        <ele>321.7</ele>
        <time>2022-04-15T13:10:32Z</time>
      </trkpt>
      <trkpt lat="47.26196" lon="6.0491">
        <ele>321.7</ele>
        <time>2022-04-15T13:10:33Z</time>
      </trkpt>
      <trkpt lat="47.26198" lon="6.04915">
        <ele>321.7</ele>
        <time>2022-04-15T13:10:34Z</time>
      </trkpt>
      <trkpt lat="47.26201" lon="6.04934">
        <ele>321.7</ele>
        <time>2022-04-15T13:10:38Z</time>
      </trkpt>
      <trkpt lat="47.26198" lon="6.04938">
        <ele>321.22</ele>
        <time>2022-04-15T13:10:39Z</time>
      </trkpt>
      <trkpt lat="47.26189" lon="6.04954">
        <ele>321.22</ele>
        <time>2022-04-15T13:10:44Z</time>
      </trkpt>
      <trkpt lat="47.26189" lon="6.04959">
        <ele>321.22</ele>
        <time>2022-04-15T13:10:45Z</time>
      </trkpt>
      <trkpt lat="47.26189" lon="6.04964">
        <ele>321.22</ele>
        <time>2022-04-15T13:10:46Z</time>
      </trkpt>
      <trkpt lat="47.26188" lon="6.04969">
        <ele>321.22</ele>
        <time>2022-04-15T13:10:47Z</time>
      </trkpt>
      <trkpt lat="47.26187" lon="6.04974">
        <ele>321.7</ele>
        <time>2022-04-15T13:10:48Z</time>
      </trkpt>
      <trkpt lat="47.26185" lon="6.04979">
        <ele>321.7</ele>
        <time>2022-04-15T13:10:49Z</time>
      </trkpt>
      <trkpt lat="47.26183" lon="6.04983">
        <ele>321.7</ele>
        <time>2022-04-15T13:10:50Z</time>
      </trkpt>
      <trkpt lat="47.26179" lon="6.04986">
        <ele>321.7</ele>
        <time>2022-04-15T13:10:51Z</time>
      </trkpt>
      <trkpt lat="47.26176" lon="6.04988">
        <ele>322.18</ele>
        <time>2022-04-15T13:10:52Z</time>
      </trkpt>
      <trkpt lat="47.26144" lon="6.05033">
        <ele>324.1</ele>
        <time>2022-04-15T13:11:04Z</time>
      </trkpt>
      <trkpt lat="47.26136" lon="6.05047">
        <ele>324.1</ele>
        <time>2022-04-15T13:11:07Z</time>
      </trkpt>
      <trkpt lat="47.26134" lon="6.05052">
        <ele>324.1</ele>
        <time>2022-04-15T13:11:08Z</time>
      </trkpt>
      <trkpt lat="47.26124" lon="6.05072">
        <ele>324.58</ele>
        <time>2022-04-15T13:11:12Z</time>
      </trkpt>
      <trkpt lat="47.26086" lon="6.05126">
        <ele>326.5</ele>
        <time>2022-04-15T13:11:26Z</time>
      </trkpt>
      <trkpt lat="47.26042" lon="6.05124">
        <ele>328.91</ele>
        <time>2022-04-15T13:11:39Z</time>
      </trkpt>
      <trkpt lat="47.26022" lon="6.05149">
        <ele>330.83</ele>
        <time>2022-04-15T13:11:48Z</time>
      </trkpt>
      <trkpt lat="47.26022" lon="6.05153">
        <ele>331.31</ele>
        <time>2022-04-15T13:11:49Z</time>
      </trkpt>
      <trkpt lat="47.26023" lon="6.05157">
        <ele>331.31</ele>
        <time>2022-04-15T13:11:50Z</time>
      </trkpt>
      <trkpt lat="47.26024" lon="6.0516">
        <ele>331.31</ele>
        <time>2022-04-15T13:11:51Z</time>
      </trkpt>
      <trkpt lat="47.26026" lon="6.05164">
        <ele>331.79</ele>
        <time>2022-04-15T13:11:52Z</time>
      </trkpt>
      <trkpt lat="47.26053" lon="6.05177">
        <ele>333.71</ele>
        <time>2022-04-15T13:12:03Z</time>
      </trkpt>
      <trkpt lat="47.26071" lon="6.05182">
        <ele>335.16</ele>
        <time>2022-04-15T13:12:10Z</time>
      </trkpt>
      <trkpt lat="47.26079" lon="6.05219">
        <ele>338.04</ele>
        <time>2022-04-15T13:12:21Z</time>
      </trkpt>
      <trkpt lat="47.26079" lon="6.05224">
        <ele>338.04</ele>
        <time>2022-04-15T13:12:23Z</time>
      </trkpt>
      <trkpt lat="47.26078" lon="6.05226">
        <ele>338.52</ele>
        <time>2022-04-15T13:12:24Z</time>
      </trkpt>
      <trkpt lat="47.26078" lon="6.05227">
        <ele>338.52</ele>
        <time>2022-04-15T13:12:25Z</time>
      </trkpt>
      <trkpt lat="47.26078" lon="6.05229">
        <ele>339</ele>
        <time>2022-04-15T13:12:26Z</time>
      </trkpt>
      <trkpt lat="47.26079" lon="6.05231">
        <ele>339</ele>
        <time>2022-04-15T13:12:27Z</time>
      </trkpt>
      <trkpt lat="47.26082" lon="6.05236">
        <ele>340.92</ele>
        <time>2022-04-15T13:12:32Z</time>
      </trkpt>
      <trkpt lat="47.26083" lon="6.05245">
        <ele>342.85</ele>
        <time>2022-04-15T13:12:37Z</time>
      </trkpt>
      <trkpt lat="47.26084" lon="6.05249">
        <ele>343.33</ele>
        <time>2022-04-15T13:12:39Z</time>
      </trkpt>
      <trkpt lat="47.26085" lon="6.05251">
        <ele>343.81</ele>
        <time>2022-04-15T13:12:40Z</time>
      </trkpt>
      <trkpt lat="47.26096" lon="6.05275">
        <ele>346.69</ele>
        <time>2022-04-15T13:12:52Z</time>
      </trkpt>
      <trkpt lat="47.26097" lon="6.05277">
        <ele>347.17</ele>
        <time>2022-04-15T13:12:53Z</time>
      </trkpt>
      <trkpt lat="47.26098" lon="6.05279">
        <ele>347.65</ele>
        <time>2022-04-15T13:12:54Z</time>
      </trkpt>
      <trkpt lat="47.26099" lon="6.05281">
        <ele>347.65</ele>
        <time>2022-04-15T13:12:55Z</time>
      </trkpt>
      <trkpt lat="47.261" lon="6.05283">
        <ele>348.13</ele>
        <time>2022-04-15T13:12:56Z</time>
      </trkpt>
      <trkpt lat="47.26101" lon="6.05285">
        <ele>348.13</ele>
        <time>2022-04-15T13:12:57Z</time>
      </trkpt>
      <trkpt lat="47.26102" lon="6.05287">
        <ele>348.13</ele>
        <time>2022-04-15T13:12:58Z</time>
      </trkpt>
      <trkpt lat="47.26106" lon="6.05293">
        <ele>348.62</ele>
        <time>2022-04-15T13:13:01Z</time>
      </trkpt>
      <trkpt lat="47.26107" lon="6.05294">
        <ele>349.1</ele>
        <time>2022-04-15T13:13:02Z</time>
      </trkpt>
      <trkpt lat="47.26117" lon="6.05321">
        <ele>350.06</ele>
        <time>2022-04-15T13:13:13Z</time>
      </trkpt>
      <trkpt lat="47.2612" lon="6.05326">
        <ele>350.06</ele>
        <time>2022-04-15T13:13:15Z</time>
      </trkpt>
      <trkpt lat="47.26122" lon="6.05329">
        <ele>350.06</ele>
        <time>2022-04-15T13:13:16Z</time>
      </trkpt>
      <trkpt lat="47.26123" lon="6.05332">
        <ele>350.06</ele>
        <time>2022-04-15T13:13:17Z</time>
      </trkpt>
      <trkpt lat="47.26124" lon="6.05335">
        <ele>350.06</ele>
        <time>2022-04-15T13:13:18Z</time>
      </trkpt>
      <trkpt lat="47.26125" lon="6.05338">
        <ele>350.06</ele>
        <time>2022-04-15T13:13:19Z</time>
      </trkpt>
      <trkpt lat="47.26127" lon="6.0534">
        <ele>350.06</ele>
        <time>2022-04-15T13:13:20Z</time>
      </trkpt>
      <trkpt lat="47.26127" lon="6.05344">
        <ele>350.54</ele>
        <time>2022-04-15T13:13:21Z</time>
      </trkpt>
      <trkpt lat="47.26128" lon="6.05347">
        <ele>350.54</ele>
        <time>2022-04-15T13:13:22Z</time>
      </trkpt>
      <trkpt lat="47.26129" lon="6.05351">
        <ele>350.54</ele>
        <time>2022-04-15T13:13:23Z</time>
      </trkpt>
      <trkpt lat="47.26129" lon="6.05375">
        <ele>351.98</ele>
        <time>2022-04-15T13:13:30Z</time>
      </trkpt>
      <trkpt lat="47.26127" lon="6.05378">
        <ele>351.98</ele>
        <time>2022-04-15T13:13:31Z</time>
      </trkpt>
      <trkpt lat="47.26126" lon="6.05381">
        <ele>352.46</ele>
        <time>2022-04-15T13:13:32Z</time>
      </trkpt>
      <trkpt lat="47.26117" lon="6.05408">
        <ele>354.86</ele>
        <time>2022-04-15T13:13:43Z</time>
      </trkpt>
      <trkpt lat="47.26093" lon="6.05413">
        <ele>355.83</ele>
        <time>2022-04-15T13:13:52Z</time>
      </trkpt>
      <trkpt lat="47.26063" lon="6.05423">
        <ele>358.23</ele>
        <time>2022-04-15T13:14:05Z</time>
      </trkpt>
      <trkpt lat="47.2603" lon="6.05435">
        <ele>357.75</ele>
        <time>2022-04-15T13:14:15Z</time>
      </trkpt>
      <trkpt lat="47.26021" lon="6.05439">
        <ele>357.75</ele>
        <time>2022-04-15T13:14:17Z</time>
      </trkpt>
      <trkpt lat="47.26017" lon="6.05441">
        <ele>357.75</ele>
        <time>2022-04-15T13:14:18Z</time>
      </trkpt>
      <trkpt lat="47.25972" lon="6.05467">
        <ele>357.27</ele>
        <time>2022-04-15T13:14:30Z</time>
      </trkpt>
      <trkpt lat="47.25927" lon="6.05495">
        <ele>357.75</ele>
        <time>2022-04-15T13:14:40Z</time>
      </trkpt>
      <trkpt lat="47.25923" lon="6.05493">
        <ele>358.23</ele>
        <time>2022-04-15T13:14:41Z</time>
      </trkpt>
      <trkpt lat="47.2592" lon="6.05493">
        <ele>358.23</ele>
        <time>2022-04-15T13:14:42Z</time>
      </trkpt>
      <trkpt lat="47.25918" lon="6.05496">
        <ele>359.19</ele>
        <time>2022-04-15T13:14:44Z</time>
      </trkpt>
      <trkpt lat="47.25916" lon="6.05499">
        <ele>358.71</ele>
        <time>2022-04-15T13:14:45Z</time>
      </trkpt>
      <trkpt lat="47.25903" lon="6.05511">
        <ele>357.75</ele>
        <time>2022-04-15T13:14:49Z</time>
      </trkpt>
      <trkpt lat="47.259" lon="6.0551">
        <ele>357.27</ele>
        <time>2022-04-15T13:14:50Z</time>
      </trkpt>
      <trkpt lat="47.25895" lon="6.05509">
        <ele>355.83</ele>
        <time>2022-04-15T13:14:51Z</time>
      </trkpt>
      <trkpt lat="47.25891" lon="6.05508">
        <ele>355.83</ele>
        <time>2022-04-15T13:14:52Z</time>
      </trkpt>
      <trkpt lat="47.25887" lon="6.05508">
        <ele>355.34</ele>
        <time>2022-04-15T13:14:53Z</time>
      </trkpt>
      <trkpt lat="47.25883" lon="6.05509">
        <ele>355.34</ele>
        <time>2022-04-15T13:14:54Z</time>
      </trkpt>
      <trkpt lat="47.2588" lon="6.0551">
        <ele>355.34</ele>
        <time>2022-04-15T13:14:55Z</time>
      </trkpt>
      <trkpt lat="47.25877" lon="6.05513">
        <ele>355.34</ele>
        <time>2022-04-15T13:14:56Z</time>
      </trkpt>
      <trkpt lat="47.25875" lon="6.05516">
        <ele>354.86</ele>
        <time>2022-04-15T13:14:57Z</time>
      </trkpt>
      <trkpt lat="47.25874" lon="6.0552">
        <ele>354.86</ele>
        <time>2022-04-15T13:14:58Z</time>
      </trkpt>
      <trkpt lat="47.25872" lon="6.05524">
        <ele>354.86</ele>
        <time>2022-04-15T13:14:59Z</time>
      </trkpt>
      <trkpt lat="47.2585" lon="6.05544">
        <ele>353.9</ele>
        <time>2022-04-15T13:15:07Z</time>
      </trkpt>
      <trkpt lat="47.25835" lon="6.05557">
        <ele>353.42</ele>
        <time>2022-04-15T13:15:20Z</time>
      </trkpt>
      <trkpt lat="47.25833" lon="6.05558">
        <ele>353.42</ele>
        <time>2022-04-15T13:15:21Z</time>
      </trkpt>
      <trkpt lat="47.25806" lon="6.05589">
        <ele>352.46</ele>
        <time>2022-04-15T13:15:32Z</time>
      </trkpt>
      <trkpt lat="47.25791" lon="6.05599">
        <ele>351.98</ele>
        <time>2022-04-15T13:15:36Z</time>
      </trkpt>
      <trkpt lat="47.25782" lon="6.05604">
        <ele>351.98</ele>
        <time>2022-04-15T13:15:38Z</time>
      </trkpt>
      <trkpt lat="47.25774" lon="6.05611">
        <ele>351.98</ele>
        <time>2022-04-15T13:15:40Z</time>
      </trkpt>
      <trkpt lat="47.25773" lon="6.05615">
        <ele>351.98</ele>
        <time>2022-04-15T13:15:41Z</time>
      </trkpt>
      <trkpt lat="47.25771" lon="6.05619">
        <ele>351.98</ele>
        <time>2022-04-15T13:15:42Z</time>
      </trkpt>
      <trkpt lat="47.25769" lon="6.05624">
        <ele>351.98</ele>
        <time>2022-04-15T13:15:43Z</time>
      </trkpt>
      <trkpt lat="47.25766" lon="6.05628">
        <ele>351.98</ele>
        <time>2022-04-15T13:15:44Z</time>
      </trkpt>
      <trkpt lat="47.25762" lon="6.05634">
        <ele>351.5</ele>
        <time>2022-04-15T13:15:45Z</time>
      </trkpt>
      <trkpt lat="47.25758" lon="6.05641">
        <ele>351.5</ele>
        <time>2022-04-15T13:15:46Z</time>
      </trkpt>
      <trkpt lat="47.25753" lon="6.05649">
        <ele>351.5</ele>
        <time>2022-04-15T13:15:47Z</time>
      </trkpt>
      <trkpt lat="47.25748" lon="6.05658">
        <ele>351.5</ele>
        <time>2022-04-15T13:15:48Z</time>
      </trkpt>
      <trkpt lat="47.25743" lon="6.05666">
        <ele>351.5</ele>
        <time>2022-04-15T13:15:49Z</time>
      </trkpt>
      <trkpt lat="47.25738" lon="6.05673">
        <ele>351.02</ele>
        <time>2022-04-15T13:15:50Z</time>
      </trkpt>
      <trkpt lat="47.25719" lon="6.05698">
        <ele>350.54</ele>
        <time>2022-04-15T13:15:54Z</time>
      </trkpt>
      <trkpt lat="47.25715" lon="6.05705">
        <ele>350.06</ele>
        <time>2022-04-15T13:15:55Z</time>
      </trkpt>
      <trkpt lat="47.25706" lon="6.05721">
        <ele>349.58</ele>
        <time>2022-04-15T13:15:57Z</time>
      </trkpt>
      <trkpt lat="47.25701" lon="6.05728">
        <ele>349.58</ele>
        <time>2022-04-15T13:15:58Z</time>
      </trkpt>
      <trkpt lat="47.25696" lon="6.05733">
        <ele>349.1</ele>
        <time>2022-04-15T13:15:59Z</time>
      </trkpt>
      <trkpt lat="47.2569" lon="6.05737">
        <ele>349.1</ele>
        <time>2022-04-15T13:16:00Z</time>
      </trkpt>
      <trkpt lat="47.25685" lon="6.0574">
        <ele>349.1</ele>
        <time>2022-04-15T13:16:01Z</time>
      </trkpt>
      <trkpt lat="47.2568" lon="6.05743">
        <ele>349.1</ele>
        <time>2022-04-15T13:16:02Z</time>
      </trkpt>
      <trkpt lat="47.25675" lon="6.05745">
        <ele>349.58</ele>
        <time>2022-04-15T13:16:03Z</time>
      </trkpt>
      <trkpt lat="47.2567" lon="6.05748">
        <ele>349.58</ele>
        <time>2022-04-15T13:16:04Z</time>
      </trkpt>
      <trkpt lat="47.25645" lon="6.05764">
        <ele>349.1</ele>
        <time>2022-04-15T13:16:12Z</time>
      </trkpt>
      <trkpt lat="47.25636" lon="6.05779">
        <ele>349.1</ele>
        <time>2022-04-15T13:16:15Z</time>
      </trkpt>
      <trkpt lat="47.25632" lon="6.05786">
        <ele>349.1</ele>
        <time>2022-04-15T13:16:16Z</time>
      </trkpt>
      <trkpt lat="47.25628" lon="6.05791">
        <ele>348.62</ele>
        <time>2022-04-15T13:16:17Z</time>
      </trkpt>
      <trkpt lat="47.25626" lon="6.05797">
        <ele>348.62</ele>
        <time>2022-04-15T13:16:18Z</time>
      </trkpt>
      <trkpt lat="47.25625" lon="6.05804">
        <ele>348.62</ele>
        <time>2022-04-15T13:16:19Z</time>
      </trkpt>
      <trkpt lat="47.25622" lon="6.05814">
        <ele>348.62</ele>
        <time>2022-04-15T13:16:20Z</time>
      </trkpt>
      <trkpt lat="47.25618" lon="6.05823">
        <ele>348.13</ele>
        <time>2022-04-15T13:16:21Z</time>
      </trkpt>
      <trkpt lat="47.25614" lon="6.05831">
        <ele>348.13</ele>
        <time>2022-04-15T13:16:22Z</time>
      </trkpt>
      <trkpt lat="47.25609" lon="6.05839">
        <ele>348.13</ele>
        <time>2022-04-15T13:16:23Z</time>
      </trkpt>
      <trkpt lat="47.25605" lon="6.05846">
        <ele>348.13</ele>
        <time>2022-04-15T13:16:24Z</time>
      </trkpt>
      <trkpt lat="47.25599" lon="6.0585">
        <ele>348.13</ele>
        <time>2022-04-15T13:16:25Z</time>
      </trkpt>
      <trkpt lat="47.25594" lon="6.05852">
        <ele>348.13</ele>
        <time>2022-04-15T13:16:26Z</time>
      </trkpt>
      <trkpt lat="47.25589" lon="6.05855">
        <ele>348.13</ele>
        <time>2022-04-15T13:16:27Z</time>
      </trkpt>
      <trkpt lat="47.25584" lon="6.05859">
        <ele>348.13</ele>
        <time>2022-04-15T13:16:28Z</time>
      </trkpt>
      <trkpt lat="47.2558" lon="6.05863">
        <ele>348.13</ele>
        <time>2022-04-15T13:16:29Z</time>
      </trkpt>
      <trkpt lat="47.25558" lon="6.05907">
        <ele>347.65</ele>
        <time>2022-04-15T13:16:38Z</time>
      </trkpt>
      <trkpt lat="47.25557" lon="6.05931">
        <ele>347.17</ele>
        <time>2022-04-15T13:16:41Z</time>
      </trkpt>
      <trkpt lat="47.25555" lon="6.05941">
        <ele>347.17</ele>
        <time>2022-04-15T13:16:42Z</time>
      </trkpt>
      <trkpt lat="47.25555" lon="6.0595">
        <ele>347.17</ele>
        <time>2022-04-15T13:16:43Z</time>
      </trkpt>
      <trkpt lat="47.25554" lon="6.05961">
        <ele>347.17</ele>
        <time>2022-04-15T13:16:44Z</time>
      </trkpt>
      <trkpt lat="47.25553" lon="6.05971">
        <ele>346.69</ele>
        <time>2022-04-15T13:16:45Z</time>
      </trkpt>
      <trkpt lat="47.25552" lon="6.0598">
        <ele>346.69</ele>
        <time>2022-04-15T13:16:46Z</time>
      </trkpt>
      <trkpt lat="47.25552" lon="6.05988">
        <ele>346.69</ele>
        <time>2022-04-15T13:16:47Z</time>
      </trkpt>
      <trkpt lat="47.25551" lon="6.05996">
        <ele>346.21</ele>
        <time>2022-04-15T13:16:48Z</time>
      </trkpt>
      <trkpt lat="47.25552" lon="6.06012">
        <ele>346.21</ele>
        <time>2022-04-15T13:16:50Z</time>
      </trkpt>
      <trkpt lat="47.25551" lon="6.0602">
        <ele>345.73</ele>
        <time>2022-04-15T13:16:51Z</time>
      </trkpt>
      <trkpt lat="47.2555" lon="6.06028">
        <ele>345.73</ele>
        <time>2022-04-15T13:16:52Z</time>
      </trkpt>
      <trkpt lat="47.25548" lon="6.06037">
        <ele>345.73</ele>
        <time>2022-04-15T13:16:53Z</time>
      </trkpt>
      <trkpt lat="47.25543" lon="6.06053">
        <ele>345.73</ele>
        <time>2022-04-15T13:16:55Z</time>
      </trkpt>
      <trkpt lat="47.25522" lon="6.06092">
        <ele>346.21</ele>
        <time>2022-04-15T13:17:01Z</time>
      </trkpt>
      <trkpt lat="47.25505" lon="6.06112">
        <ele>346.21</ele>
        <time>2022-04-15T13:17:05Z</time>
      </trkpt>
      <trkpt lat="47.25494" lon="6.06135">
        <ele>346.69</ele>
        <time>2022-04-15T13:17:09Z</time>
      </trkpt>
      <trkpt lat="47.25494" lon="6.06142">
        <ele>346.69</ele>
        <time>2022-04-15T13:17:10Z</time>
      </trkpt>
      <trkpt lat="47.25494" lon="6.06148">
        <ele>346.69</ele>
        <time>2022-04-15T13:17:11Z</time>
      </trkpt>
      <trkpt lat="47.25496" lon="6.06179">
        <ele>346.69</ele>
        <time>2022-04-15T13:17:16Z</time>
      </trkpt>
      <trkpt lat="47.25495" lon="6.06187">
        <ele>346.21</ele>
        <time>2022-04-15T13:17:17Z</time>
      </trkpt>
      <trkpt lat="47.25495" lon="6.06212">
        <ele>346.69</ele>
        <time>2022-04-15T13:17:21Z</time>
      </trkpt>
      <trkpt lat="47.25497" lon="6.06217">
        <ele>346.69</ele>
        <time>2022-04-15T13:17:22Z</time>
      </trkpt>
      <trkpt lat="47.25499" lon="6.06221">
        <ele>346.69</ele>
        <time>2022-04-15T13:17:23Z</time>
      </trkpt>
      <trkpt lat="47.25501" lon="6.06227">
        <ele>346.21</ele>
        <time>2022-04-15T13:17:24Z</time>
      </trkpt>
      <trkpt lat="47.25502" lon="6.06233">
        <ele>346.21</ele>
        <time>2022-04-15T13:17:25Z</time>
      </trkpt>
      <trkpt lat="47.25502" lon="6.0624">
        <ele>346.21</ele>
        <time>2022-04-15T13:17:26Z</time>
      </trkpt>
      <trkpt lat="47.25503" lon="6.06245">
        <ele>346.21</ele>
        <time>2022-04-15T13:17:27Z</time>
      </trkpt>
      <trkpt lat="47.25505" lon="6.0625">
        <ele>346.21</ele>
        <time>2022-04-15T13:17:28Z</time>
      </trkpt>
      <trkpt lat="47.25507" lon="6.06256">
        <ele>346.21</ele>
        <time>2022-04-15T13:17:29Z</time>
      </trkpt>
      <trkpt lat="47.25509" lon="6.06274">
        <ele>345.73</ele>
        <time>2022-04-15T13:17:32Z</time>
      </trkpt>
      <trkpt lat="47.25507" lon="6.0628">
        <ele>345.73</ele>
        <time>2022-04-15T13:17:33Z</time>
      </trkpt>
      <trkpt lat="47.25504" lon="6.06286">
        <ele>345.73</ele>
        <time>2022-04-15T13:17:34Z</time>
      </trkpt>
      <trkpt lat="47.25501" lon="6.0629">
        <ele>345.73</ele>
        <time>2022-04-15T13:17:35Z</time>
      </trkpt>
      <trkpt lat="47.25498" lon="6.06295">
        <ele>345.73</ele>
        <time>2022-04-15T13:17:36Z</time>
      </trkpt>
      <trkpt lat="47.25495" lon="6.063">
        <ele>345.73</ele>
        <time>2022-04-15T13:17:37Z</time>
      </trkpt>
      <trkpt lat="47.25479" lon="6.06326">
        <ele>345.73</ele>
        <time>2022-04-15T13:17:42Z</time>
      </trkpt>
      <trkpt lat="47.25473" lon="6.06337">
        <ele>345.73</ele>
        <time>2022-04-15T13:17:44Z</time>
      </trkpt>
      <trkpt lat="47.2547" lon="6.06341">
        <ele>345.73</ele>
        <time>2022-04-15T13:17:45Z</time>
      </trkpt>
      <trkpt lat="47.25466" lon="6.06345">
        <ele>345.73</ele>
        <time>2022-04-15T13:17:46Z</time>
      </trkpt>
      <trkpt lat="47.25463" lon="6.06351">
        <ele>345.73</ele>
        <time>2022-04-15T13:17:47Z</time>
      </trkpt>
      <trkpt lat="47.25459" lon="6.06356">
        <ele>345.73</ele>
        <time>2022-04-15T13:17:48Z</time>
      </trkpt>
      <trkpt lat="47.25456" lon="6.06362">
        <ele>345.73</ele>
        <time>2022-04-15T13:17:49Z</time>
      </trkpt>
      <trkpt lat="47.25439" lon="6.06385">
        <ele>346.21</ele>
        <time>2022-04-15T13:17:54Z</time>
      </trkpt>
      <trkpt lat="47.25436" lon="6.06389">
        <ele>346.21</ele>
        <time>2022-04-15T13:17:55Z</time>
      </trkpt>
      <trkpt lat="47.25432" lon="6.06393">
        <ele>346.21</ele>
        <time>2022-04-15T13:17:56Z</time>
      </trkpt>
      <trkpt lat="47.25429" lon="6.06397">
        <ele>346.21</ele>
        <time>2022-04-15T13:17:57Z</time>
      </trkpt>
      <trkpt lat="47.25427" lon="6.06401">
        <ele>346.21</ele>
        <time>2022-04-15T13:17:58Z</time>
      </trkpt>
      <trkpt lat="47.25411" lon="6.06419">
        <ele>346.69</ele>
        <time>2022-04-15T13:18:03Z</time>
      </trkpt>
      <trkpt lat="47.25407" lon="6.06423">
        <ele>347.17</ele>
        <time>2022-04-15T13:18:04Z</time>
      </trkpt>
      <trkpt lat="47.25404" lon="6.06426">
        <ele>347.17</ele>
        <time>2022-04-15T13:18:05Z</time>
      </trkpt>
      <trkpt lat="47.25386" lon="6.06446">
        <ele>347.17</ele>
        <time>2022-04-15T13:18:10Z</time>
      </trkpt>
      <trkpt lat="47.25382" lon="6.06449">
        <ele>347.65</ele>
        <time>2022-04-15T13:18:11Z</time>
      </trkpt>
      <trkpt lat="47.25378" lon="6.06451">
        <ele>348.13</ele>
        <time>2022-04-15T13:18:12Z</time>
      </trkpt>
      <trkpt lat="47.25367" lon="6.06459">
        <ele>348.13</ele>
        <time>2022-04-15T13:18:15Z</time>
      </trkpt>
      <trkpt lat="47.25356" lon="6.06466">
        <ele>348.62</ele>
        <time>2022-04-15T13:18:18Z</time>
      </trkpt>
      <trkpt lat="47.25352" lon="6.06465">
        <ele>348.62</ele>
        <time>2022-04-15T13:18:19Z</time>
      </trkpt>
      <trkpt lat="47.25349" lon="6.06461">
        <ele>348.62</ele>
        <time>2022-04-15T13:18:20Z</time>
      </trkpt>
      <trkpt lat="47.25331" lon="6.06422">
        <ele>350.06</ele>
        <time>2022-04-15T13:18:27Z</time>
      </trkpt>
      <trkpt lat="47.25328" lon="6.0642">
        <ele>349.58</ele>
        <time>2022-04-15T13:18:28Z</time>
      </trkpt>
      <trkpt lat="47.25324" lon="6.0642">
        <ele>349.58</ele>
        <time>2022-04-15T13:18:29Z</time>
      </trkpt>
      <trkpt lat="47.25321" lon="6.06423">
        <ele>350.06</ele>
        <time>2022-04-15T13:18:30Z</time>
      </trkpt>
      <trkpt lat="47.25319" lon="6.06426">
        <ele>350.06</ele>
        <time>2022-04-15T13:18:31Z</time>
      </trkpt>
      <trkpt lat="47.25296" lon="6.06457">
        <ele>352.94</ele>
        <time>2022-04-15T13:18:41Z</time>
      </trkpt>
      <trkpt lat="47.25264" lon="6.06485">
        <ele>356.31</ele>
        <time>2022-04-15T13:18:53Z</time>
      </trkpt>
      <trkpt lat="47.25228" lon="6.06472">
        <ele>359.19</ele>
        <time>2022-04-15T13:19:05Z</time>
      </trkpt>
      <trkpt lat="47.25176" lon="6.06445">
        <ele>361.59</ele>
        <time>2022-04-15T13:19:20Z</time>
      </trkpt>
      <trkpt lat="47.25107" lon="6.06416">
        <ele>360.63</ele>
        <time>2022-04-15T13:19:34Z</time>
      </trkpt>
      <trkpt lat="47.25077" lon="6.06393">
        <ele>358.71</ele>
        <time>2022-04-15T13:19:39Z</time>
      </trkpt>
      <trkpt lat="47.25071" lon="6.06387">
        <ele>358.71</ele>
        <time>2022-04-15T13:19:40Z</time>
      </trkpt>
      <trkpt lat="47.25067" lon="6.06379">
        <ele>358.71</ele>
        <time>2022-04-15T13:19:41Z</time>
      </trkpt>
      <trkpt lat="47.25028" lon="6.06304">
        <ele>358.71</ele>
        <time>2022-04-15T13:19:51Z</time>
      </trkpt>
      <trkpt lat="47.25023" lon="6.06298">
        <ele>358.23</ele>
        <time>2022-04-15T13:19:52Z</time>
      </trkpt>
      <trkpt lat="47.25016" lon="6.06293">
        <ele>357.75</ele>
        <time>2022-04-15T13:19:53Z</time>
      </trkpt>
      <trkpt lat="47.25003" lon="6.06286">
        <ele>357.27</ele>
        <time>2022-04-15T13:19:55Z</time>
      </trkpt>
      <trkpt lat="47.24997" lon="6.0628">
        <ele>356.79</ele>
        <time>2022-04-15T13:19:56Z</time>
      </trkpt>
      <trkpt lat="47.24992" lon="6.06274">
        <ele>356.31</ele>
        <time>2022-04-15T13:19:57Z</time>
      </trkpt>
      <trkpt lat="47.24987" lon="6.06268">
        <ele>356.31</ele>
        <time>2022-04-15T13:19:58Z</time>
      </trkpt>
      <trkpt lat="47.24981" lon="6.06261">
        <ele>355.83</ele>
        <time>2022-04-15T13:19:59Z</time>
      </trkpt>
      <trkpt lat="47.24975" lon="6.06255">
        <ele>355.83</ele>
        <time>2022-04-15T13:20:00Z</time>
      </trkpt>
      <trkpt lat="47.24914" lon="6.06198">
        <ele>356.79</ele>
        <time>2022-04-15T13:20:11Z</time>
      </trkpt>
      <trkpt lat="47.24908" lon="6.06196">
        <ele>356.79</ele>
        <time>2022-04-15T13:20:12Z</time>
      </trkpt>
      <trkpt lat="47.24903" lon="6.06196">
        <ele>357.27</ele>
        <time>2022-04-15T13:20:13Z</time>
      </trkpt>
      <trkpt lat="47.24899" lon="6.06198">
        <ele>357.75</ele>
        <time>2022-04-15T13:20:14Z</time>
      </trkpt>
      <trkpt lat="47.24896" lon="6.062">
        <ele>358.71</ele>
        <time>2022-04-15T13:20:15Z</time>
      </trkpt>
      <trkpt lat="47.2489" lon="6.06204">
        <ele>359.19</ele>
        <time>2022-04-15T13:20:17Z</time>
      </trkpt>
      <trkpt lat="47.24864" lon="6.06219">
        <ele>362.07</ele>
        <time>2022-04-15T13:20:27Z</time>
      </trkpt>
      <trkpt lat="47.24838" lon="6.06232">
        <ele>364.96</ele>
        <time>2022-04-15T13:20:39Z</time>
      </trkpt>
      <trkpt lat="47.2482" lon="6.06242">
        <ele>368.32</ele>
        <time>2022-04-15T13:20:47Z</time>
      </trkpt>
      <trkpt lat="47.24795" lon="6.06237">
        <ele>371.21</ele>
        <time>2022-04-15T13:20:58Z</time>
      </trkpt>
      <trkpt lat="47.24774" lon="6.06226">
        <ele>374.57</ele>
        <time>2022-04-15T13:21:07Z</time>
      </trkpt>
      <trkpt lat="47.24738" lon="6.06215">
        <ele>376.97</ele>
        <time>2022-04-15T13:21:22Z</time>
      </trkpt>
      <trkpt lat="47.24702" lon="6.06194">
        <ele>376.49</ele>
        <time>2022-04-15T13:21:33Z</time>
      </trkpt>
      <trkpt lat="47.24662" lon="6.06174">
        <ele>375.05</ele>
        <time>2022-04-15T13:21:43Z</time>
      </trkpt>
      <trkpt lat="47.24656" lon="6.06172">
        <ele>374.09</ele>
        <time>2022-04-15T13:21:44Z</time>
      </trkpt>
      <trkpt lat="47.24635" lon="6.06164">
        <ele>370.73</ele>
        <time>2022-04-15T13:21:47Z</time>
      </trkpt>
      <trkpt lat="47.24614" lon="6.06156">
        <ele>367.84</ele>
        <time>2022-04-15T13:21:50Z</time>
      </trkpt>
      <trkpt lat="47.24607" lon="6.06151">
        <ele>367.36</ele>
        <time>2022-04-15T13:21:51Z</time>
      </trkpt>
      <trkpt lat="47.24579" lon="6.06132">
        <ele>364</ele>
        <time>2022-04-15T13:21:55Z</time>
      </trkpt>
      <trkpt lat="47.2456" lon="6.06116">
        <ele>362.55</ele>
        <time>2022-04-15T13:21:58Z</time>
      </trkpt>
      <trkpt lat="47.24535" lon="6.06099">
        <ele>360.15</ele>
        <time>2022-04-15T13:22:02Z</time>
      </trkpt>
      <trkpt lat="47.24528" lon="6.06097">
        <ele>358.71</ele>
        <time>2022-04-15T13:22:03Z</time>
      </trkpt>
      <trkpt lat="47.24521" lon="6.06096">
        <ele>357.75</ele>
        <time>2022-04-15T13:22:04Z</time>
      </trkpt>
      <trkpt lat="47.24508" lon="6.06096">
        <ele>355.34</ele>
        <time>2022-04-15T13:22:06Z</time>
      </trkpt>
      <trkpt lat="47.24503" lon="6.06097">
        <ele>353.9</ele>
        <time>2022-04-15T13:22:07Z</time>
      </trkpt>
      <trkpt lat="47.24499" lon="6.061">
        <ele>352.46</ele>
        <time>2022-04-15T13:22:08Z</time>
      </trkpt>
      <trkpt lat="47.24497" lon="6.06104">
        <ele>351.5</ele>
        <time>2022-04-15T13:22:09Z</time>
      </trkpt>
      <trkpt lat="47.24495" lon="6.06109">
        <ele>350.06</ele>
        <time>2022-04-15T13:22:10Z</time>
      </trkpt>
      <trkpt lat="47.24493" lon="6.06115">
        <ele>348.62</ele>
        <time>2022-04-15T13:22:11Z</time>
      </trkpt>
      <trkpt lat="47.2449" lon="6.06122">
        <ele>347.17</ele>
        <time>2022-04-15T13:22:12Z</time>
      </trkpt>
      <trkpt lat="47.24488" lon="6.0613">
        <ele>345.25</ele>
        <time>2022-04-15T13:22:13Z</time>
      </trkpt>
      <trkpt lat="47.24485" lon="6.06138">
        <ele>343.33</ele>
        <time>2022-04-15T13:22:14Z</time>
      </trkpt>
      <trkpt lat="47.24482" lon="6.06146">
        <ele>341.89</ele>
        <time>2022-04-15T13:22:15Z</time>
      </trkpt>
      <trkpt lat="47.24477" lon="6.06152">
        <ele>339.96</ele>
        <time>2022-04-15T13:22:16Z</time>
      </trkpt>
      <trkpt lat="47.24466" lon="6.0617">
        <ele>335.16</ele>
        <time>2022-04-15T13:22:19Z</time>
      </trkpt>
      <trkpt lat="47.24464" lon="6.06175">
        <ele>334.2</ele>
        <time>2022-04-15T13:22:20Z</time>
      </trkpt>
      <trkpt lat="47.24462" lon="6.06179">
        <ele>333.71</ele>
        <time>2022-04-15T13:22:21Z</time>
      </trkpt>
      <trkpt lat="47.24457" lon="6.06184">
        <ele>332.75</ele>
        <time>2022-04-15T13:22:23Z</time>
      </trkpt>
      <trkpt lat="47.24444" lon="6.06189">
        <ele>331.31</ele>
        <time>2022-04-15T13:22:26Z</time>
      </trkpt>
      <trkpt lat="47.24438" lon="6.0619">
        <ele>330.83</ele>
        <time>2022-04-15T13:22:27Z</time>
      </trkpt>
      <trkpt lat="47.24431" lon="6.06191">
        <ele>330.35</ele>
        <time>2022-04-15T13:22:28Z</time>
      </trkpt>
      <trkpt lat="47.24419" lon="6.06192">
        <ele>329.39</ele>
        <time>2022-04-15T13:22:30Z</time>
      </trkpt>
      <trkpt lat="47.24413" lon="6.06193">
        <ele>328.43</ele>
        <time>2022-04-15T13:22:32Z</time>
      </trkpt>
      <trkpt lat="47.24397" lon="6.06192">
        <ele>325.54</ele>
        <time>2022-04-15T13:22:42Z</time>
      </trkpt>
      <trkpt lat="47.24376" lon="6.06181">
        <ele>323.62</ele>
        <time>2022-04-15T13:22:52Z</time>
      </trkpt>
      <trkpt lat="47.24373" lon="6.06181">
        <ele>323.62</ele>
        <time>2022-04-15T13:22:53Z</time>
      </trkpt>
      <trkpt lat="47.24363" lon="6.06179">
        <ele>322.18</ele>
        <time>2022-04-15T13:22:59Z</time>
      </trkpt>
      <trkpt lat="47.24361" lon="6.06178">
        <ele>321.7</ele>
        <time>2022-04-15T13:23:00Z</time>
      </trkpt>
      <trkpt lat="47.2436" lon="6.06178">
        <ele>321.7</ele>
        <time>2022-04-15T13:23:01Z</time>
      </trkpt>
      <trkpt lat="47.24359" lon="6.06179">
        <ele>321.22</ele>
        <time>2022-04-15T13:23:02Z</time>
      </trkpt>
      <trkpt lat="47.24354" lon="6.0618">
        <ele>320.74</ele>
        <time>2022-04-15T13:23:06Z</time>
      </trkpt>
      <trkpt lat="47.24352" lon="6.06179">
        <ele>320.26</ele>
        <time>2022-04-15T13:23:07Z</time>
      </trkpt>
      <trkpt lat="47.2435" lon="6.06178">
        <ele>320.26</ele>
        <time>2022-04-15T13:23:08Z</time>
      </trkpt>
      <trkpt lat="47.24348" lon="6.06177">
        <ele>319.78</ele>
        <time>2022-04-15T13:23:09Z</time>
      </trkpt>
      <trkpt lat="47.24346" lon="6.06177">
        <ele>319.3</ele>
        <time>2022-04-15T13:23:10Z</time>
      </trkpt>
      <trkpt lat="47.24345" lon="6.06178">
        <ele>318.81</ele>
        <time>2022-04-15T13:23:11Z</time>
      </trkpt>
      <trkpt lat="47.24343" lon="6.06178">
        <ele>318.81</ele>
        <time>2022-04-15T13:23:12Z</time>
      </trkpt>
      <trkpt lat="47.24342" lon="6.06177">
        <ele>318.33</ele>
        <time>2022-04-15T13:23:28Z</time>
      </trkpt>
      <trkpt lat="47.24342" lon="6.06177">
        <ele>318.33</ele>
        <time>2022-04-15T13:23:31Z</time>
      </trkpt>
      <trkpt lat="47.2434" lon="6.06177">
        <ele>318.33</ele>
        <time>2022-04-15T13:23:32Z</time>
      </trkpt>
      <trkpt lat="47.24338" lon="6.06177">
        <ele>318.33</ele>
        <time>2022-04-15T13:23:33Z</time>
      </trkpt>
      <trkpt lat="47.24327" lon="6.06174">
        <ele>317.37</ele>
        <time>2022-04-15T13:23:36Z</time>
      </trkpt>
      <trkpt lat="47.24278" lon="6.0614">
        <ele>314.01</ele>
        <time>2022-04-15T13:23:45Z</time>
      </trkpt>
      <trkpt lat="47.24246" lon="6.06117">
        <ele>310.64</ele>
        <time>2022-04-15T13:23:49Z</time>
      </trkpt>
      <trkpt lat="47.24192" lon="6.06085">
        <ele>307.28</ele>
        <time>2022-04-15T13:23:55Z</time>
      </trkpt>
      <trkpt lat="47.24164" lon="6.06068">
        <ele>302.95</ele>
        <time>2022-04-15T13:23:58Z</time>
      </trkpt>
      <trkpt lat="47.24154" lon="6.06064">
        <ele>301.99</ele>
        <time>2022-04-15T13:23:59Z</time>
      </trkpt>
      <trkpt lat="47.24133" lon="6.06056">
        <ele>300.07</ele>
        <time>2022-04-15T13:24:01Z</time>
      </trkpt>
      <trkpt lat="47.24095" lon="6.06035">
        <ele>297.67</ele>
        <time>2022-04-15T13:24:05Z</time>
      </trkpt>
      <trkpt lat="47.24086" lon="6.06035">
        <ele>296.7</ele>
        <time>2022-04-15T13:24:06Z</time>
      </trkpt>
      <trkpt lat="47.24054" lon="6.06037">
        <ele>292.38</ele>
        <time>2022-04-15T13:24:09Z</time>
      </trkpt>
      <trkpt lat="47.24042" lon="6.06036">
        <ele>290.94</ele>
        <time>2022-04-15T13:24:10Z</time>
      </trkpt>
      <trkpt lat="47.24031" lon="6.06032">
        <ele>289.97</ele>
        <time>2022-04-15T13:24:11Z</time>
      </trkpt>
      <trkpt lat="47.24021" lon="6.06029">
        <ele>289.01</ele>
        <time>2022-04-15T13:24:12Z</time>
      </trkpt>
      <trkpt lat="47.24012" lon="6.06029">
        <ele>288.53</ele>
        <time>2022-04-15T13:24:13Z</time>
      </trkpt>
      <trkpt lat="47.24002" lon="6.06031">
        <ele>287.57</ele>
        <time>2022-04-15T13:24:14Z</time>
      </trkpt>
      <trkpt lat="47.23993" lon="6.06033">
        <ele>287.09</ele>
        <time>2022-04-15T13:24:15Z</time>
      </trkpt>
      <trkpt lat="47.23965" lon="6.06039">
        <ele>283.25</ele>
        <time>2022-04-15T13:24:18Z</time>
      </trkpt>
      <trkpt lat="47.23955" lon="6.06039">
        <ele>282.28</ele>
        <time>2022-04-15T13:24:19Z</time>
      </trkpt>
      <trkpt lat="47.23945" lon="6.06037">
        <ele>281.32</ele>
        <time>2022-04-15T13:24:20Z</time>
      </trkpt>
      <trkpt lat="47.23936" lon="6.06034">
        <ele>280.36</ele>
        <time>2022-04-15T13:24:21Z</time>
      </trkpt>
      <trkpt lat="47.23926" lon="6.0603">
        <ele>279.88</ele>
        <time>2022-04-15T13:24:22Z</time>
      </trkpt>
      <trkpt lat="47.23827" lon="6.06009">
        <ele>277</ele>
        <time>2022-04-15T13:24:33Z</time>
      </trkpt>
      <trkpt lat="47.23812" lon="6.06007">
        <ele>276.04</ele>
        <time>2022-04-15T13:24:35Z</time>
      </trkpt>
      <trkpt lat="47.23805" lon="6.06005">
        <ele>275.07</ele>
        <time>2022-04-15T13:24:36Z</time>
      </trkpt>
      <trkpt lat="47.23798" lon="6.06002">
        <ele>274.59</ele>
        <time>2022-04-15T13:24:37Z</time>
      </trkpt>
      <trkpt lat="47.23791" lon="6.05996">
        <ele>273.15</ele>
        <time>2022-04-15T13:24:38Z</time>
      </trkpt>
      <trkpt lat="47.23784" lon="6.05989">
        <ele>271.71</ele>
        <time>2022-04-15T13:24:39Z</time>
      </trkpt>
      <trkpt lat="47.2377" lon="6.05977">
        <ele>269.31</ele>
        <time>2022-04-15T13:24:41Z</time>
      </trkpt>
      <trkpt lat="47.23762" lon="6.05973">
        <ele>267.38</ele>
        <time>2022-04-15T13:24:42Z</time>
      </trkpt>
      <trkpt lat="47.23753" lon="6.05971">
        <ele>265.46</ele>
        <time>2022-04-15T13:24:43Z</time>
      </trkpt>
      <trkpt lat="47.23736" lon="6.05969">
        <ele>261.62</ele>
        <time>2022-04-15T13:24:45Z</time>
      </trkpt>
      <trkpt lat="47.23727" lon="6.05969">
        <ele>260.17</ele>
        <time>2022-04-15T13:24:46Z</time>
      </trkpt>
      <trkpt lat="47.23719" lon="6.05971">
        <ele>258.25</ele>
        <time>2022-04-15T13:24:47Z</time>
      </trkpt>
      <trkpt lat="47.23711" lon="6.05975">
        <ele>256.81</ele>
        <time>2022-04-15T13:24:48Z</time>
      </trkpt>
      <trkpt lat="47.23703" lon="6.0598">
        <ele>255.37</ele>
        <time>2022-04-15T13:24:49Z</time>
      </trkpt>
      <trkpt lat="47.23695" lon="6.05985">
        <ele>253.93</ele>
        <time>2022-04-15T13:24:50Z</time>
      </trkpt>
      <trkpt lat="47.23689" lon="6.05991">
        <ele>252.48</ele>
        <time>2022-04-15T13:24:51Z</time>
      </trkpt>
      <trkpt lat="47.23678" lon="6.06002">
        <ele>251.52</ele>
        <time>2022-04-15T13:24:53Z</time>
      </trkpt>
      <trkpt lat="47.23664" lon="6.06017">
        <ele>251.52</ele>
        <time>2022-04-15T13:24:57Z</time>
      </trkpt>
      <trkpt lat="47.2366" lon="6.06018">
        <ele>251.52</ele>
        <time>2022-04-15T13:24:58Z</time>
      </trkpt>
      <trkpt lat="47.23656" lon="6.06017">
        <ele>251.52</ele>
        <time>2022-04-15T13:24:59Z</time>
      </trkpt>
      <trkpt lat="47.23652" lon="6.06015">
        <ele>251.52</ele>
        <time>2022-04-15T13:25:00Z</time>
      </trkpt>
      <trkpt lat="47.23648" lon="6.06013">
        <ele>251.52</ele>
        <time>2022-04-15T13:25:01Z</time>
      </trkpt>
      <trkpt lat="47.23577" lon="6.05975">
        <ele>251.04</ele>
        <time>2022-04-15T13:25:16Z</time>
      </trkpt>
      <trkpt lat="47.23472" lon="6.05943">
        <ele>251.52</ele>
        <time>2022-04-15T13:25:34Z</time>
      </trkpt>
      <trkpt lat="47.23373" lon="6.05916">
        <ele>251.52</ele>
        <time>2022-04-15T13:25:51Z</time>
      </trkpt>
      <trkpt lat="47.23367" lon="6.05912">
        <ele>251.52</ele>
        <time>2022-04-15T13:25:52Z</time>
      </trkpt>
      <trkpt lat="47.23289" lon="6.05853">
        <ele>251.04</ele>
        <time>2022-04-15T13:26:07Z</time>
      </trkpt>
      <trkpt lat="47.23217" lon="6.05763">
        <ele>251.52</ele>
        <time>2022-04-15T13:26:23Z</time>
      </trkpt>
      <trkpt lat="47.23214" lon="6.05756">
        <ele>251.52</ele>
        <time>2022-04-15T13:26:24Z</time>
      </trkpt>
      <trkpt lat="47.23212" lon="6.05748">
        <ele>251.04</ele>
        <time>2022-04-15T13:26:25Z</time>
      </trkpt>
      <trkpt lat="47.23197" lon="6.05676">
        <ele>251.04</ele>
        <time>2022-04-15T13:26:34Z</time>
      </trkpt>
      <trkpt lat="47.23194" lon="6.05669">
        <ele>251.04</ele>
        <time>2022-04-15T13:26:35Z</time>
      </trkpt>
      <trkpt lat="47.2319" lon="6.05663">
        <ele>251.52</ele>
        <time>2022-04-15T13:26:36Z</time>
      </trkpt>
      <trkpt lat="47.23187" lon="6.05657">
        <ele>252</ele>
        <time>2022-04-15T13:26:37Z</time>
      </trkpt>
      <trkpt lat="47.23182" lon="6.05652">
        <ele>252</ele>
        <time>2022-04-15T13:26:38Z</time>
      </trkpt>
      <trkpt lat="47.23178" lon="6.05648">
        <ele>252</ele>
        <time>2022-04-15T13:26:39Z</time>
      </trkpt>
      <trkpt lat="47.23174" lon="6.05643">
        <ele>252</ele>
        <time>2022-04-15T13:26:40Z</time>
      </trkpt>
      <trkpt lat="47.23139" lon="6.0561">
        <ele>252</ele>
        <time>2022-04-15T13:26:48Z</time>
      </trkpt>
      <trkpt lat="47.23134" lon="6.05607">
        <ele>252</ele>
        <time>2022-04-15T13:26:49Z</time>
      </trkpt>
      <trkpt lat="47.2313" lon="6.05605">
        <ele>252</ele>
        <time>2022-04-15T13:26:50Z</time>
      </trkpt>
      <trkpt lat="47.23125" lon="6.05605">
        <ele>252</ele>
        <time>2022-04-15T13:26:51Z</time>
      </trkpt>
      <trkpt lat="47.23121" lon="6.05606">
        <ele>252</ele>
        <time>2022-04-15T13:26:52Z</time>
      </trkpt>
      <trkpt lat="47.23112" lon="6.05607">
        <ele>252</ele>
        <time>2022-04-15T13:26:54Z</time>
      </trkpt>
      <trkpt lat="47.23104" lon="6.05607">
        <ele>252</ele>
        <time>2022-04-15T13:26:56Z</time>
      </trkpt>
      <trkpt lat="47.23088" lon="6.05612">
        <ele>252</ele>
        <time>2022-04-15T13:27:00Z</time>
      </trkpt>
      <trkpt lat="47.23086" lon="6.05616">
        <ele>252</ele>
        <time>2022-04-15T13:27:01Z</time>
      </trkpt>
      <trkpt lat="47.23086" lon="6.05622">
        <ele>252</ele>
        <time>2022-04-15T13:27:02Z</time>
      </trkpt>
      <trkpt lat="47.23086" lon="6.05627">
        <ele>252</ele>
        <time>2022-04-15T13:27:03Z</time>
      </trkpt>
      <trkpt lat="47.23086" lon="6.05633">
        <ele>252</ele>
        <time>2022-04-15T13:27:04Z</time>
      </trkpt>
      <trkpt lat="47.23087" lon="6.05638">
        <ele>252</ele>
        <time>2022-04-15T13:27:05Z</time>
      </trkpt>
      <trkpt lat="47.23087" lon="6.05656">
        <ele>252</ele>
        <time>2022-04-15T13:27:08Z</time>
      </trkpt>
      <trkpt lat="47.23089" lon="6.05662">
        <ele>252</ele>
        <time>2022-04-15T13:27:09Z</time>
      </trkpt>
      <trkpt lat="47.23091" lon="6.05667">
        <ele>252</ele>
        <time>2022-04-15T13:27:10Z</time>
      </trkpt>
      <trkpt lat="47.23094" lon="6.05672">
        <ele>252</ele>
        <time>2022-04-15T13:27:11Z</time>
      </trkpt>
      <trkpt lat="47.23097" lon="6.05677">
        <ele>252</ele>
        <time>2022-04-15T13:27:12Z</time>
      </trkpt>
      <trkpt lat="47.23102" lon="6.0568">
        <ele>252</ele>
        <time>2022-04-15T13:27:13Z</time>
      </trkpt>
      <trkpt lat="47.23137" lon="6.05705">
        <ele>254.41</ele>
        <time>2022-04-15T13:27:24Z</time>
      </trkpt>
      <trkpt lat="47.23157" lon="6.0572">
        <ele>256.33</ele>
        <time>2022-04-15T13:27:32Z</time>
      </trkpt>
      <trkpt lat="47.23156" lon="6.05723">
        <ele>256.33</ele>
        <time>2022-04-15T13:27:33Z</time>
      </trkpt>
      <trkpt lat="47.23154" lon="6.05725">
        <ele>256.33</ele>
        <time>2022-04-15T13:27:34Z</time>
      </trkpt>
      <trkpt lat="47.23152" lon="6.05729">
        <ele>256.81</ele>
        <time>2022-04-15T13:27:35Z</time>
      </trkpt>
      <trkpt lat="47.2315" lon="6.05733">
        <ele>256.33</ele>
        <time>2022-04-15T13:27:36Z</time>
      </trkpt>
      <trkpt lat="47.23116" lon="6.05803">
        <ele>257.77</ele>
        <time>2022-04-15T13:27:52Z</time>
      </trkpt>
      <trkpt lat="47.23105" lon="6.05825">
        <ele>256.33</ele>
        <time>2022-04-15T13:27:57Z</time>
      </trkpt>
      <trkpt lat="47.23102" lon="6.05825">
        <ele>256.33</ele>
        <time>2022-04-15T13:27:58Z</time>
      </trkpt>
      <trkpt lat="47.23099" lon="6.05823">
        <ele>256.33</ele>
        <time>2022-04-15T13:27:59Z</time>
      </trkpt>
      <trkpt lat="47.23064" lon="6.05794">
        <ele>253.44</ele>
        <time>2022-04-15T13:28:08Z</time>
      </trkpt>
      <trkpt lat="47.23062" lon="6.05797">
        <ele>252.96</ele>
        <time>2022-04-15T13:28:09Z</time>
      </trkpt>
      <trkpt lat="47.23059" lon="6.05808">
        <ele>252.96</ele>
        <time>2022-04-15T13:28:12Z</time>
      </trkpt>
      <trkpt lat="47.2306" lon="6.05811">
        <ele>252.48</ele>
        <time>2022-04-15T13:28:13Z</time>
      </trkpt>
      <trkpt lat="47.23062" lon="6.05813">
        <ele>252.48</ele>
        <time>2022-04-15T13:28:14Z</time>
      </trkpt>
      <trkpt lat="47.23065" lon="6.05815">
        <ele>252.48</ele>
        <time>2022-04-15T13:28:15Z</time>
      </trkpt>
      <trkpt lat="47.23069" lon="6.05818">
        <ele>252</ele>
        <time>2022-04-15T13:28:16Z</time>
      </trkpt>
      <trkpt lat="47.23073" lon="6.05824">
        <ele>251.52</ele>
        <time>2022-04-15T13:28:18Z</time>
      </trkpt>
      <trkpt lat="47.23075" lon="6.05828">
        <ele>251.52</ele>
        <time>2022-04-15T13:28:19Z</time>
      </trkpt>
      <trkpt lat="47.23077" lon="6.0583">
        <ele>251.52</ele>
        <time>2022-04-15T13:28:20Z</time>
      </trkpt>
      <trkpt lat="47.23081" lon="6.05833">
        <ele>251.52</ele>
        <time>2022-04-15T13:28:21Z</time>
      </trkpt>
      <trkpt lat="47.23084" lon="6.05836">
        <ele>251.52</ele>
        <time>2022-04-15T13:28:22Z</time>
      </trkpt>
      <trkpt lat="47.23091" lon="6.05844">
        <ele>251.52</ele>
        <time>2022-04-15T13:28:24Z</time>
      </trkpt>
      <trkpt lat="47.23092" lon="6.0585">
        <ele>251.52</ele>
        <time>2022-04-15T13:28:25Z</time>
      </trkpt>
      <trkpt lat="47.23092" lon="6.05856">
        <ele>251.52</ele>
        <time>2022-04-15T13:28:26Z</time>
      </trkpt>
      <trkpt lat="47.23091" lon="6.05861">
        <ele>251.52</ele>
        <time>2022-04-15T13:28:27Z</time>
      </trkpt>
      <trkpt lat="47.23089" lon="6.05866">
        <ele>252</ele>
        <time>2022-04-15T13:28:28Z</time>
      </trkpt>
      <trkpt lat="47.23089" lon="6.05871">
        <ele>251.52</ele>
        <time>2022-04-15T13:28:29Z</time>
      </trkpt>
      <trkpt lat="47.23089" lon="6.05876">
        <ele>251.52</ele>
        <time>2022-04-15T13:28:30Z</time>
      </trkpt>
      <trkpt lat="47.23092" lon="6.0588">
        <ele>251.52</ele>
        <time>2022-04-15T13:28:31Z</time>
      </trkpt>
      <trkpt lat="47.23097" lon="6.05883">
        <ele>251.52</ele>
        <time>2022-04-15T13:28:32Z</time>
      </trkpt>
      <trkpt lat="47.23111" lon="6.05896">
        <ele>251.04</ele>
        <time>2022-04-15T13:28:35Z</time>
      </trkpt>
      <trkpt lat="47.23175" lon="6.05975">
        <ele>251.04</ele>
        <time>2022-04-15T13:28:51Z</time>
      </trkpt>
      <trkpt lat="47.23197" lon="6.06004">
        <ele>251.52</ele>
        <time>2022-04-15T13:28:57Z</time>
      </trkpt>
      <trkpt lat="47.23225" lon="6.06066">
        <ele>252.96</ele>
        <time>2022-04-15T13:29:08Z</time>
      </trkpt>
      <trkpt lat="47.23227" lon="6.06072">
        <ele>252.96</ele>
        <time>2022-04-15T13:29:09Z</time>
      </trkpt>
      <trkpt lat="47.23228" lon="6.06078">
        <ele>252.96</ele>
        <time>2022-04-15T13:29:10Z</time>
      </trkpt>
      <trkpt lat="47.23227" lon="6.06084">
        <ele>253.44</ele>
        <time>2022-04-15T13:29:11Z</time>
      </trkpt>
      <trkpt lat="47.23227" lon="6.06089">
        <ele>253.44</ele>
        <time>2022-04-15T13:29:12Z</time>
      </trkpt>
      <trkpt lat="47.23227" lon="6.06093">
        <ele>253.93</ele>
        <time>2022-04-15T13:29:13Z</time>
      </trkpt>
      <trkpt lat="47.23229" lon="6.06112">
        <ele>255.85</ele>
        <time>2022-04-15T13:29:18Z</time>
      </trkpt>
      <trkpt lat="47.23231" lon="6.06115">
        <ele>256.33</ele>
        <time>2022-04-15T13:29:19Z</time>
      </trkpt>
      <trkpt lat="47.2324" lon="6.06157">
        <ele>259.21</ele>
        <time>2022-04-15T13:29:31Z</time>
      </trkpt>
      <trkpt lat="47.23242" lon="6.06191">
        <ele>262.58</ele>
        <time>2022-04-15T13:29:43Z</time>
      </trkpt>
      <trkpt lat="47.23229" lon="6.0621">
        <ele>265.46</ele>
        <time>2022-04-15T13:29:54Z</time>
      </trkpt>
      <trkpt lat="47.23217" lon="6.06234">
        <ele>268.35</ele>
        <time>2022-04-15T13:30:07Z</time>
      </trkpt>
      <trkpt lat="47.23214" lon="6.06252">
        <ele>270.75</ele>
        <time>2022-04-15T13:30:15Z</time>
      </trkpt>
      <trkpt lat="47.23211" lon="6.06273">
        <ele>274.11</ele>
        <time>2022-04-15T13:30:26Z</time>
      </trkpt>
      <trkpt lat="47.23208" lon="6.06291">
        <ele>276.52</ele>
        <time>2022-04-15T13:30:38Z</time>
      </trkpt>
      <trkpt lat="47.23208" lon="6.06299">
        <ele>277</ele>
        <time>2022-04-15T13:30:49Z</time>
      </trkpt>
      <trkpt lat="47.23209" lon="6.06302">
        <ele>277.48</ele>
        <time>2022-04-15T13:30:51Z</time>
      </trkpt>
      <trkpt lat="47.23208" lon="6.06304">
        <ele>277.96</ele>
        <time>2022-04-15T13:30:52Z</time>
      </trkpt>
      <trkpt lat="47.23208" lon="6.06307">
        <ele>277.96</ele>
        <time>2022-04-15T13:30:53Z</time>
      </trkpt>
      <trkpt lat="47.23207" lon="6.06309">
        <ele>277.96</ele>
        <time>2022-04-15T13:30:54Z</time>
      </trkpt>
      <trkpt lat="47.23207" lon="6.06312">
        <ele>278.44</ele>
        <time>2022-04-15T13:30:55Z</time>
      </trkpt>
      <trkpt lat="47.23198" lon="6.06356">
        <ele>281.32</ele>
        <time>2022-04-15T13:31:10Z</time>
      </trkpt>
      <trkpt lat="47.23183" lon="6.06389">
        <ele>283.25</ele>
        <time>2022-04-15T13:31:23Z</time>
      </trkpt>
      <trkpt lat="47.23172" lon="6.06403">
        <ele>285.17</ele>
        <time>2022-04-15T13:31:33Z</time>
      </trkpt>
      <trkpt lat="47.23165" lon="6.06412">
        <ele>286.61</ele>
        <time>2022-04-15T13:31:40Z</time>
      </trkpt>
      <trkpt lat="47.23164" lon="6.06414">
        <ele>287.09</ele>
        <time>2022-04-15T13:31:41Z</time>
      </trkpt>
      <trkpt lat="47.23163" lon="6.06415">
        <ele>287.57</ele>
        <time>2022-04-15T13:31:42Z</time>
      </trkpt>
      <trkpt lat="47.23162" lon="6.06416">
        <ele>287.57</ele>
        <time>2022-04-15T13:31:43Z</time>
      </trkpt>
      <trkpt lat="47.23161" lon="6.06418">
        <ele>287.57</ele>
        <time>2022-04-15T13:31:44Z</time>
      </trkpt>
      <trkpt lat="47.23159" lon="6.06419">
        <ele>288.05</ele>
        <time>2022-04-15T13:31:45Z</time>
      </trkpt>
      <trkpt lat="47.23158" lon="6.06421">
        <ele>288.53</ele>
        <time>2022-04-15T13:31:46Z</time>
      </trkpt>
      <trkpt lat="47.23145" lon="6.06452">
        <ele>291.42</ele>
        <time>2022-04-15T13:32:00Z</time>
      </trkpt>
      <trkpt lat="47.23142" lon="6.06465">
        <ele>293.34</ele>
        <time>2022-04-15T13:32:07Z</time>
      </trkpt>
      <trkpt lat="47.23141" lon="6.06467">
        <ele>293.82</ele>
        <time>2022-04-15T13:32:08Z</time>
      </trkpt>
      <trkpt lat="47.23141" lon="6.06469">
        <ele>293.82</ele>
        <time>2022-04-15T13:32:09Z</time>
      </trkpt>
      <trkpt lat="47.23141" lon="6.0647">
        <ele>294.3</ele>
        <time>2022-04-15T13:32:10Z</time>
      </trkpt>
      <trkpt lat="47.23136" lon="6.06485">
        <ele>297.18</ele>
        <time>2022-04-15T13:32:20Z</time>
      </trkpt>
      <trkpt lat="47.23134" lon="6.06493">
        <ele>298.63</ele>
        <time>2022-04-15T13:32:24Z</time>
      </trkpt>
      <trkpt lat="47.23134" lon="6.06495">
        <ele>299.11</ele>
        <time>2022-04-15T13:32:25Z</time>
      </trkpt>
      <trkpt lat="47.23134" lon="6.06515">
        <ele>301.51</ele>
        <time>2022-04-15T13:32:35Z</time>
      </trkpt>
      <trkpt lat="47.23134" lon="6.06517">
        <ele>301.51</ele>
        <time>2022-04-15T13:32:36Z</time>
      </trkpt>
      <trkpt lat="47.23135" lon="6.06522">
        <ele>302.95</ele>
        <time>2022-04-15T13:32:39Z</time>
      </trkpt>
      <trkpt lat="47.23135" lon="6.06525">
        <ele>302.95</ele>
        <time>2022-04-15T13:32:40Z</time>
      </trkpt>
      <trkpt lat="47.23136" lon="6.06526">
        <ele>303.43</ele>
        <time>2022-04-15T13:32:41Z</time>
      </trkpt>
      <trkpt lat="47.23137" lon="6.06529">
        <ele>303.43</ele>
        <time>2022-04-15T13:32:42Z</time>
      </trkpt>
      <trkpt lat="47.23137" lon="6.0653">
        <ele>303.91</ele>
        <time>2022-04-15T13:32:43Z</time>
      </trkpt>
      <trkpt lat="47.23138" lon="6.0654">
        <ele>305.36</ele>
        <time>2022-04-15T13:32:48Z</time>
      </trkpt>
      <trkpt lat="47.23138" lon="6.06542">
        <ele>305.36</ele>
        <time>2022-04-15T13:32:49Z</time>
      </trkpt>
      <trkpt lat="47.23137" lon="6.06546">
        <ele>305.84</ele>
        <time>2022-04-15T13:32:51Z</time>
      </trkpt>
      <trkpt lat="47.23136" lon="6.06551">
        <ele>306.8</ele>
        <time>2022-04-15T13:32:54Z</time>
      </trkpt>
      <trkpt lat="47.23136" lon="6.06552">
        <ele>306.8</ele>
        <time>2022-04-15T13:32:55Z</time>
      </trkpt>
      <trkpt lat="47.23136" lon="6.06554">
        <ele>307.28</ele>
        <time>2022-04-15T13:32:56Z</time>
      </trkpt>
      <trkpt lat="47.23136" lon="6.06556">
        <ele>307.28</ele>
        <time>2022-04-15T13:32:57Z</time>
      </trkpt>
      <trkpt lat="47.23131" lon="6.06567">
        <ele>309.2</ele>
        <time>2022-04-15T13:33:04Z</time>
      </trkpt>
      <trkpt lat="47.23128" lon="6.06572">
        <ele>310.64</ele>
        <time>2022-04-15T13:33:08Z</time>
      </trkpt>
      <trkpt lat="47.23125" lon="6.06578">
        <ele>311.6</ele>
        <time>2022-04-15T13:33:12Z</time>
      </trkpt>
      <trkpt lat="47.2312" lon="6.06596">
        <ele>314.49</ele>
        <time>2022-04-15T13:33:24Z</time>
      </trkpt>
      <trkpt lat="47.2312" lon="6.06597">
        <ele>314.49</ele>
        <time>2022-04-15T13:33:25Z</time>
      </trkpt>
      <trkpt lat="47.23117" lon="6.06597">
        <ele>315.45</ele>
        <time>2022-04-15T13:33:29Z</time>
      </trkpt>
      <trkpt lat="47.23113" lon="6.06585">
        <ele>317.85</ele>
        <time>2022-04-15T13:33:42Z</time>
      </trkpt>
      <trkpt lat="47.23114" lon="6.0658">
        <ele>318.81</ele>
        <time>2022-04-15T13:33:46Z</time>
      </trkpt>
      <trkpt lat="47.23113" lon="6.06572">
        <ele>319.78</ele>
        <time>2022-04-15T13:33:52Z</time>
      </trkpt>
      <trkpt lat="47.2311" lon="6.06569">
        <ele>320.26</ele>
        <time>2022-04-15T13:33:54Z</time>
      </trkpt>
      <trkpt lat="47.23095" lon="6.0656">
        <ele>323.14</ele>
        <time>2022-04-15T13:34:08Z</time>
      </trkpt>
      <trkpt lat="47.23082" lon="6.06554">
        <ele>326.02</ele>
        <time>2022-04-15T13:34:21Z</time>
      </trkpt>
      <trkpt lat="47.23065" lon="6.06551">
        <ele>326.99</ele>
        <time>2022-04-15T13:34:35Z</time>
      </trkpt>
      <trkpt lat="47.23056" lon="6.06546">
        <ele>327.47</ele>
        <time>2022-04-15T13:34:41Z</time>
      </trkpt>
      <trkpt lat="47.23046" lon="6.06547">
        <ele>328.91</ele>
        <time>2022-04-15T13:34:53Z</time>
      </trkpt>
      <trkpt lat="47.23044" lon="6.06547">
        <ele>328.91</ele>
        <time>2022-04-15T13:34:54Z</time>
      </trkpt>
      <trkpt lat="47.23026" lon="6.0655">
        <ele>329.87</ele>
        <time>2022-04-15T13:35:06Z</time>
      </trkpt>
      <trkpt lat="47.23013" lon="6.06552">
        <ele>330.83</ele>
        <time>2022-04-15T13:35:18Z</time>
      </trkpt>
      <trkpt lat="47.22994" lon="6.06555">
        <ele>332.27</ele>
        <time>2022-04-15T13:35:34Z</time>
      </trkpt>
      <trkpt lat="47.22987" lon="6.06556">
        <ele>333.23</ele>
        <time>2022-04-15T13:35:40Z</time>
      </trkpt>
      <trkpt lat="47.22986" lon="6.06559">
        <ele>334.2</ele>
        <time>2022-04-15T13:35:42Z</time>
      </trkpt>
      <trkpt lat="47.22996" lon="6.06569">
        <ele>336.12</ele>
        <time>2022-04-15T13:35:53Z</time>
      </trkpt>
      <trkpt lat="47.23006" lon="6.06575">
        <ele>338.52</ele>
        <time>2022-04-15T13:36:02Z</time>
      </trkpt>
      <trkpt lat="47.23015" lon="6.06582">
        <ele>340.44</ele>
        <time>2022-04-15T13:36:10Z</time>
      </trkpt>
      <trkpt lat="47.23019" lon="6.06584">
        <ele>340.92</ele>
        <time>2022-04-15T13:36:13Z</time>
      </trkpt>
      <trkpt lat="47.2303" lon="6.06596">
        <ele>343.81</ele>
        <time>2022-04-15T13:36:24Z</time>
      </trkpt>
      <trkpt lat="47.23035" lon="6.06601">
        <ele>344.77</ele>
        <time>2022-04-15T13:36:35Z</time>
      </trkpt>
      <trkpt lat="47.23035" lon="6.06606">
        <ele>345.73</ele>
        <time>2022-04-15T13:36:41Z</time>
      </trkpt>
      <trkpt lat="47.23035" lon="6.06609">
        <ele>346.69</ele>
        <time>2022-04-15T13:36:52Z</time>
      </trkpt>
      <trkpt lat="47.23039" lon="6.06612">
        <ele>347.17</ele>
        <time>2022-04-15T13:37:00Z</time>
      </trkpt>
      <trkpt lat="47.23049" lon="6.06623">
        <ele>349.1</ele>
        <time>2022-04-15T13:37:12Z</time>
      </trkpt>
      <trkpt lat="47.23055" lon="6.06627">
        <ele>349.58</ele>
        <time>2022-04-15T13:37:16Z</time>
      </trkpt>
      <trkpt lat="47.23061" lon="6.06642">
        <ele>351.5</ele>
        <time>2022-04-15T13:37:27Z</time>
      </trkpt>
      <trkpt lat="47.23067" lon="6.06665">
        <ele>354.86</ele>
        <time>2022-04-15T13:37:40Z</time>
      </trkpt>
      <trkpt lat="47.23066" lon="6.06675">
        <ele>356.79</ele>
        <time>2022-04-15T13:37:45Z</time>
      </trkpt>
      <trkpt lat="47.23059" lon="6.06684">
        <ele>358.23</ele>
        <time>2022-04-15T13:37:51Z</time>
      </trkpt>
      <trkpt lat="47.23051" lon="6.06708">
        <ele>358.71</ele>
        <time>2022-04-15T13:38:02Z</time>
      </trkpt>
      <trkpt lat="47.2305" lon="6.0671">
        <ele>358.71</ele>
        <time>2022-04-15T13:38:03Z</time>
      </trkpt>
      <trkpt lat="47.23036" lon="6.06739">
        <ele>361.11</ele>
        <time>2022-04-15T13:38:17Z</time>
      </trkpt>
      <trkpt lat="47.23029" lon="6.06756">
        <ele>362.55</ele>
        <time>2022-04-15T13:38:26Z</time>
      </trkpt>
      <trkpt lat="47.23032" lon="6.06763">
        <ele>363.52</ele>
        <time>2022-04-15T13:38:30Z</time>
      </trkpt>
      <trkpt lat="47.23072" lon="6.06783">
        <ele>361.59</ele>
        <time>2022-04-15T13:38:42Z</time>
      </trkpt>
      <trkpt lat="47.23076" lon="6.06785">
        <ele>361.59</ele>
        <time>2022-04-15T13:38:43Z</time>
      </trkpt>
      <trkpt lat="47.23125" lon="6.068">
        <ele>362.07</ele>
        <time>2022-04-15T13:38:57Z</time>
      </trkpt>
      <trkpt lat="47.23156" lon="6.06782">
        <ele>363.52</ele>
        <time>2022-04-15T13:39:10Z</time>
      </trkpt>
      <trkpt lat="47.23179" lon="6.06755">
        <ele>366.88</ele>
        <time>2022-04-15T13:39:24Z</time>
      </trkpt>
      <trkpt lat="47.23206" lon="6.06748">
        <ele>368.8</ele>
        <time>2022-04-15T13:39:36Z</time>
      </trkpt>
      <trkpt lat="47.23226" lon="6.06736">
        <ele>370.24</ele>
        <time>2022-04-15T13:39:47Z</time>
      </trkpt>
      <trkpt lat="47.23228" lon="6.06735">
        <ele>370.24</ele>
        <time>2022-04-15T13:39:48Z</time>
      </trkpt>
      <trkpt lat="47.23234" lon="6.06732">
        <ele>371.69</ele>
        <time>2022-04-15T13:40:02Z</time>
      </trkpt>
      <trkpt lat="47.23244" lon="6.06724">
        <ele>373.61</ele>
        <time>2022-04-15T13:40:12Z</time>
      </trkpt>
      <trkpt lat="47.23245" lon="6.06723">
        <ele>374.09</ele>
        <time>2022-04-15T13:40:13Z</time>
      </trkpt>
      <trkpt lat="47.23251" lon="6.06717">
        <ele>375.53</ele>
        <time>2022-04-15T13:40:18Z</time>
      </trkpt>
      <trkpt lat="47.23252" lon="6.06716">
        <ele>376.01</ele>
        <time>2022-04-15T13:40:19Z</time>
      </trkpt>
      <trkpt lat="47.23259" lon="6.06702">
        <ele>377.94</ele>
        <time>2022-04-15T13:40:28Z</time>
      </trkpt>
      <trkpt lat="47.2326" lon="6.067">
        <ele>377.94</ele>
        <time>2022-04-15T13:40:29Z</time>
      </trkpt>
      <trkpt lat="47.2326" lon="6.06698">
        <ele>378.42</ele>
        <time>2022-04-15T13:40:30Z</time>
      </trkpt>
      <trkpt lat="47.23261" lon="6.06696">
        <ele>378.42</ele>
        <time>2022-04-15T13:40:31Z</time>
      </trkpt>
      <trkpt lat="47.23263" lon="6.06693">
        <ele>377.94</ele>
        <time>2022-04-15T13:40:32Z</time>
      </trkpt>
      <trkpt lat="47.23265" lon="6.0669">
        <ele>377.94</ele>
        <time>2022-04-15T13:40:33Z</time>
      </trkpt>
      <trkpt lat="47.23268" lon="6.06688">
        <ele>377.45</ele>
        <time>2022-04-15T13:40:34Z</time>
      </trkpt>
      <trkpt lat="47.23271" lon="6.06686">
        <ele>377.45</ele>
        <time>2022-04-15T13:40:35Z</time>
      </trkpt>
      <trkpt lat="47.23273" lon="6.06682">
        <ele>377.45</ele>
        <time>2022-04-15T13:40:36Z</time>
      </trkpt>
      <trkpt lat="47.23275" lon="6.06678">
        <ele>377.45</ele>
        <time>2022-04-15T13:40:37Z</time>
      </trkpt>
      <trkpt lat="47.23277" lon="6.06675">
        <ele>377.94</ele>
        <time>2022-04-15T13:40:38Z</time>
      </trkpt>
      <trkpt lat="47.23294" lon="6.06656">
        <ele>377.94</ele>
        <time>2022-04-15T13:40:48Z</time>
      </trkpt>
      <trkpt lat="47.23307" lon="6.06643">
        <ele>378.9</ele>
        <time>2022-04-15T13:40:55Z</time>
      </trkpt>
      <trkpt lat="47.23309" lon="6.0664">
        <ele>378.9</ele>
        <time>2022-04-15T13:40:56Z</time>
      </trkpt>
      <trkpt lat="47.23329" lon="6.06614">
        <ele>379.86</ele>
        <time>2022-04-15T13:41:07Z</time>
      </trkpt>
      <trkpt lat="47.23338" lon="6.06606">
        <ele>381.78</ele>
        <time>2022-04-15T13:41:18Z</time>
      </trkpt>
      <trkpt lat="47.23338" lon="6.06604">
        <ele>381.78</ele>
        <time>2022-04-15T13:41:36Z</time>
      </trkpt>
      <trkpt lat="47.23341" lon="6.066">
        <ele>381.78</ele>
        <time>2022-04-15T13:41:49Z</time>
      </trkpt>
      <trkpt lat="47.23343" lon="6.066">
        <ele>381.78</ele>
        <time>2022-04-15T13:42:24Z</time>
      </trkpt>
      <trkpt lat="47.23343" lon="6.06598">
        <ele>382.26</ele>
        <time>2022-04-15T13:43:00Z</time>
      </trkpt>
      <trkpt lat="47.23342" lon="6.06599">
        <ele>382.26</ele>
        <time>2022-04-15T13:43:30Z</time>
      </trkpt>
      <trkpt lat="47.23342" lon="6.06599">
        <ele>382.26</ele>
        <time>2022-04-15T13:43:57Z</time>
      </trkpt>
      <trkpt lat="47.23342" lon="6.06599">
        <ele>382.26</ele>
        <time>2022-04-15T13:44:25Z</time>
      </trkpt>
      <trkpt lat="47.23342" lon="6.06597">
        <ele>382.26</ele>
        <time>2022-04-15T13:44:54Z</time>
      </trkpt>
      <trkpt lat="47.2334" lon="6.06597">
        <ele>382.26</ele>
        <time>2022-04-15T13:45:19Z</time>
      </trkpt>
      <trkpt lat="47.23339" lon="6.06598">
        <ele>382.26</ele>
        <time>2022-04-15T13:45:44Z</time>
      </trkpt>
      <trkpt lat="47.23339" lon="6.06598">
        <ele>382.26</ele>
        <time>2022-04-15T13:46:09Z</time>
      </trkpt>
      <trkpt lat="47.23338" lon="6.06598">
        <ele>382.26</ele>
        <time>2022-04-15T13:46:34Z</time>
      </trkpt>
      <trkpt lat="47.23339" lon="6.06598">
        <ele>382.26</ele>
        <time>2022-04-15T13:46:57Z</time>
      </trkpt>
      <trkpt lat="47.23339" lon="6.06597">
        <ele>382.26</ele>
        <time>2022-04-15T13:47:21Z</time>
      </trkpt>
      <trkpt lat="47.23341" lon="6.06597">
        <ele>382.26</ele>
        <time>2022-04-15T13:47:48Z</time>
      </trkpt>
      <trkpt lat="47.23339" lon="6.06597">
        <ele>382.26</ele>
        <time>2022-04-15T13:48:13Z</time>
      </trkpt>
      <trkpt lat="47.2334" lon="6.06597">
        <ele>382.26</ele>
        <time>2022-04-15T13:48:40Z</time>
      </trkpt>
      <trkpt lat="47.23339" lon="6.06596">
        <ele>382.26</ele>
        <time>2022-04-15T13:49:05Z</time>
      </trkpt>
      <trkpt lat="47.2334" lon="6.06596">
        <ele>382.74</ele>
        <time>2022-04-15T13:49:29Z</time>
      </trkpt>
      <trkpt lat="47.23341" lon="6.06597">
        <ele>382.74</ele>
        <time>2022-04-15T13:49:54Z</time>
      </trkpt>
      <trkpt lat="47.2334" lon="6.06598">
        <ele>382.74</ele>
        <time>2022-04-15T13:50:18Z</time>
      </trkpt>
      <trkpt lat="47.23341" lon="6.06597">
        <ele>382.74</ele>
        <time>2022-04-15T13:50:46Z</time>
      </trkpt>
      <trkpt lat="47.23342" lon="6.06598">
        <ele>382.74</ele>
        <time>2022-04-15T13:51:12Z</time>
      </trkpt>
      <trkpt lat="47.23343" lon="6.06598">
        <ele>382.74</ele>
        <time>2022-04-15T13:51:41Z</time>
      </trkpt>
      <trkpt lat="47.23343" lon="6.06599">
        <ele>382.74</ele>
        <time>2022-04-15T13:52:05Z</time>
      </trkpt>
      <trkpt lat="47.23342" lon="6.06599">
        <ele>382.74</ele>
        <time>2022-04-15T13:52:33Z</time>
      </trkpt>
      <trkpt lat="47.23341" lon="6.066">
        <ele>382.74</ele>
        <time>2022-04-15T13:52:56Z</time>
      </trkpt>
      <trkpt lat="47.23341" lon="6.06599">
        <ele>382.74</ele>
        <time>2022-04-15T13:53:23Z</time>
      </trkpt>
      <trkpt lat="47.23342" lon="6.066">
        <ele>382.74</ele>
        <time>2022-04-15T13:53:49Z</time>
      </trkpt>
      <trkpt lat="47.23341" lon="6.06599">
        <ele>382.74</ele>
        <time>2022-04-15T13:54:10Z</time>
      </trkpt>
      <trkpt lat="47.23341" lon="6.06599">
        <ele>382.74</ele>
        <time>2022-04-15T13:54:34Z</time>
      </trkpt>
      <trkpt lat="47.23341" lon="6.06599">
        <ele>383.22</ele>
        <time>2022-04-15T13:54:59Z</time>
      </trkpt>
      <trkpt lat="47.23341" lon="6.06599">
        <ele>383.7</ele>
        <time>2022-04-15T13:55:31Z</time>
      </trkpt>
      <trkpt lat="47.2334" lon="6.06601">
        <ele>383.22</ele>
        <time>2022-04-15T13:55:59Z</time>
      </trkpt>
      <trkpt lat="47.2334" lon="6.06601">
        <ele>383.22</ele>
        <time>2022-04-15T13:56:26Z</time>
      </trkpt>
      <trkpt lat="47.2334" lon="6.06601">
        <ele>383.7</ele>
        <time>2022-04-15T13:56:48Z</time>
      </trkpt>
      <trkpt lat="47.2334" lon="6.066">
        <ele>383.7</ele>
        <time>2022-04-15T13:57:12Z</time>
      </trkpt>
      <trkpt lat="47.2334" lon="6.06599">
        <ele>384.18</ele>
        <time>2022-04-15T13:57:40Z</time>
      </trkpt>
      <trkpt lat="47.23339" lon="6.06599">
        <ele>384.18</ele>
        <time>2022-04-15T13:58:06Z</time>
      </trkpt>
      <trkpt lat="47.23339" lon="6.06597">
        <ele>384.18</ele>
        <time>2022-04-15T13:58:32Z</time>
      </trkpt>
      <trkpt lat="47.23339" lon="6.06598">
        <ele>384.18</ele>
        <time>2022-04-15T13:58:58Z</time>
      </trkpt>
      <trkpt lat="47.23338" lon="6.06597">
        <ele>384.66</ele>
        <time>2022-04-15T13:59:21Z</time>
      </trkpt>
      <trkpt lat="47.23337" lon="6.06597">
        <ele>384.66</ele>
        <time>2022-04-15T13:59:45Z</time>
      </trkpt>
      <trkpt lat="47.23337" lon="6.06597">
        <ele>384.66</ele>
        <time>2022-04-15T14:00:11Z</time>
      </trkpt>
      <trkpt lat="47.23338" lon="6.06595">
        <ele>384.66</ele>
        <time>2022-04-15T14:00:38Z</time>
      </trkpt>
      <trkpt lat="47.23338" lon="6.06596">
        <ele>384.66</ele>
        <time>2022-04-15T14:01:02Z</time>
      </trkpt>
      <trkpt lat="47.23338" lon="6.06597">
        <ele>384.66</ele>
        <time>2022-04-15T14:01:26Z</time>
      </trkpt>
      <trkpt lat="47.23338" lon="6.06597">
        <ele>385.15</ele>
        <time>2022-04-15T14:01:50Z</time>
      </trkpt>
      <trkpt lat="47.23338" lon="6.06597">
        <ele>385.15</ele>
        <time>2022-04-15T14:02:10Z</time>
      </trkpt>
      <trkpt lat="47.23338" lon="6.06597">
        <ele>385.63</ele>
        <time>2022-04-15T14:02:35Z</time>
      </trkpt>
      <trkpt lat="47.23338" lon="6.06598">
        <ele>385.63</ele>
        <time>2022-04-15T14:03:02Z</time>
      </trkpt>
      <trkpt lat="47.23338" lon="6.06597">
        <ele>385.63</ele>
        <time>2022-04-15T14:03:23Z</time>
      </trkpt>
      <trkpt lat="47.23337" lon="6.06598">
        <ele>385.63</ele>
        <time>2022-04-15T14:03:51Z</time>
      </trkpt>
      <trkpt lat="47.23337" lon="6.06598">
        <ele>386.11</ele>
        <time>2022-04-15T14:04:16Z</time>
      </trkpt>
      <trkpt lat="47.23336" lon="6.06599">
        <ele>386.11</ele>
        <time>2022-04-15T14:04:43Z</time>
      </trkpt>
      <trkpt lat="47.23337" lon="6.066">
        <ele>385.63</ele>
        <time>2022-04-15T14:05:09Z</time>
      </trkpt>
      <trkpt lat="47.23337" lon="6.066">
        <ele>385.63</ele>
        <time>2022-04-15T14:05:35Z</time>
      </trkpt>
      <trkpt lat="47.23337" lon="6.06599">
        <ele>385.15</ele>
        <time>2022-04-15T14:05:54Z</time>
      </trkpt>
      <trkpt lat="47.23338" lon="6.066">
        <ele>385.15</ele>
        <time>2022-04-15T14:06:17Z</time>
      </trkpt>
      <trkpt lat="47.23338" lon="6.06598">
        <ele>385.15</ele>
        <time>2022-04-15T14:06:38Z</time>
      </trkpt>
      <trkpt lat="47.23338" lon="6.06599">
        <ele>385.15</ele>
        <time>2022-04-15T14:07:02Z</time>
      </trkpt>
      <trkpt lat="47.23338" lon="6.06598">
        <ele>385.15</ele>
        <time>2022-04-15T14:07:22Z</time>
      </trkpt>
      <trkpt lat="47.23337" lon="6.06597">
        <ele>385.15</ele>
        <time>2022-04-15T14:07:49Z</time>
      </trkpt>
      <trkpt lat="47.23337" lon="6.06596">
        <ele>385.15</ele>
        <time>2022-04-15T14:08:15Z</time>
      </trkpt>
      <trkpt lat="47.23337" lon="6.06595">
        <ele>385.63</ele>
        <time>2022-04-15T14:08:41Z</time>
      </trkpt>
      <trkpt lat="47.23336" lon="6.06596">
        <ele>385.63</ele>
        <time>2022-04-15T14:09:17Z</time>
      </trkpt>
      <trkpt lat="47.23336" lon="6.06597">
        <ele>385.63</ele>
        <time>2022-04-15T14:09:42Z</time>
      </trkpt>
      <trkpt lat="47.23338" lon="6.06597">
        <ele>385.63</ele>
        <time>2022-04-15T14:10:01Z</time>
      </trkpt>
      <trkpt lat="47.23339" lon="6.06598">
        <ele>385.63</ele>
        <time>2022-04-15T14:10:17Z</time>
      </trkpt>
      <trkpt lat="47.23339" lon="6.06599">
        <ele>385.63</ele>
        <time>2022-04-15T14:10:38Z</time>
      </trkpt>
      <trkpt lat="47.2334" lon="6.06599">
        <ele>385.63</ele>
        <time>2022-04-15T14:10:55Z</time>
      </trkpt>
      <trkpt lat="47.23341" lon="6.06599">
        <ele>385.63</ele>
        <time>2022-04-15T14:11:19Z</time>
      </trkpt>
      <trkpt lat="47.23341" lon="6.06599">
        <ele>385.63</ele>
        <time>2022-04-15T14:11:32Z</time>
      </trkpt>
      <trkpt lat="47.23342" lon="6.06602">
        <ele>386.11</ele>
        <time>2022-04-15T14:11:34Z</time>
      </trkpt>
      <trkpt lat="47.23342" lon="6.06605">
        <ele>386.11</ele>
        <time>2022-04-15T14:11:35Z</time>
      </trkpt>
      <trkpt lat="47.23342" lon="6.06607">
        <ele>386.59</ele>
        <time>2022-04-15T14:11:36Z</time>
      </trkpt>
      <trkpt lat="47.23343" lon="6.06609">
        <ele>387.07</ele>
        <time>2022-04-15T14:11:37Z</time>
      </trkpt>
      <trkpt lat="47.23344" lon="6.06611">
        <ele>387.07</ele>
        <time>2022-04-15T14:11:38Z</time>
      </trkpt>
      <trkpt lat="47.23344" lon="6.06613">
        <ele>387.55</ele>
        <time>2022-04-15T14:11:39Z</time>
      </trkpt>
      <trkpt lat="47.23346" lon="6.06614">
        <ele>387.55</ele>
        <time>2022-04-15T14:11:40Z</time>
      </trkpt>
      <trkpt lat="47.23355" lon="6.06628">
        <ele>389.47</ele>
        <time>2022-04-15T14:11:49Z</time>
      </trkpt>
      <trkpt lat="47.23356" lon="6.06631">
        <ele>389.95</ele>
        <time>2022-04-15T14:11:50Z</time>
      </trkpt>
      <trkpt lat="47.23356" lon="6.06632">
        <ele>389.95</ele>
        <time>2022-04-15T14:11:51Z</time>
      </trkpt>
      <trkpt lat="47.23357" lon="6.06634">
        <ele>390.43</ele>
        <time>2022-04-15T14:11:52Z</time>
      </trkpt>
      <trkpt lat="47.23358" lon="6.06637">
        <ele>390.43</ele>
        <time>2022-04-15T14:11:53Z</time>
      </trkpt>
      <trkpt lat="47.23358" lon="6.06639">
        <ele>390.43</ele>
        <time>2022-04-15T14:11:54Z</time>
      </trkpt>
      <trkpt lat="47.23359" lon="6.0664">
        <ele>390.91</ele>
        <time>2022-04-15T14:11:55Z</time>
      </trkpt>
      <trkpt lat="47.23359" lon="6.06642">
        <ele>390.91</ele>
        <time>2022-04-15T14:11:56Z</time>
      </trkpt>
      <trkpt lat="47.2336" lon="6.06644">
        <ele>390.91</ele>
        <time>2022-04-15T14:11:57Z</time>
      </trkpt>
      <trkpt lat="47.2336" lon="6.06647">
        <ele>391.39</ele>
        <time>2022-04-15T14:11:58Z</time>
      </trkpt>
      <trkpt lat="47.23361" lon="6.06649">
        <ele>391.39</ele>
        <time>2022-04-15T14:11:59Z</time>
      </trkpt>
      <trkpt lat="47.23361" lon="6.06654">
        <ele>391.87</ele>
        <time>2022-04-15T14:12:01Z</time>
      </trkpt>
      <trkpt lat="47.23361" lon="6.06656">
        <ele>391.87</ele>
        <time>2022-04-15T14:12:02Z</time>
      </trkpt>
      <trkpt lat="47.23362" lon="6.06665">
        <ele>392.36</ele>
        <time>2022-04-15T14:12:06Z</time>
      </trkpt>
      <trkpt lat="47.23365" lon="6.06681">
        <ele>393.8</ele>
        <time>2022-04-15T14:12:13Z</time>
      </trkpt>
      <trkpt lat="47.23371" lon="6.06695">
        <ele>395.24</ele>
        <time>2022-04-15T14:12:21Z</time>
      </trkpt>
      <trkpt lat="47.23371" lon="6.06697">
        <ele>395.24</ele>
        <time>2022-04-15T14:12:22Z</time>
      </trkpt>
      <trkpt lat="47.23372" lon="6.06698">
        <ele>395.24</ele>
        <time>2022-04-15T14:12:23Z</time>
      </trkpt>
      <trkpt lat="47.23373" lon="6.067">
        <ele>395.72</ele>
        <time>2022-04-15T14:12:24Z</time>
      </trkpt>
      <trkpt lat="47.23375" lon="6.06709">
        <ele>396.68</ele>
        <time>2022-04-15T14:12:29Z</time>
      </trkpt>
      <trkpt lat="47.23385" lon="6.06725">
        <ele>399.08</ele>
        <time>2022-04-15T14:12:39Z</time>
      </trkpt>
      <trkpt lat="47.23386" lon="6.06727">
        <ele>399.08</ele>
        <time>2022-04-15T14:12:40Z</time>
      </trkpt>
      <trkpt lat="47.23387" lon="6.06729">
        <ele>399.57</ele>
        <time>2022-04-15T14:12:41Z</time>
      </trkpt>
      <trkpt lat="47.23392" lon="6.06742">
        <ele>400.53</ele>
        <time>2022-04-15T14:12:48Z</time>
      </trkpt>
      <trkpt lat="47.23394" lon="6.06745">
        <ele>401.01</ele>
        <time>2022-04-15T14:12:50Z</time>
      </trkpt>
      <trkpt lat="47.23395" lon="6.06748">
        <ele>401.01</ele>
        <time>2022-04-15T14:12:51Z</time>
      </trkpt>
      <trkpt lat="47.23403" lon="6.06762">
        <ele>402.93</ele>
        <time>2022-04-15T14:12:58Z</time>
      </trkpt>
      <trkpt lat="47.23406" lon="6.06767">
        <ele>403.41</ele>
        <time>2022-04-15T14:13:01Z</time>
      </trkpt>
      <trkpt lat="47.2342" lon="6.06793">
        <ele>406.29</ele>
        <time>2022-04-15T14:13:16Z</time>
      </trkpt>
      <trkpt lat="47.23425" lon="6.06799">
        <ele>406.77</ele>
        <time>2022-04-15T14:13:21Z</time>
      </trkpt>
      <trkpt lat="47.23426" lon="6.06801">
        <ele>407.26</ele>
        <time>2022-04-15T14:13:22Z</time>
      </trkpt>
      <trkpt lat="47.23428" lon="6.06804">
        <ele>407.74</ele>
        <time>2022-04-15T14:13:23Z</time>
      </trkpt>
      <trkpt lat="47.23429" lon="6.06806">
        <ele>407.74</ele>
        <time>2022-04-15T14:13:24Z</time>
      </trkpt>
      <trkpt lat="47.23431" lon="6.06808">
        <ele>408.22</ele>
        <time>2022-04-15T14:13:25Z</time>
      </trkpt>
      <trkpt lat="47.23432" lon="6.0681">
        <ele>408.22</ele>
        <time>2022-04-15T14:13:26Z</time>
      </trkpt>
      <trkpt lat="47.23433" lon="6.06812">
        <ele>408.22</ele>
        <time>2022-04-15T14:13:27Z</time>
      </trkpt>
      <trkpt lat="47.23437" lon="6.06818">
        <ele>409.18</ele>
        <time>2022-04-15T14:13:31Z</time>
      </trkpt>
      <trkpt lat="47.23438" lon="6.0682">
        <ele>409.18</ele>
        <time>2022-04-15T14:13:32Z</time>
      </trkpt>
      <trkpt lat="47.23442" lon="6.06828">
        <ele>409.66</ele>
        <time>2022-04-15T14:13:35Z</time>
      </trkpt>
      <trkpt lat="47.23443" lon="6.0683">
        <ele>410.14</ele>
        <time>2022-04-15T14:13:36Z</time>
      </trkpt>
      <trkpt lat="47.23445" lon="6.06835">
        <ele>410.62</ele>
        <time>2022-04-15T14:13:39Z</time>
      </trkpt>
      <trkpt lat="47.23446" lon="6.06837">
        <ele>411.1</ele>
        <time>2022-04-15T14:13:40Z</time>
      </trkpt>
      <trkpt lat="47.23447" lon="6.06839">
        <ele>411.1</ele>
        <time>2022-04-15T14:13:41Z</time>
      </trkpt>
      <trkpt lat="47.23449" lon="6.06841">
        <ele>411.1</ele>
        <time>2022-04-15T14:13:42Z</time>
      </trkpt>
      <trkpt lat="47.23459" lon="6.06863">
        <ele>413.5</ele>
        <time>2022-04-15T14:13:53Z</time>
      </trkpt>
      <trkpt lat="47.23474" lon="6.0689">
        <ele>416.39</ele>
        <time>2022-04-15T14:14:06Z</time>
      </trkpt>
      <trkpt lat="47.23475" lon="6.06892">
        <ele>416.39</ele>
        <time>2022-04-15T14:14:07Z</time>
      </trkpt>
      <trkpt lat="47.23475" lon="6.06894">
        <ele>416.87</ele>
        <time>2022-04-15T14:14:08Z</time>
      </trkpt>
      <trkpt lat="47.23476" lon="6.06896">
        <ele>416.87</ele>
        <time>2022-04-15T14:14:09Z</time>
      </trkpt>
      <trkpt lat="47.23477" lon="6.06899">
        <ele>417.35</ele>
        <time>2022-04-15T14:14:10Z</time>
      </trkpt>
      <trkpt lat="47.23478" lon="6.06901">
        <ele>417.83</ele>
        <time>2022-04-15T14:14:11Z</time>
      </trkpt>
      <trkpt lat="47.23479" lon="6.06902">
        <ele>417.83</ele>
        <time>2022-04-15T14:14:12Z</time>
      </trkpt>
      <trkpt lat="47.2348" lon="6.06904">
        <ele>417.83</ele>
        <time>2022-04-15T14:14:13Z</time>
      </trkpt>
      <trkpt lat="47.23481" lon="6.06906">
        <ele>418.31</ele>
        <time>2022-04-15T14:14:14Z</time>
      </trkpt>
      <trkpt lat="47.23482" lon="6.06908">
        <ele>418.31</ele>
        <time>2022-04-15T14:14:15Z</time>
      </trkpt>
      <trkpt lat="47.23485" lon="6.06913">
        <ele>418.79</ele>
        <time>2022-04-15T14:14:18Z</time>
      </trkpt>
      <trkpt lat="47.23488" lon="6.06919">
        <ele>419.75</ele>
        <time>2022-04-15T14:14:21Z</time>
      </trkpt>
      <trkpt lat="47.23489" lon="6.06921">
        <ele>419.75</ele>
        <time>2022-04-15T14:14:22Z</time>
      </trkpt>
      <trkpt lat="47.23494" lon="6.06931">
        <ele>420.71</ele>
        <time>2022-04-15T14:14:27Z</time>
      </trkpt>
      <trkpt lat="47.23498" lon="6.06939">
        <ele>421.68</ele>
        <time>2022-04-15T14:14:31Z</time>
      </trkpt>
      <trkpt lat="47.23499" lon="6.06944">
        <ele>421.68</ele>
        <time>2022-04-15T14:14:34Z</time>
      </trkpt>
      <trkpt lat="47.235" lon="6.06946">
        <ele>422.16</ele>
        <time>2022-04-15T14:14:35Z</time>
      </trkpt>
      <trkpt lat="47.23501" lon="6.06949">
        <ele>422.64</ele>
        <time>2022-04-15T14:14:36Z</time>
      </trkpt>
      <trkpt lat="47.23502" lon="6.06951">
        <ele>422.64</ele>
        <time>2022-04-15T14:14:37Z</time>
      </trkpt>
      <trkpt lat="47.23503" lon="6.06953">
        <ele>423.12</ele>
        <time>2022-04-15T14:14:38Z</time>
      </trkpt>
      <trkpt lat="47.23504" lon="6.06955">
        <ele>423.12</ele>
        <time>2022-04-15T14:14:39Z</time>
      </trkpt>
      <trkpt lat="47.23506" lon="6.06959">
        <ele>423.6</ele>
        <time>2022-04-15T14:14:42Z</time>
      </trkpt>
      <trkpt lat="47.23507" lon="6.06961">
        <ele>423.6</ele>
        <time>2022-04-15T14:14:43Z</time>
      </trkpt>
      <trkpt lat="47.23509" lon="6.06967">
        <ele>424.56</ele>
        <time>2022-04-15T14:14:47Z</time>
      </trkpt>
      <trkpt lat="47.23514" lon="6.06982">
        <ele>426</ele>
        <time>2022-04-15T14:14:54Z</time>
      </trkpt>
      <trkpt lat="47.2352" lon="6.06993">
        <ele>426.96</ele>
        <time>2022-04-15T14:15:00Z</time>
      </trkpt>
      <trkpt lat="47.23521" lon="6.06995">
        <ele>427.44</ele>
        <time>2022-04-15T14:15:01Z</time>
      </trkpt>
      <trkpt lat="47.23522" lon="6.07">
        <ele>427.92</ele>
        <time>2022-04-15T14:15:03Z</time>
      </trkpt>
      <trkpt lat="47.23523" lon="6.07002">
        <ele>428.4</ele>
        <time>2022-04-15T14:15:04Z</time>
      </trkpt>
      <trkpt lat="47.23525" lon="6.07005">
        <ele>428.4</ele>
        <time>2022-04-15T14:15:05Z</time>
      </trkpt>
      <trkpt lat="47.23526" lon="6.07007">
        <ele>428.4</ele>
        <time>2022-04-15T14:15:06Z</time>
      </trkpt>
      <trkpt lat="47.23527" lon="6.0701">
        <ele>428.89</ele>
        <time>2022-04-15T14:15:07Z</time>
      </trkpt>
      <trkpt lat="47.2353" lon="6.07015">
        <ele>429.37</ele>
        <time>2022-04-15T14:15:10Z</time>
      </trkpt>
      <trkpt lat="47.23534" lon="6.07026">
        <ele>430.33</ele>
        <time>2022-04-15T14:15:19Z</time>
      </trkpt>
      <trkpt lat="47.23535" lon="6.07029">
        <ele>430.81</ele>
        <time>2022-04-15T14:15:20Z</time>
      </trkpt>
      <trkpt lat="47.23539" lon="6.07039">
        <ele>431.77</ele>
        <time>2022-04-15T14:15:24Z</time>
      </trkpt>
      <trkpt lat="47.2354" lon="6.07041">
        <ele>431.77</ele>
        <time>2022-04-15T14:15:25Z</time>
      </trkpt>
      <trkpt lat="47.23539" lon="6.07044">
        <ele>431.77</ele>
        <time>2022-04-15T14:15:26Z</time>
      </trkpt>
      <trkpt lat="47.23538" lon="6.07055">
        <ele>433.21</ele>
        <time>2022-04-15T14:15:31Z</time>
      </trkpt>
      <trkpt lat="47.23537" lon="6.07056">
        <ele>433.21</ele>
        <time>2022-04-15T14:15:32Z</time>
      </trkpt>
      <trkpt lat="47.23536" lon="6.07057">
        <ele>433.69</ele>
        <time>2022-04-15T14:15:33Z</time>
      </trkpt>
      <trkpt lat="47.23535" lon="6.07058">
        <ele>434.17</ele>
        <time>2022-04-15T14:15:34Z</time>
      </trkpt>
      <trkpt lat="47.23534" lon="6.0706">
        <ele>434.17</ele>
        <time>2022-04-15T14:15:35Z</time>
      </trkpt>
      <trkpt lat="47.23533" lon="6.0706">
        <ele>434.65</ele>
        <time>2022-04-15T14:15:36Z</time>
      </trkpt>
      <trkpt lat="47.23524" lon="6.07056">
        <ele>436.1</ele>
        <time>2022-04-15T14:15:44Z</time>
      </trkpt>
      <trkpt lat="47.23522" lon="6.07055">
        <ele>436.1</ele>
        <time>2022-04-15T14:15:45Z</time>
      </trkpt>
      <trkpt lat="47.2351" lon="6.0705">
        <ele>437.06</ele>
        <time>2022-04-15T14:15:55Z</time>
      </trkpt>
      <trkpt lat="47.23488" lon="6.0705">
        <ele>438.98</ele>
        <time>2022-04-15T14:16:08Z</time>
      </trkpt>
      <trkpt lat="47.23467" lon="6.07053">
        <ele>441.38</ele>
        <time>2022-04-15T14:16:21Z</time>
      </trkpt>
      <trkpt lat="47.23446" lon="6.07048">
        <ele>443.31</ele>
        <time>2022-04-15T14:16:33Z</time>
      </trkpt>
      <trkpt lat="47.23424" lon="6.07044">
        <ele>445.23</ele>
        <time>2022-04-15T14:16:46Z</time>
      </trkpt>
      <trkpt lat="47.23422" lon="6.07044">
        <ele>445.23</ele>
        <time>2022-04-15T14:16:47Z</time>
      </trkpt>
      <trkpt lat="47.23418" lon="6.07041">
        <ele>445.23</ele>
        <time>2022-04-15T14:16:49Z</time>
      </trkpt>
      <trkpt lat="47.23395" lon="6.0704">
        <ele>447.15</ele>
        <time>2022-04-15T14:17:01Z</time>
      </trkpt>
      <trkpt lat="47.23391" lon="6.07041">
        <ele>447.63</ele>
        <time>2022-04-15T14:17:04Z</time>
      </trkpt>
      <trkpt lat="47.2339" lon="6.07043">
        <ele>448.11</ele>
        <time>2022-04-15T14:17:05Z</time>
      </trkpt>
      <trkpt lat="47.23389" lon="6.07045">
        <ele>448.11</ele>
        <time>2022-04-15T14:17:06Z</time>
      </trkpt>
      <trkpt lat="47.23389" lon="6.07047">
        <ele>448.59</ele>
        <time>2022-04-15T14:17:07Z</time>
      </trkpt>
      <trkpt lat="47.23388" lon="6.0705">
        <ele>449.07</ele>
        <time>2022-04-15T14:17:08Z</time>
      </trkpt>
      <trkpt lat="47.23388" lon="6.07052">
        <ele>449.07</ele>
        <time>2022-04-15T14:17:09Z</time>
      </trkpt>
      <trkpt lat="47.23388" lon="6.07054">
        <ele>449.55</ele>
        <time>2022-04-15T14:17:10Z</time>
      </trkpt>
      <trkpt lat="47.23389" lon="6.07057">
        <ele>449.55</ele>
        <time>2022-04-15T14:17:11Z</time>
      </trkpt>
      <trkpt lat="47.23396" lon="6.07083">
        <ele>452.92</ele>
        <time>2022-04-15T14:17:25Z</time>
      </trkpt>
      <trkpt lat="47.23404" lon="6.07117">
        <ele>455.8</ele>
        <time>2022-04-15T14:17:39Z</time>
      </trkpt>
      <trkpt lat="47.23416" lon="6.07149">
        <ele>458.69</ele>
        <time>2022-04-15T14:17:54Z</time>
      </trkpt>
      <trkpt lat="47.23427" lon="6.07179">
        <ele>461.09</ele>
        <time>2022-04-15T14:18:07Z</time>
      </trkpt>
      <trkpt lat="47.23428" lon="6.07181">
        <ele>461.57</ele>
        <time>2022-04-15T14:18:08Z</time>
      </trkpt>
      <trkpt lat="47.23428" lon="6.07183">
        <ele>461.57</ele>
        <time>2022-04-15T14:18:09Z</time>
      </trkpt>
      <trkpt lat="47.23429" lon="6.07185">
        <ele>462.05</ele>
        <time>2022-04-15T14:18:10Z</time>
      </trkpt>
      <trkpt lat="47.23429" lon="6.07187">
        <ele>462.05</ele>
        <time>2022-04-15T14:18:11Z</time>
      </trkpt>
      <trkpt lat="47.23434" lon="6.07225">
        <ele>465.42</ele>
        <time>2022-04-15T14:18:26Z</time>
      </trkpt>
      <trkpt lat="47.23436" lon="6.07243">
        <ele>466.38</ele>
        <time>2022-04-15T14:18:33Z</time>
      </trkpt>
      <trkpt lat="47.23444" lon="6.07269">
        <ele>468.3</ele>
        <time>2022-04-15T14:18:44Z</time>
      </trkpt>
      <trkpt lat="47.23444" lon="6.07272">
        <ele>468.78</ele>
        <time>2022-04-15T14:18:45Z</time>
      </trkpt>
      <trkpt lat="47.23445" lon="6.07285">
        <ele>469.74</ele>
        <time>2022-04-15T14:18:52Z</time>
      </trkpt>
      <trkpt lat="47.23445" lon="6.07288">
        <ele>469.74</ele>
        <time>2022-04-15T14:18:53Z</time>
      </trkpt>
      <trkpt lat="47.23437" lon="6.07299">
        <ele>471.18</ele>
        <time>2022-04-15T14:18:59Z</time>
      </trkpt>
      <trkpt lat="47.23409" lon="6.07319">
        <ele>474.07</ele>
        <time>2022-04-15T14:19:16Z</time>
      </trkpt>
      <trkpt lat="47.23398" lon="6.07355">
        <ele>476.95</ele>
        <time>2022-04-15T14:19:30Z</time>
      </trkpt>
      <trkpt lat="47.23397" lon="6.07371">
        <ele>478.87</ele>
        <time>2022-04-15T14:19:36Z</time>
      </trkpt>
      <trkpt lat="47.23395" lon="6.07416">
        <ele>481.76</ele>
        <time>2022-04-15T14:19:52Z</time>
      </trkpt>
      <trkpt lat="47.23391" lon="6.07456">
        <ele>484.64</ele>
        <time>2022-04-15T14:20:07Z</time>
      </trkpt>
      <trkpt lat="47.23389" lon="6.07459">
        <ele>485.6</ele>
        <time>2022-04-15T14:20:09Z</time>
      </trkpt>
      <trkpt lat="47.23388" lon="6.07461">
        <ele>485.6</ele>
        <time>2022-04-15T14:20:10Z</time>
      </trkpt>
      <trkpt lat="47.23388" lon="6.07463">
        <ele>485.6</ele>
        <time>2022-04-15T14:20:11Z</time>
      </trkpt>
      <trkpt lat="47.23388" lon="6.07465">
        <ele>485.6</ele>
        <time>2022-04-15T14:20:12Z</time>
      </trkpt>
      <trkpt lat="47.23388" lon="6.07466">
        <ele>485.6</ele>
        <time>2022-04-15T14:20:13Z</time>
      </trkpt>
      <trkpt lat="47.23388" lon="6.07468">
        <ele>485.6</ele>
        <time>2022-04-15T14:20:14Z</time>
      </trkpt>
      <trkpt lat="47.23388" lon="6.0747">
        <ele>485.6</ele>
        <time>2022-04-15T14:20:15Z</time>
      </trkpt>
      <trkpt lat="47.23388" lon="6.07472">
        <ele>486.08</ele>
        <time>2022-04-15T14:20:16Z</time>
      </trkpt>
      <trkpt lat="47.23389" lon="6.07474">
        <ele>485.6</ele>
        <time>2022-04-15T14:20:17Z</time>
      </trkpt>
      <trkpt lat="47.23393" lon="6.07509">
        <ele>486.56</ele>
        <time>2022-04-15T14:20:28Z</time>
      </trkpt>
      <trkpt lat="47.23387" lon="6.07571">
        <ele>488.97</ele>
        <time>2022-04-15T14:20:45Z</time>
      </trkpt>
      <trkpt lat="47.23375" lon="6.0763">
        <ele>490.89</ele>
        <time>2022-04-15T14:21:02Z</time>
      </trkpt>
      <trkpt lat="47.23378" lon="6.07641">
        <ele>491.37</ele>
        <time>2022-04-15T14:21:06Z</time>
      </trkpt>
      <trkpt lat="47.2337" lon="6.07675">
        <ele>493.77</ele>
        <time>2022-04-15T14:21:21Z</time>
      </trkpt>
      <trkpt lat="47.2335" lon="6.0768">
        <ele>492.81</ele>
        <time>2022-04-15T14:21:28Z</time>
      </trkpt>
      <trkpt lat="47.23346" lon="6.07679">
        <ele>492.33</ele>
        <time>2022-04-15T14:21:29Z</time>
      </trkpt>
      <trkpt lat="47.23341" lon="6.0768">
        <ele>492.33</ele>
        <time>2022-04-15T14:21:30Z</time>
      </trkpt>
      <trkpt lat="47.23335" lon="6.0768">
        <ele>491.85</ele>
        <time>2022-04-15T14:21:31Z</time>
      </trkpt>
      <trkpt lat="47.2333" lon="6.07681">
        <ele>491.37</ele>
        <time>2022-04-15T14:21:32Z</time>
      </trkpt>
      <trkpt lat="47.23311" lon="6.07683">
        <ele>491.85</ele>
        <time>2022-04-15T14:21:36Z</time>
      </trkpt>
      <trkpt lat="47.23274" lon="6.07674">
        <ele>492.33</ele>
        <time>2022-04-15T14:21:46Z</time>
      </trkpt>
      <trkpt lat="47.23225" lon="6.07654">
        <ele>491.85</ele>
        <time>2022-04-15T14:21:58Z</time>
      </trkpt>
      <trkpt lat="47.23191" lon="6.0764">
        <ele>491.37</ele>
        <time>2022-04-15T14:22:08Z</time>
      </trkpt>
      <trkpt lat="47.23143" lon="6.0762">
        <ele>493.29</ele>
        <time>2022-04-15T14:22:23Z</time>
      </trkpt>
      <trkpt lat="47.231" lon="6.07586">
        <ele>490.89</ele>
        <time>2022-04-15T14:22:35Z</time>
      </trkpt>
      <trkpt lat="47.23054" lon="6.07535">
        <ele>488.01</ele>
        <time>2022-04-15T14:22:43Z</time>
      </trkpt>
      <trkpt lat="47.23042" lon="6.07518">
        <ele>487.05</ele>
        <time>2022-04-15T14:22:45Z</time>
      </trkpt>
      <trkpt lat="47.23006" lon="6.07478">
        <ele>487.05</ele>
        <time>2022-04-15T14:22:51Z</time>
      </trkpt>
      <trkpt lat="47.22949" lon="6.07437">
        <ele>487.53</ele>
        <time>2022-04-15T14:23:03Z</time>
      </trkpt>
      <trkpt lat="47.22944" lon="6.07436">
        <ele>487.53</ele>
        <time>2022-04-15T14:23:04Z</time>
      </trkpt>
      <trkpt lat="47.22939" lon="6.07434">
        <ele>487.53</ele>
        <time>2022-04-15T14:23:05Z</time>
      </trkpt>
      <trkpt lat="47.22935" lon="6.07432">
        <ele>487.05</ele>
        <time>2022-04-15T14:23:06Z</time>
      </trkpt>
      <trkpt lat="47.22932" lon="6.07427">
        <ele>487.05</ele>
        <time>2022-04-15T14:23:07Z</time>
      </trkpt>
      <trkpt lat="47.22931" lon="6.07422">
        <ele>487.05</ele>
        <time>2022-04-15T14:23:08Z</time>
      </trkpt>
      <trkpt lat="47.2293" lon="6.07417">
        <ele>487.05</ele>
        <time>2022-04-15T14:23:09Z</time>
      </trkpt>
      <trkpt lat="47.2293" lon="6.07412">
        <ele>487.05</ele>
        <time>2022-04-15T14:23:10Z</time>
      </trkpt>
      <trkpt lat="47.22929" lon="6.07408">
        <ele>487.05</ele>
        <time>2022-04-15T14:23:11Z</time>
      </trkpt>
      <trkpt lat="47.22927" lon="6.07404">
        <ele>487.53</ele>
        <time>2022-04-15T14:23:12Z</time>
      </trkpt>
      <trkpt lat="47.22925" lon="6.07401">
        <ele>487.53</ele>
        <time>2022-04-15T14:23:13Z</time>
      </trkpt>
      <trkpt lat="47.22923" lon="6.07399">
        <ele>487.53</ele>
        <time>2022-04-15T14:23:14Z</time>
      </trkpt>
      <trkpt lat="47.2292" lon="6.07396">
        <ele>487.53</ele>
        <time>2022-04-15T14:23:15Z</time>
      </trkpt>
      <trkpt lat="47.22917" lon="6.07394">
        <ele>487.53</ele>
        <time>2022-04-15T14:23:16Z</time>
      </trkpt>
      <trkpt lat="47.22865" lon="6.07347">
        <ele>486.08</ele>
        <time>2022-04-15T14:23:31Z</time>
      </trkpt>
      <trkpt lat="47.22816" lon="6.07304">
        <ele>484.64</ele>
        <time>2022-04-15T14:23:44Z</time>
      </trkpt>
      <trkpt lat="47.22812" lon="6.07303">
        <ele>484.64</ele>
        <time>2022-04-15T14:23:45Z</time>
      </trkpt>
      <trkpt lat="47.22809" lon="6.07302">
        <ele>485.12</ele>
        <time>2022-04-15T14:23:46Z</time>
      </trkpt>
      <trkpt lat="47.22806" lon="6.07303">
        <ele>485.6</ele>
        <time>2022-04-15T14:23:47Z</time>
      </trkpt>
      <trkpt lat="47.22804" lon="6.07304">
        <ele>485.6</ele>
        <time>2022-04-15T14:23:48Z</time>
      </trkpt>
      <trkpt lat="47.22802" lon="6.07306">
        <ele>486.08</ele>
        <time>2022-04-15T14:23:49Z</time>
      </trkpt>
      <trkpt lat="47.228" lon="6.07308">
        <ele>486.08</ele>
        <time>2022-04-15T14:23:50Z</time>
      </trkpt>
      <trkpt lat="47.22799" lon="6.07311">
        <ele>486.56</ele>
        <time>2022-04-15T14:23:51Z</time>
      </trkpt>
      <trkpt lat="47.22797" lon="6.07313">
        <ele>486.56</ele>
        <time>2022-04-15T14:23:52Z</time>
      </trkpt>
      <trkpt lat="47.22795" lon="6.07314">
        <ele>486.56</ele>
        <time>2022-04-15T14:23:53Z</time>
      </trkpt>
      <trkpt lat="47.22793" lon="6.07315">
        <ele>486.56</ele>
        <time>2022-04-15T14:23:54Z</time>
      </trkpt>
      <trkpt lat="47.22781" lon="6.07323">
        <ele>487.05</ele>
        <time>2022-04-15T14:23:59Z</time>
      </trkpt>
      <trkpt lat="47.22779" lon="6.07323">
        <ele>487.53</ele>
        <time>2022-04-15T14:24:00Z</time>
      </trkpt>
      <trkpt lat="47.22777" lon="6.07323">
        <ele>487.53</ele>
        <time>2022-04-15T14:24:01Z</time>
      </trkpt>
      <trkpt lat="47.22774" lon="6.07321">
        <ele>487.53</ele>
        <time>2022-04-15T14:24:03Z</time>
      </trkpt>
      <trkpt lat="47.22773" lon="6.07321">
        <ele>487.53</ele>
        <time>2022-04-15T14:24:04Z</time>
      </trkpt>
      <trkpt lat="47.22771" lon="6.0732">
        <ele>487.53</ele>
        <time>2022-04-15T14:24:05Z</time>
      </trkpt>
      <trkpt lat="47.22768" lon="6.0732">
        <ele>487.53</ele>
        <time>2022-04-15T14:24:06Z</time>
      </trkpt>
      <trkpt lat="47.22765" lon="6.0732">
        <ele>488.01</ele>
        <time>2022-04-15T14:24:07Z</time>
      </trkpt>
      <trkpt lat="47.22754" lon="6.07327">
        <ele>487.53</ele>
        <time>2022-04-15T14:24:12Z</time>
      </trkpt>
      <trkpt lat="47.22752" lon="6.07326">
        <ele>487.53</ele>
        <time>2022-04-15T14:24:13Z</time>
      </trkpt>
      <trkpt lat="47.2275" lon="6.07325">
        <ele>487.53</ele>
        <time>2022-04-15T14:24:14Z</time>
      </trkpt>
      <trkpt lat="47.22748" lon="6.07326">
        <ele>487.53</ele>
        <time>2022-04-15T14:24:15Z</time>
      </trkpt>
      <trkpt lat="47.22745" lon="6.07326">
        <ele>487.53</ele>
        <time>2022-04-15T14:24:16Z</time>
      </trkpt>
      <trkpt lat="47.22743" lon="6.07326">
        <ele>487.53</ele>
        <time>2022-04-15T14:24:17Z</time>
      </trkpt>
      <trkpt lat="47.22741" lon="6.07325">
        <ele>487.53</ele>
        <time>2022-04-15T14:24:18Z</time>
      </trkpt>
      <trkpt lat="47.22739" lon="6.07325">
        <ele>487.53</ele>
        <time>2022-04-15T14:24:19Z</time>
      </trkpt>
      <trkpt lat="47.22737" lon="6.07326">
        <ele>487.53</ele>
        <time>2022-04-15T14:24:20Z</time>
      </trkpt>
      <trkpt lat="47.22735" lon="6.07327">
        <ele>487.05</ele>
        <time>2022-04-15T14:24:21Z</time>
      </trkpt>
      <trkpt lat="47.22733" lon="6.0733">
        <ele>487.05</ele>
        <time>2022-04-15T14:24:22Z</time>
      </trkpt>
      <trkpt lat="47.2273" lon="6.07334">
        <ele>486.08</ele>
        <time>2022-04-15T14:24:26Z</time>
      </trkpt>
      <trkpt lat="47.22727" lon="6.07336">
        <ele>485.6</ele>
        <time>2022-04-15T14:24:27Z</time>
      </trkpt>
      <trkpt lat="47.22724" lon="6.07337">
        <ele>485.6</ele>
        <time>2022-04-15T14:24:28Z</time>
      </trkpt>
      <trkpt lat="47.22722" lon="6.07338">
        <ele>485.12</ele>
        <time>2022-04-15T14:24:29Z</time>
      </trkpt>
      <trkpt lat="47.22719" lon="6.07343">
        <ele>485.12</ele>
        <time>2022-04-15T14:24:30Z</time>
      </trkpt>
      <trkpt lat="47.22717" lon="6.07348">
        <ele>484.64</ele>
        <time>2022-04-15T14:24:31Z</time>
      </trkpt>
      <trkpt lat="47.22714" lon="6.07354">
        <ele>484.16</ele>
        <time>2022-04-15T14:24:32Z</time>
      </trkpt>
      <trkpt lat="47.2271" lon="6.07359">
        <ele>483.2</ele>
        <time>2022-04-15T14:24:33Z</time>
      </trkpt>
      <trkpt lat="47.22707" lon="6.07362">
        <ele>483.2</ele>
        <time>2022-04-15T14:24:34Z</time>
      </trkpt>
      <trkpt lat="47.22705" lon="6.07364">
        <ele>482.72</ele>
        <time>2022-04-15T14:24:35Z</time>
      </trkpt>
      <trkpt lat="47.22704" lon="6.07367">
        <ele>482.72</ele>
        <time>2022-04-15T14:24:36Z</time>
      </trkpt>
      <trkpt lat="47.22703" lon="6.07371">
        <ele>481.76</ele>
        <time>2022-04-15T14:24:37Z</time>
      </trkpt>
      <trkpt lat="47.22699" lon="6.07379">
        <ele>481.28</ele>
        <time>2022-04-15T14:24:39Z</time>
      </trkpt>
      <trkpt lat="47.22696" lon="6.07381">
        <ele>480.8</ele>
        <time>2022-04-15T14:24:40Z</time>
      </trkpt>
      <trkpt lat="47.22694" lon="6.07383">
        <ele>480.8</ele>
        <time>2022-04-15T14:24:41Z</time>
      </trkpt>
      <trkpt lat="47.22692" lon="6.07386">
        <ele>480.8</ele>
        <time>2022-04-15T14:24:42Z</time>
      </trkpt>
      <trkpt lat="47.22689" lon="6.07387">
        <ele>480.8</ele>
        <time>2022-04-15T14:24:43Z</time>
      </trkpt>
      <trkpt lat="47.22687" lon="6.07388">
        <ele>481.28</ele>
        <time>2022-04-15T14:24:44Z</time>
      </trkpt>
      <trkpt lat="47.22684" lon="6.07388">
        <ele>480.8</ele>
        <time>2022-04-15T14:24:45Z</time>
      </trkpt>
      <trkpt lat="47.22681" lon="6.07389">
        <ele>480.32</ele>
        <time>2022-04-15T14:24:46Z</time>
      </trkpt>
      <trkpt lat="47.22679" lon="6.0739">
        <ele>480.32</ele>
        <time>2022-04-15T14:24:47Z</time>
      </trkpt>
      <trkpt lat="47.22677" lon="6.07392">
        <ele>479.84</ele>
        <time>2022-04-15T14:24:48Z</time>
      </trkpt>
      <trkpt lat="47.22675" lon="6.07393">
        <ele>479.35</ele>
        <time>2022-04-15T14:24:49Z</time>
      </trkpt>
      <trkpt lat="47.22673" lon="6.07395">
        <ele>478.87</ele>
        <time>2022-04-15T14:24:50Z</time>
      </trkpt>
      <trkpt lat="47.22671" lon="6.07395">
        <ele>478.87</ele>
        <time>2022-04-15T14:24:51Z</time>
      </trkpt>
      <trkpt lat="47.22669" lon="6.07396">
        <ele>478.87</ele>
        <time>2022-04-15T14:24:52Z</time>
      </trkpt>
      <trkpt lat="47.22667" lon="6.07397">
        <ele>478.39</ele>
        <time>2022-04-15T14:24:53Z</time>
      </trkpt>
      <trkpt lat="47.22665" lon="6.07399">
        <ele>478.39</ele>
        <time>2022-04-15T14:24:54Z</time>
      </trkpt>
      <trkpt lat="47.22651" lon="6.07409">
        <ele>476.47</ele>
        <time>2022-04-15T14:24:59Z</time>
      </trkpt>
      <trkpt lat="47.22633" lon="6.07429">
        <ele>473.11</ele>
        <time>2022-04-15T14:25:06Z</time>
      </trkpt>
      <trkpt lat="47.22621" lon="6.07452">
        <ele>469.74</ele>
        <time>2022-04-15T14:25:11Z</time>
      </trkpt>
      <trkpt lat="47.22614" lon="6.07462">
        <ele>467.82</ele>
        <time>2022-04-15T14:25:13Z</time>
      </trkpt>
      <trkpt lat="47.22609" lon="6.07468">
        <ele>466.86</ele>
        <time>2022-04-15T14:25:14Z</time>
      </trkpt>
      <trkpt lat="47.22603" lon="6.07473">
        <ele>465.9</ele>
        <time>2022-04-15T14:25:15Z</time>
      </trkpt>
      <trkpt lat="47.22598" lon="6.07478">
        <ele>464.93</ele>
        <time>2022-04-15T14:25:16Z</time>
      </trkpt>
      <trkpt lat="47.22593" lon="6.07482">
        <ele>463.97</ele>
        <time>2022-04-15T14:25:17Z</time>
      </trkpt>
      <trkpt lat="47.22587" lon="6.07488">
        <ele>461.57</ele>
        <time>2022-04-15T14:25:19Z</time>
      </trkpt>
      <trkpt lat="47.22584" lon="6.07489">
        <ele>461.09</ele>
        <time>2022-04-15T14:25:20Z</time>
      </trkpt>
      <trkpt lat="47.22581" lon="6.07491">
        <ele>460.61</ele>
        <time>2022-04-15T14:25:21Z</time>
      </trkpt>
      <trkpt lat="47.22578" lon="6.07494">
        <ele>459.65</ele>
        <time>2022-04-15T14:25:22Z</time>
      </trkpt>
      <trkpt lat="47.22574" lon="6.07498">
        <ele>458.69</ele>
        <time>2022-04-15T14:25:23Z</time>
      </trkpt>
      <trkpt lat="47.22571" lon="6.075">
        <ele>457.72</ele>
        <time>2022-04-15T14:25:24Z</time>
      </trkpt>
      <trkpt lat="47.22569" lon="6.075">
        <ele>456.28</ele>
        <time>2022-04-15T14:25:25Z</time>
      </trkpt>
      <trkpt lat="47.22561" lon="6.07502">
        <ele>455.32</ele>
        <time>2022-04-15T14:25:28Z</time>
      </trkpt>
      <trkpt lat="47.22558" lon="6.07501">
        <ele>454.84</ele>
        <time>2022-04-15T14:25:29Z</time>
      </trkpt>
      <trkpt lat="47.22555" lon="6.075">
        <ele>454.36</ele>
        <time>2022-04-15T14:25:30Z</time>
      </trkpt>
      <trkpt lat="47.22551" lon="6.07499">
        <ele>453.88</ele>
        <time>2022-04-15T14:25:31Z</time>
      </trkpt>
      <trkpt lat="47.22547" lon="6.07496">
        <ele>453.4</ele>
        <time>2022-04-15T14:25:32Z</time>
      </trkpt>
      <trkpt lat="47.22542" lon="6.07492">
        <ele>453.4</ele>
        <time>2022-04-15T14:25:33Z</time>
      </trkpt>
      <trkpt lat="47.22539" lon="6.07487">
        <ele>453.4</ele>
        <time>2022-04-15T14:25:34Z</time>
      </trkpt>
      <trkpt lat="47.22536" lon="6.07482">
        <ele>453.4</ele>
        <time>2022-04-15T14:25:35Z</time>
      </trkpt>
      <trkpt lat="47.22514" lon="6.07433">
        <ele>454.36</ele>
        <time>2022-04-15T14:25:46Z</time>
      </trkpt>
      <trkpt lat="47.22503" lon="6.0741">
        <ele>454.36</ele>
        <time>2022-04-15T14:25:51Z</time>
      </trkpt>
      <trkpt lat="47.22499" lon="6.07407">
        <ele>454.36</ele>
        <time>2022-04-15T14:25:52Z</time>
      </trkpt>
      <trkpt lat="47.22495" lon="6.07404">
        <ele>454.36</ele>
        <time>2022-04-15T14:25:53Z</time>
      </trkpt>
      <trkpt lat="47.22491" lon="6.07402">
        <ele>454.36</ele>
        <time>2022-04-15T14:25:54Z</time>
      </trkpt>
      <trkpt lat="47.22487" lon="6.07399">
        <ele>454.84</ele>
        <time>2022-04-15T14:25:55Z</time>
      </trkpt>
      <trkpt lat="47.22483" lon="6.07397">
        <ele>454.84</ele>
        <time>2022-04-15T14:25:56Z</time>
      </trkpt>
      <trkpt lat="47.22445" lon="6.07357">
        <ele>456.28</ele>
        <time>2022-04-15T14:26:08Z</time>
      </trkpt>
      <trkpt lat="47.22425" lon="6.07332">
        <ele>455.32</ele>
        <time>2022-04-15T14:26:15Z</time>
      </trkpt>
      <trkpt lat="47.22422" lon="6.07326">
        <ele>455.32</ele>
        <time>2022-04-15T14:26:16Z</time>
      </trkpt>
      <trkpt lat="47.22397" lon="6.0729">
        <ele>455.32</ele>
        <time>2022-04-15T14:26:25Z</time>
      </trkpt>
      <trkpt lat="47.22368" lon="6.07251">
        <ele>455.32</ele>
        <time>2022-04-15T14:26:36Z</time>
      </trkpt>
      <trkpt lat="47.22351" lon="6.07224">
        <ele>454.84</ele>
        <time>2022-04-15T14:26:43Z</time>
      </trkpt>
      <trkpt lat="47.22348" lon="6.07221">
        <ele>454.84</ele>
        <time>2022-04-15T14:26:44Z</time>
      </trkpt>
      <trkpt lat="47.22345" lon="6.07218">
        <ele>454.84</ele>
        <time>2022-04-15T14:26:45Z</time>
      </trkpt>
      <trkpt lat="47.22342" lon="6.07215">
        <ele>454.84</ele>
        <time>2022-04-15T14:26:46Z</time>
      </trkpt>
      <trkpt lat="47.22339" lon="6.07212">
        <ele>455.32</ele>
        <time>2022-04-15T14:26:47Z</time>
      </trkpt>
      <trkpt lat="47.22329" lon="6.07202">
        <ele>455.32</ele>
        <time>2022-04-15T14:26:51Z</time>
      </trkpt>
      <trkpt lat="47.22327" lon="6.07198">
        <ele>455.8</ele>
        <time>2022-04-15T14:26:52Z</time>
      </trkpt>
      <trkpt lat="47.22326" lon="6.07195">
        <ele>455.8</ele>
        <time>2022-04-15T14:26:53Z</time>
      </trkpt>
      <trkpt lat="47.22324" lon="6.07193">
        <ele>455.8</ele>
        <time>2022-04-15T14:26:54Z</time>
      </trkpt>
      <trkpt lat="47.22322" lon="6.0719">
        <ele>455.8</ele>
        <time>2022-04-15T14:26:55Z</time>
      </trkpt>
      <trkpt lat="47.22321" lon="6.07188">
        <ele>455.8</ele>
        <time>2022-04-15T14:26:56Z</time>
      </trkpt>
      <trkpt lat="47.22319" lon="6.07187">
        <ele>456.28</ele>
        <time>2022-04-15T14:26:57Z</time>
      </trkpt>
      <trkpt lat="47.22304" lon="6.07156">
        <ele>458.21</ele>
        <time>2022-04-15T14:27:09Z</time>
      </trkpt>
      <trkpt lat="47.22281" lon="6.07123">
        <ele>458.69</ele>
        <time>2022-04-15T14:27:21Z</time>
      </trkpt>
      <trkpt lat="47.22258" lon="6.07085">
        <ele>460.13</ele>
        <time>2022-04-15T14:27:32Z</time>
      </trkpt>
      <trkpt lat="47.2225" lon="6.07074">
        <ele>460.13</ele>
        <time>2022-04-15T14:27:37Z</time>
      </trkpt>
      <trkpt lat="47.22248" lon="6.07072">
        <ele>459.65</ele>
        <time>2022-04-15T14:27:38Z</time>
      </trkpt>
      <trkpt lat="47.22238" lon="6.07055">
        <ele>460.13</ele>
        <time>2022-04-15T14:27:49Z</time>
      </trkpt>
      <trkpt lat="47.22223" lon="6.0703">
        <ele>461.09</ele>
        <time>2022-04-15T14:27:59Z</time>
      </trkpt>
      <trkpt lat="47.22216" lon="6.07023">
        <ele>462.53</ele>
        <time>2022-04-15T14:28:04Z</time>
      </trkpt>
      <trkpt lat="47.22215" lon="6.0702">
        <ele>462.53</ele>
        <time>2022-04-15T14:28:05Z</time>
      </trkpt>
      <trkpt lat="47.22214" lon="6.07019">
        <ele>463.01</ele>
        <time>2022-04-15T14:28:06Z</time>
      </trkpt>
      <trkpt lat="47.22212" lon="6.07017">
        <ele>463.01</ele>
        <time>2022-04-15T14:28:07Z</time>
      </trkpt>
      <trkpt lat="47.22211" lon="6.07016">
        <ele>463.01</ele>
        <time>2022-04-15T14:28:08Z</time>
      </trkpt>
      <trkpt lat="47.2221" lon="6.07013">
        <ele>463.49</ele>
        <time>2022-04-15T14:28:09Z</time>
      </trkpt>
      <trkpt lat="47.22209" lon="6.07011">
        <ele>463.49</ele>
        <time>2022-04-15T14:28:10Z</time>
      </trkpt>
      <trkpt lat="47.22203" lon="6.06991">
        <ele>464.93</ele>
        <time>2022-04-15T14:28:18Z</time>
      </trkpt>
      <trkpt lat="47.22202" lon="6.06989">
        <ele>464.93</ele>
        <time>2022-04-15T14:28:19Z</time>
      </trkpt>
      <trkpt lat="47.22201" lon="6.06986">
        <ele>464.93</ele>
        <time>2022-04-15T14:28:20Z</time>
      </trkpt>
      <trkpt lat="47.22201" lon="6.06983">
        <ele>464.93</ele>
        <time>2022-04-15T14:28:21Z</time>
      </trkpt>
      <trkpt lat="47.22195" lon="6.06971">
        <ele>465.9</ele>
        <time>2022-04-15T14:28:26Z</time>
      </trkpt>
      <trkpt lat="47.22192" lon="6.06968">
        <ele>466.38</ele>
        <time>2022-04-15T14:28:28Z</time>
      </trkpt>
      <trkpt lat="47.2219" lon="6.06966">
        <ele>466.38</ele>
        <time>2022-04-15T14:28:29Z</time>
      </trkpt>
      <trkpt lat="47.22185" lon="6.06959">
        <ele>466.86</ele>
        <time>2022-04-15T14:28:33Z</time>
      </trkpt>
      <trkpt lat="47.22173" lon="6.06939">
        <ele>468.3</ele>
        <time>2022-04-15T14:28:41Z</time>
      </trkpt>
      <trkpt lat="47.22171" lon="6.06937">
        <ele>468.3</ele>
        <time>2022-04-15T14:28:42Z</time>
      </trkpt>
      <trkpt lat="47.22152" lon="6.06919">
        <ele>471.18</ele>
        <time>2022-04-15T14:28:54Z</time>
      </trkpt>
      <trkpt lat="47.22138" lon="6.06905">
        <ele>473.59</ele>
        <time>2022-04-15T14:29:05Z</time>
      </trkpt>
      <trkpt lat="47.22126" lon="6.06892">
        <ele>475.99</ele>
        <time>2022-04-15T14:29:15Z</time>
      </trkpt>
      <trkpt lat="47.22113" lon="6.06872">
        <ele>476.47</ele>
        <time>2022-04-15T14:29:25Z</time>
      </trkpt>
      <trkpt lat="47.22093" lon="6.06842">
        <ele>476.95</ele>
        <time>2022-04-15T14:29:36Z</time>
      </trkpt>
      <trkpt lat="47.22074" lon="6.0682">
        <ele>478.87</ele>
        <time>2022-04-15T14:29:48Z</time>
      </trkpt>
      <trkpt lat="47.22053" lon="6.06802">
        <ele>482.72</ele>
        <time>2022-04-15T14:29:59Z</time>
      </trkpt>
      <trkpt lat="47.22051" lon="6.06802">
        <ele>483.2</ele>
        <time>2022-04-15T14:30:01Z</time>
      </trkpt>
      <trkpt lat="47.22049" lon="6.06802">
        <ele>483.68</ele>
        <time>2022-04-15T14:30:02Z</time>
      </trkpt>
      <trkpt lat="47.22048" lon="6.068">
        <ele>484.16</ele>
        <time>2022-04-15T14:30:03Z</time>
      </trkpt>
      <trkpt lat="47.22047" lon="6.06798">
        <ele>484.64</ele>
        <time>2022-04-15T14:30:04Z</time>
      </trkpt>
      <trkpt lat="47.22046" lon="6.06797">
        <ele>484.16</ele>
        <time>2022-04-15T14:30:05Z</time>
      </trkpt>
      <trkpt lat="47.22044" lon="6.06796">
        <ele>484.64</ele>
        <time>2022-04-15T14:30:06Z</time>
      </trkpt>
      <trkpt lat="47.22043" lon="6.06795">
        <ele>484.64</ele>
        <time>2022-04-15T14:30:07Z</time>
      </trkpt>
      <trkpt lat="47.22041" lon="6.06794">
        <ele>484.64</ele>
        <time>2022-04-15T14:30:08Z</time>
      </trkpt>
      <trkpt lat="47.2204" lon="6.06792">
        <ele>484.64</ele>
        <time>2022-04-15T14:30:09Z</time>
      </trkpt>
      <trkpt lat="47.22038" lon="6.0679">
        <ele>484.64</ele>
        <time>2022-04-15T14:30:10Z</time>
      </trkpt>
      <trkpt lat="47.22037" lon="6.06788">
        <ele>484.64</ele>
        <time>2022-04-15T14:30:11Z</time>
      </trkpt>
      <trkpt lat="47.22036" lon="6.06786">
        <ele>484.64</ele>
        <time>2022-04-15T14:30:12Z</time>
      </trkpt>
      <trkpt lat="47.22035" lon="6.06784">
        <ele>484.64</ele>
        <time>2022-04-15T14:30:13Z</time>
      </trkpt>
      <trkpt lat="47.22033" lon="6.0678">
        <ele>485.12</ele>
        <time>2022-04-15T14:30:15Z</time>
      </trkpt>
      <trkpt lat="47.22032" lon="6.06778">
        <ele>485.12</ele>
        <time>2022-04-15T14:30:16Z</time>
      </trkpt>
      <trkpt lat="47.22031" lon="6.06776">
        <ele>485.12</ele>
        <time>2022-04-15T14:30:17Z</time>
      </trkpt>
      <trkpt lat="47.22029" lon="6.06775">
        <ele>485.12</ele>
        <time>2022-04-15T14:30:18Z</time>
      </trkpt>
      <trkpt lat="47.22027" lon="6.06773">
        <ele>485.12</ele>
        <time>2022-04-15T14:30:19Z</time>
      </trkpt>
      <trkpt lat="47.22007" lon="6.06746">
        <ele>485.12</ele>
        <time>2022-04-15T14:30:29Z</time>
      </trkpt>
      <trkpt lat="47.22006" lon="6.06743">
        <ele>485.12</ele>
        <time>2022-04-15T14:30:30Z</time>
      </trkpt>
      <trkpt lat="47.22003" lon="6.06739">
        <ele>485.12</ele>
        <time>2022-04-15T14:30:31Z</time>
      </trkpt>
      <trkpt lat="47.21973" lon="6.06692">
        <ele>484.64</ele>
        <time>2022-04-15T14:30:44Z</time>
      </trkpt>
      <trkpt lat="47.21949" lon="6.0666">
        <ele>483.68</ele>
        <time>2022-04-15T14:30:53Z</time>
      </trkpt>
      <trkpt lat="47.21927" lon="6.06623">
        <ele>482.24</ele>
        <time>2022-04-15T14:31:02Z</time>
      </trkpt>
      <trkpt lat="47.21922" lon="6.06617">
        <ele>481.28</ele>
        <time>2022-04-15T14:31:05Z</time>
      </trkpt>
      <trkpt lat="47.2192" lon="6.06615">
        <ele>481.28</ele>
        <time>2022-04-15T14:31:06Z</time>
      </trkpt>
      <trkpt lat="47.21918" lon="6.06612">
        <ele>481.28</ele>
        <time>2022-04-15T14:31:07Z</time>
      </trkpt>
      <trkpt lat="47.21912" lon="6.06605">
        <ele>480.32</ele>
        <time>2022-04-15T14:31:09Z</time>
      </trkpt>
      <trkpt lat="47.21909" lon="6.066">
        <ele>479.84</ele>
        <time>2022-04-15T14:31:10Z</time>
      </trkpt>
      <trkpt lat="47.21907" lon="6.06595">
        <ele>479.35</ele>
        <time>2022-04-15T14:31:11Z</time>
      </trkpt>
      <trkpt lat="47.21903" lon="6.06592">
        <ele>478.87</ele>
        <time>2022-04-15T14:31:12Z</time>
      </trkpt>
      <trkpt lat="47.219" lon="6.06589">
        <ele>478.39</ele>
        <time>2022-04-15T14:31:13Z</time>
      </trkpt>
      <trkpt lat="47.21897" lon="6.06587">
        <ele>478.39</ele>
        <time>2022-04-15T14:31:14Z</time>
      </trkpt>
      <trkpt lat="47.21887" lon="6.06579">
        <ele>478.39</ele>
        <time>2022-04-15T14:31:19Z</time>
      </trkpt>
      <trkpt lat="47.21885" lon="6.0658">
        <ele>477.91</ele>
        <time>2022-04-15T14:31:20Z</time>
      </trkpt>
      <trkpt lat="47.21883" lon="6.06581">
        <ele>477.43</ele>
        <time>2022-04-15T14:31:21Z</time>
      </trkpt>
      <trkpt lat="47.2188" lon="6.06581">
        <ele>476.95</ele>
        <time>2022-04-15T14:31:22Z</time>
      </trkpt>
      <trkpt lat="47.21878" lon="6.0658">
        <ele>475.99</ele>
        <time>2022-04-15T14:31:23Z</time>
      </trkpt>
      <trkpt lat="47.21874" lon="6.06579">
        <ele>475.51</ele>
        <time>2022-04-15T14:31:24Z</time>
      </trkpt>
      <trkpt lat="47.21871" lon="6.06578">
        <ele>475.51</ele>
        <time>2022-04-15T14:31:25Z</time>
      </trkpt>
      <trkpt lat="47.21868" lon="6.06579">
        <ele>475.51</ele>
        <time>2022-04-15T14:31:26Z</time>
      </trkpt>
      <trkpt lat="47.21865" lon="6.06579">
        <ele>475.51</ele>
        <time>2022-04-15T14:31:28Z</time>
      </trkpt>
      <trkpt lat="47.21863" lon="6.06579">
        <ele>475.03</ele>
        <time>2022-04-15T14:31:29Z</time>
      </trkpt>
      <trkpt lat="47.21858" lon="6.06574">
        <ele>473.59</ele>
        <time>2022-04-15T14:31:34Z</time>
      </trkpt>
      <trkpt lat="47.21859" lon="6.06571">
        <ele>473.11</ele>
        <time>2022-04-15T14:31:35Z</time>
      </trkpt>
      <trkpt lat="47.21859" lon="6.06563">
        <ele>472.63</ele>
        <time>2022-04-15T14:31:37Z</time>
      </trkpt>
      <trkpt lat="47.21846" lon="6.06543">
        <ele>475.51</ele>
        <time>2022-04-15T14:31:47Z</time>
      </trkpt>
      <trkpt lat="47.21843" lon="6.06539">
        <ele>475.99</ele>
        <time>2022-04-15T14:32:07Z</time>
      </trkpt>
      <trkpt lat="47.21842" lon="6.06539">
        <ele>475.51</ele>
        <time>2022-04-15T14:32:32Z</time>
      </trkpt>
      <trkpt lat="47.21841" lon="6.06538">
        <ele>475.99</ele>
        <time>2022-04-15T14:32:34Z</time>
      </trkpt>
      <trkpt lat="47.21838" lon="6.06532">
        <ele>475.99</ele>
        <time>2022-04-15T14:32:38Z</time>
      </trkpt>
      <trkpt lat="47.21835" lon="6.06527">
        <ele>476.47</ele>
        <time>2022-04-15T14:32:42Z</time>
      </trkpt>
      <trkpt lat="47.21833" lon="6.06519">
        <ele>476.95</ele>
        <time>2022-04-15T14:32:46Z</time>
      </trkpt>
      <trkpt lat="47.21831" lon="6.06509">
        <ele>477.91</ele>
        <time>2022-04-15T14:32:51Z</time>
      </trkpt>
      <trkpt lat="47.21827" lon="6.06499">
        <ele>478.39</ele>
        <time>2022-04-15T14:32:56Z</time>
      </trkpt>
      <trkpt lat="47.21818" lon="6.06481">
        <ele>478.87</ele>
        <time>2022-04-15T14:33:08Z</time>
      </trkpt>
      <trkpt lat="47.21811" lon="6.06463">
        <ele>479.84</ele>
        <time>2022-04-15T14:33:18Z</time>
      </trkpt>
      <trkpt lat="47.2181" lon="6.06464">
        <ele>479.84</ele>
        <time>2022-04-15T14:33:21Z</time>
      </trkpt>
      <trkpt lat="47.21811" lon="6.06469">
        <ele>479.35</ele>
        <time>2022-04-15T14:33:27Z</time>
      </trkpt>
      <trkpt lat="47.2182" lon="6.06484">
        <ele>479.35</ele>
        <time>2022-04-15T14:33:35Z</time>
      </trkpt>
      <trkpt lat="47.21825" lon="6.06508">
        <ele>476.95</ele>
        <time>2022-04-15T14:33:46Z</time>
      </trkpt>
      <trkpt lat="47.21826" lon="6.0651">
        <ele>476.95</ele>
        <time>2022-04-15T14:33:49Z</time>
      </trkpt>
      <trkpt lat="47.21835" lon="6.06526">
        <ele>476.47</ele>
        <time>2022-04-15T14:33:59Z</time>
      </trkpt>
      <trkpt lat="47.21835" lon="6.06528">
        <ele>476.47</ele>
        <time>2022-04-15T14:34:00Z</time>
      </trkpt>
      <trkpt lat="47.21839" lon="6.06536">
        <ele>475.03</ele>
        <time>2022-04-15T14:34:04Z</time>
      </trkpt>
      <trkpt lat="47.21843" lon="6.06545">
        <ele>475.03</ele>
        <time>2022-04-15T14:34:09Z</time>
      </trkpt>
      <trkpt lat="47.21847" lon="6.06551">
        <ele>473.11</ele>
        <time>2022-04-15T14:34:13Z</time>
      </trkpt>
      <trkpt lat="47.21844" lon="6.06557">
        <ele>472.14</ele>
        <time>2022-04-15T14:34:25Z</time>
      </trkpt>
      <trkpt lat="47.21842" lon="6.0656">
        <ele>472.14</ele>
        <time>2022-04-15T14:34:39Z</time>
      </trkpt>
      <trkpt lat="47.21823" lon="6.0656">
        <ele>469.26</ele>
        <time>2022-04-15T14:34:44Z</time>
      </trkpt>
      <trkpt lat="47.21817" lon="6.06558">
        <ele>468.3</ele>
        <time>2022-04-15T14:34:45Z</time>
      </trkpt>
      <trkpt lat="47.21798" lon="6.06551">
        <ele>464.93</ele>
        <time>2022-04-15T14:34:48Z</time>
      </trkpt>
      <trkpt lat="47.21775" lon="6.06541">
        <ele>461.09</ele>
        <time>2022-04-15T14:34:51Z</time>
      </trkpt>
      <trkpt lat="47.21755" lon="6.06534">
        <ele>457.24</ele>
        <time>2022-04-15T14:34:54Z</time>
      </trkpt>
      <trkpt lat="47.21749" lon="6.06531">
        <ele>456.28</ele>
        <time>2022-04-15T14:34:55Z</time>
      </trkpt>
      <trkpt lat="47.21743" lon="6.06527">
        <ele>455.32</ele>
        <time>2022-04-15T14:34:56Z</time>
      </trkpt>
      <trkpt lat="47.21738" lon="6.06524">
        <ele>454.36</ele>
        <time>2022-04-15T14:34:57Z</time>
      </trkpt>
      <trkpt lat="47.21729" lon="6.06518">
        <ele>451.96</ele>
        <time>2022-04-15T14:35:00Z</time>
      </trkpt>
      <trkpt lat="47.21727" lon="6.0652">
        <ele>451.48</ele>
        <time>2022-04-15T14:35:01Z</time>
      </trkpt>
      <trkpt lat="47.21726" lon="6.06522">
        <ele>451.48</ele>
        <time>2022-04-15T14:35:02Z</time>
      </trkpt>
      <trkpt lat="47.21727" lon="6.06525">
        <ele>451</ele>
        <time>2022-04-15T14:35:03Z</time>
      </trkpt>
      <trkpt lat="47.21727" lon="6.06527">
        <ele>451</ele>
        <time>2022-04-15T14:35:04Z</time>
      </trkpt>
      <trkpt lat="47.21728" lon="6.06528">
        <ele>451</ele>
        <time>2022-04-15T14:35:05Z</time>
      </trkpt>
      <trkpt lat="47.21728" lon="6.0653">
        <ele>450.52</ele>
        <time>2022-04-15T14:35:06Z</time>
      </trkpt>
      <trkpt lat="47.21732" lon="6.06551">
        <ele>448.11</ele>
        <time>2022-04-15T14:35:11Z</time>
      </trkpt>
      <trkpt lat="47.21734" lon="6.06571">
        <ele>445.23</ele>
        <time>2022-04-15T14:35:14Z</time>
      </trkpt>
      <trkpt lat="47.21735" lon="6.06577">
        <ele>444.27</ele>
        <time>2022-04-15T14:35:15Z</time>
      </trkpt>
      <trkpt lat="47.21737" lon="6.06583">
        <ele>442.82</ele>
        <time>2022-04-15T14:35:16Z</time>
      </trkpt>
      <trkpt lat="47.21739" lon="6.06589">
        <ele>441.86</ele>
        <time>2022-04-15T14:35:17Z</time>
      </trkpt>
      <trkpt lat="47.21742" lon="6.06594">
        <ele>440.42</ele>
        <time>2022-04-15T14:35:18Z</time>
      </trkpt>
      <trkpt lat="47.21744" lon="6.06598">
        <ele>439.46</ele>
        <time>2022-04-15T14:35:19Z</time>
      </trkpt>
      <trkpt lat="47.21747" lon="6.06604">
        <ele>438.5</ele>
        <time>2022-04-15T14:35:20Z</time>
      </trkpt>
      <trkpt lat="47.21748" lon="6.06608">
        <ele>438.02</ele>
        <time>2022-04-15T14:35:21Z</time>
      </trkpt>
      <trkpt lat="47.21749" lon="6.06612">
        <ele>437.54</ele>
        <time>2022-04-15T14:35:22Z</time>
      </trkpt>
      <trkpt lat="47.21748" lon="6.06615">
        <ele>436.1</ele>
        <time>2022-04-15T14:35:23Z</time>
      </trkpt>
      <trkpt lat="47.21747" lon="6.06617">
        <ele>435.61</ele>
        <time>2022-04-15T14:35:25Z</time>
      </trkpt>
      <trkpt lat="47.21746" lon="6.06618">
        <ele>435.61</ele>
        <time>2022-04-15T14:35:26Z</time>
      </trkpt>
      <trkpt lat="47.21744" lon="6.06617">
        <ele>435.13</ele>
        <time>2022-04-15T14:35:28Z</time>
      </trkpt>
      <trkpt lat="47.21742" lon="6.06616">
        <ele>435.61</ele>
        <time>2022-04-15T14:35:29Z</time>
      </trkpt>
      <trkpt lat="47.2174" lon="6.06615">
        <ele>435.13</ele>
        <time>2022-04-15T14:35:30Z</time>
      </trkpt>
      <trkpt lat="47.21739" lon="6.06613">
        <ele>435.13</ele>
        <time>2022-04-15T14:35:31Z</time>
      </trkpt>
      <trkpt lat="47.21738" lon="6.0661">
        <ele>435.13</ele>
        <time>2022-04-15T14:35:42Z</time>
      </trkpt>
      <trkpt lat="47.21736" lon="6.0661">
        <ele>435.13</ele>
        <time>2022-04-15T14:35:49Z</time>
      </trkpt>
      <trkpt lat="47.21735" lon="6.06609">
        <ele>434.65</ele>
        <time>2022-04-15T14:35:50Z</time>
      </trkpt>
      <trkpt lat="47.21719" lon="6.06599">
        <ele>434.17</ele>
        <time>2022-04-15T14:35:55Z</time>
      </trkpt>
      <trkpt lat="47.2169" lon="6.06578">
        <ele>432.73</ele>
        <time>2022-04-15T14:36:04Z</time>
      </trkpt>
      <trkpt lat="47.21686" lon="6.06574">
        <ele>432.73</ele>
        <time>2022-04-15T14:36:05Z</time>
      </trkpt>
      <trkpt lat="47.21681" lon="6.06572">
        <ele>432.73</ele>
        <time>2022-04-15T14:36:06Z</time>
      </trkpt>
      <trkpt lat="47.21675" lon="6.06571">
        <ele>432.25</ele>
        <time>2022-04-15T14:36:07Z</time>
      </trkpt>
      <trkpt lat="47.21668" lon="6.06572">
        <ele>432.25</ele>
        <time>2022-04-15T14:36:08Z</time>
      </trkpt>
      <trkpt lat="47.21663" lon="6.06575">
        <ele>432.25</ele>
        <time>2022-04-15T14:36:09Z</time>
      </trkpt>
      <trkpt lat="47.21657" lon="6.0658">
        <ele>432.25</ele>
        <time>2022-04-15T14:36:10Z</time>
      </trkpt>
      <trkpt lat="47.21653" lon="6.06586">
        <ele>432.25</ele>
        <time>2022-04-15T14:36:11Z</time>
      </trkpt>
      <trkpt lat="47.21646" lon="6.06601">
        <ele>432.25</ele>
        <time>2022-04-15T14:36:13Z</time>
      </trkpt>
      <trkpt lat="47.21645" lon="6.0661">
        <ele>431.77</ele>
        <time>2022-04-15T14:36:14Z</time>
      </trkpt>
      <trkpt lat="47.21639" lon="6.06623">
        <ele>432.25</ele>
        <time>2022-04-15T14:36:16Z</time>
      </trkpt>
      <trkpt lat="47.21634" lon="6.06624">
        <ele>432.73</ele>
        <time>2022-04-15T14:36:17Z</time>
      </trkpt>
      <trkpt lat="47.2163" lon="6.06621">
        <ele>432.73</ele>
        <time>2022-04-15T14:36:18Z</time>
      </trkpt>
      <trkpt lat="47.21627" lon="6.06618">
        <ele>433.69</ele>
        <time>2022-04-15T14:36:19Z</time>
      </trkpt>
      <trkpt lat="47.21625" lon="6.06614">
        <ele>433.69</ele>
        <time>2022-04-15T14:36:20Z</time>
      </trkpt>
      <trkpt lat="47.21595" lon="6.06577">
        <ele>436.58</ele>
        <time>2022-04-15T14:36:33Z</time>
      </trkpt>
      <trkpt lat="47.21557" lon="6.06572">
        <ele>437.54</ele>
        <time>2022-04-15T14:36:44Z</time>
      </trkpt>
      <trkpt lat="47.21532" lon="6.06586">
        <ele>437.54</ele>
        <time>2022-04-15T14:36:50Z</time>
      </trkpt>
      <trkpt lat="47.21483" lon="6.06612">
        <ele>438.02</ele>
        <time>2022-04-15T14:37:03Z</time>
      </trkpt>
      <trkpt lat="47.21478" lon="6.06614">
        <ele>437.54</ele>
        <time>2022-04-15T14:37:04Z</time>
      </trkpt>
      <trkpt lat="47.21403" lon="6.06651">
        <ele>434.65</ele>
        <time>2022-04-15T14:37:18Z</time>
      </trkpt>
      <trkpt lat="47.21341" lon="6.0668">
        <ele>431.77</ele>
        <time>2022-04-15T14:37:27Z</time>
      </trkpt>
      <trkpt lat="47.2129" lon="6.06698">
        <ele>427.92</ele>
        <time>2022-04-15T14:37:33Z</time>
      </trkpt>
      <trkpt lat="47.2125" lon="6.06707">
        <ele>424.08</ele>
        <time>2022-04-15T14:37:37Z</time>
      </trkpt>
      <trkpt lat="47.21221" lon="6.06714">
        <ele>421.19</ele>
        <time>2022-04-15T14:37:40Z</time>
      </trkpt>
      <trkpt lat="47.21185" lon="6.06722">
        <ele>417.35</ele>
        <time>2022-04-15T14:37:44Z</time>
      </trkpt>
      <trkpt lat="47.21153" lon="6.06731">
        <ele>413.98</ele>
        <time>2022-04-15T14:37:48Z</time>
      </trkpt>
      <trkpt lat="47.21142" lon="6.06736">
        <ele>412.54</ele>
        <time>2022-04-15T14:37:50Z</time>
      </trkpt>
      <trkpt lat="47.21139" lon="6.0674">
        <ele>412.06</ele>
        <time>2022-04-15T14:37:51Z</time>
      </trkpt>
      <trkpt lat="47.21138" lon="6.06744">
        <ele>411.58</ele>
        <time>2022-04-15T14:37:52Z</time>
      </trkpt>
      <trkpt lat="47.21139" lon="6.06747">
        <ele>411.1</ele>
        <time>2022-04-15T14:37:53Z</time>
      </trkpt>
      <trkpt lat="47.21141" lon="6.0675">
        <ele>410.62</ele>
        <time>2022-04-15T14:37:54Z</time>
      </trkpt>
      <trkpt lat="47.21144" lon="6.06753">
        <ele>410.14</ele>
        <time>2022-04-15T14:37:55Z</time>
      </trkpt>
      <trkpt lat="47.21147" lon="6.06757">
        <ele>410.14</ele>
        <time>2022-04-15T14:37:56Z</time>
      </trkpt>
      <trkpt lat="47.21149" lon="6.06763">
        <ele>409.18</ele>
        <time>2022-04-15T14:37:57Z</time>
      </trkpt>
      <trkpt lat="47.21152" lon="6.06769">
        <ele>409.18</ele>
        <time>2022-04-15T14:37:58Z</time>
      </trkpt>
      <trkpt lat="47.2117" lon="6.06811">
        <ele>405.81</ele>
        <time>2022-04-15T14:38:03Z</time>
      </trkpt>
      <trkpt lat="47.21192" lon="6.06848">
        <ele>402.93</ele>
        <time>2022-04-15T14:38:07Z</time>
      </trkpt>
      <trkpt lat="47.21198" lon="6.06854">
        <ele>402.93</ele>
        <time>2022-04-15T14:38:08Z</time>
      </trkpt>
      <trkpt lat="47.21205" lon="6.06858">
        <ele>402.45</ele>
        <time>2022-04-15T14:38:09Z</time>
      </trkpt>
      <trkpt lat="47.21212" lon="6.06862">
        <ele>401.97</ele>
        <time>2022-04-15T14:38:10Z</time>
      </trkpt>
      <trkpt lat="47.2122" lon="6.06864">
        <ele>401.97</ele>
        <time>2022-04-15T14:38:11Z</time>
      </trkpt>
      <trkpt lat="47.21227" lon="6.06865">
        <ele>401.49</ele>
        <time>2022-04-15T14:38:12Z</time>
      </trkpt>
      <trkpt lat="47.21313" lon="6.06896">
        <ele>399.57</ele>
        <time>2022-04-15T14:38:25Z</time>
      </trkpt>
      <trkpt lat="47.21366" lon="6.06936">
        <ele>400.05</ele>
        <time>2022-04-15T14:38:39Z</time>
      </trkpt>
      <trkpt lat="47.2138" lon="6.06949">
        <ele>401.01</ele>
        <time>2022-04-15T14:38:43Z</time>
      </trkpt>
      <trkpt lat="47.21441" lon="6.07014">
        <ele>401.49</ele>
        <time>2022-04-15T14:38:59Z</time>
      </trkpt>
      <trkpt lat="47.21501" lon="6.07092">
        <ele>400.53</ele>
        <time>2022-04-15T14:39:14Z</time>
      </trkpt>
      <trkpt lat="47.21545" lon="6.07141">
        <ele>401.01</ele>
        <time>2022-04-15T14:39:25Z</time>
      </trkpt>
      <trkpt lat="47.21586" lon="6.07183">
        <ele>401.97</ele>
        <time>2022-04-15T14:39:36Z</time>
      </trkpt>
      <trkpt lat="47.21599" lon="6.07201">
        <ele>401.97</ele>
        <time>2022-04-15T14:39:40Z</time>
      </trkpt>
      <trkpt lat="47.21629" lon="6.07258">
        <ele>401.49</ele>
        <time>2022-04-15T14:39:51Z</time>
      </trkpt>
      <trkpt lat="47.21642" lon="6.07289">
        <ele>401.49</ele>
        <time>2022-04-15T14:39:56Z</time>
      </trkpt>
      <trkpt lat="47.21679" lon="6.07378">
        <ele>401.97</ele>
        <time>2022-04-15T14:40:11Z</time>
      </trkpt>
      <trkpt lat="47.2172" lon="6.07439">
        <ele>399.57</ele>
        <time>2022-04-15T14:40:23Z</time>
      </trkpt>
      <trkpt lat="47.21732" lon="6.07449">
        <ele>399.08</ele>
        <time>2022-04-15T14:40:25Z</time>
      </trkpt>
      <trkpt lat="47.21744" lon="6.07457">
        <ele>398.6</ele>
        <time>2022-04-15T14:40:27Z</time>
      </trkpt>
      <trkpt lat="47.2175" lon="6.07459">
        <ele>398.12</ele>
        <time>2022-04-15T14:40:28Z</time>
      </trkpt>
      <trkpt lat="47.21778" lon="6.07467">
        <ele>398.6</ele>
        <time>2022-04-15T14:40:33Z</time>
      </trkpt>
      <trkpt lat="47.21794" lon="6.07469">
        <ele>398.6</ele>
        <time>2022-04-15T14:40:36Z</time>
      </trkpt>
      <trkpt lat="47.21798" lon="6.07471">
        <ele>398.6</ele>
        <time>2022-04-15T14:40:37Z</time>
      </trkpt>
      <trkpt lat="47.21811" lon="6.07477">
        <ele>399.08</ele>
        <time>2022-04-15T14:40:40Z</time>
      </trkpt>
      <trkpt lat="47.21815" lon="6.0748">
        <ele>398.6</ele>
        <time>2022-04-15T14:40:41Z</time>
      </trkpt>
      <trkpt lat="47.21865" lon="6.07523">
        <ele>397.64</ele>
        <time>2022-04-15T14:40:52Z</time>
      </trkpt>
      <trkpt lat="47.21884" lon="6.07535">
        <ele>397.64</ele>
        <time>2022-04-15T14:40:56Z</time>
      </trkpt>
      <trkpt lat="47.21889" lon="6.07539">
        <ele>397.16</ele>
        <time>2022-04-15T14:40:57Z</time>
      </trkpt>
      <trkpt lat="47.21893" lon="6.07543">
        <ele>397.16</ele>
        <time>2022-04-15T14:40:58Z</time>
      </trkpt>
      <trkpt lat="47.21897" lon="6.07548">
        <ele>397.64</ele>
        <time>2022-04-15T14:40:59Z</time>
      </trkpt>
      <trkpt lat="47.21901" lon="6.07552">
        <ele>397.64</ele>
        <time>2022-04-15T14:41:00Z</time>
      </trkpt>
      <trkpt lat="47.21905" lon="6.07557">
        <ele>397.16</ele>
        <time>2022-04-15T14:41:01Z</time>
      </trkpt>
      <trkpt lat="47.21951" lon="6.07615">
        <ele>397.64</ele>
        <time>2022-04-15T14:41:13Z</time>
      </trkpt>
      <trkpt lat="47.21959" lon="6.07625">
        <ele>397.64</ele>
        <time>2022-04-15T14:41:15Z</time>
      </trkpt>
      <trkpt lat="47.21979" lon="6.07662">
        <ele>397.64</ele>
        <time>2022-04-15T14:41:22Z</time>
      </trkpt>
      <trkpt lat="47.22003" lon="6.07717">
        <ele>397.16</ele>
        <time>2022-04-15T14:41:30Z</time>
      </trkpt>
      <trkpt lat="47.22027" lon="6.07755">
        <ele>398.6</ele>
        <time>2022-04-15T14:41:38Z</time>
      </trkpt>
      <trkpt lat="47.2203" lon="6.07759">
        <ele>398.6</ele>
        <time>2022-04-15T14:41:39Z</time>
      </trkpt>
      <trkpt lat="47.22033" lon="6.07764">
        <ele>399.08</ele>
        <time>2022-04-15T14:41:40Z</time>
      </trkpt>
      <trkpt lat="47.22035" lon="6.07768">
        <ele>399.08</ele>
        <time>2022-04-15T14:41:41Z</time>
      </trkpt>
      <trkpt lat="47.22037" lon="6.07772">
        <ele>399.57</ele>
        <time>2022-04-15T14:41:42Z</time>
      </trkpt>
      <trkpt lat="47.22039" lon="6.07776">
        <ele>399.57</ele>
        <time>2022-04-15T14:41:43Z</time>
      </trkpt>
      <trkpt lat="47.22041" lon="6.0778">
        <ele>399.57</ele>
        <time>2022-04-15T14:41:44Z</time>
      </trkpt>
      <trkpt lat="47.22043" lon="6.07785">
        <ele>399.57</ele>
        <time>2022-04-15T14:41:45Z</time>
      </trkpt>
      <trkpt lat="47.22045" lon="6.07797">
        <ele>399.57</ele>
        <time>2022-04-15T14:41:47Z</time>
      </trkpt>
      <trkpt lat="47.22046" lon="6.07804">
        <ele>399.57</ele>
        <time>2022-04-15T14:41:48Z</time>
      </trkpt>
      <trkpt lat="47.22046" lon="6.07811">
        <ele>399.08</ele>
        <time>2022-04-15T14:41:49Z</time>
      </trkpt>
      <trkpt lat="47.22044" lon="6.07856">
        <ele>398.6</ele>
        <time>2022-04-15T14:41:55Z</time>
      </trkpt>
      <trkpt lat="47.22044" lon="6.07864">
        <ele>398.6</ele>
        <time>2022-04-15T14:41:56Z</time>
      </trkpt>
      <trkpt lat="47.22046" lon="6.07872">
        <ele>398.6</ele>
        <time>2022-04-15T14:41:57Z</time>
      </trkpt>
      <trkpt lat="47.22053" lon="6.07894">
        <ele>398.12</ele>
        <time>2022-04-15T14:42:00Z</time>
      </trkpt>
      <trkpt lat="47.22056" lon="6.079">
        <ele>398.12</ele>
        <time>2022-04-15T14:42:01Z</time>
      </trkpt>
      <trkpt lat="47.2206" lon="6.07906">
        <ele>398.12</ele>
        <time>2022-04-15T14:42:02Z</time>
      </trkpt>
      <trkpt lat="47.22064" lon="6.07911">
        <ele>398.12</ele>
        <time>2022-04-15T14:42:03Z</time>
      </trkpt>
      <trkpt lat="47.22069" lon="6.07916">
        <ele>398.12</ele>
        <time>2022-04-15T14:42:04Z</time>
      </trkpt>
      <trkpt lat="47.22073" lon="6.0792">
        <ele>398.12</ele>
        <time>2022-04-15T14:42:05Z</time>
      </trkpt>
      <trkpt lat="47.2211" lon="6.07956">
        <ele>398.6</ele>
        <time>2022-04-15T14:42:15Z</time>
      </trkpt>
      <trkpt lat="47.22163" lon="6.08">
        <ele>398.6</ele>
        <time>2022-04-15T14:42:28Z</time>
      </trkpt>
      <trkpt lat="47.22235" lon="6.08069">
        <ele>398.12</ele>
        <time>2022-04-15T14:42:44Z</time>
      </trkpt>
      <trkpt lat="47.22307" lon="6.08159">
        <ele>398.6</ele>
        <time>2022-04-15T14:43:01Z</time>
      </trkpt>
      <trkpt lat="47.22361" lon="6.08219">
        <ele>399.08</ele>
        <time>2022-04-15T14:43:15Z</time>
      </trkpt>
      <trkpt lat="47.22404" lon="6.08267">
        <ele>401.01</ele>
        <time>2022-04-15T14:43:28Z</time>
      </trkpt>
      <trkpt lat="47.22422" lon="6.08285">
        <ele>401.01</ele>
        <time>2022-04-15T14:43:33Z</time>
      </trkpt>
      <trkpt lat="47.22465" lon="6.08316">
        <ele>402.45</ele>
        <time>2022-04-15T14:43:45Z</time>
      </trkpt>
      <trkpt lat="47.22488" lon="6.08338">
        <ele>403.89</ele>
        <time>2022-04-15T14:43:52Z</time>
      </trkpt>
      <trkpt lat="47.22492" lon="6.08341">
        <ele>403.89</ele>
        <time>2022-04-15T14:43:53Z</time>
      </trkpt>
      <trkpt lat="47.22495" lon="6.08344">
        <ele>403.89</ele>
        <time>2022-04-15T14:43:54Z</time>
      </trkpt>
      <trkpt lat="47.22509" lon="6.08358">
        <ele>403.89</ele>
        <time>2022-04-15T14:43:58Z</time>
      </trkpt>
      <trkpt lat="47.22512" lon="6.08362">
        <ele>403.41</ele>
        <time>2022-04-15T14:43:59Z</time>
      </trkpt>
      <trkpt lat="47.22516" lon="6.08365">
        <ele>403.89</ele>
        <time>2022-04-15T14:44:00Z</time>
      </trkpt>
      <trkpt lat="47.2252" lon="6.08368">
        <ele>404.37</ele>
        <time>2022-04-15T14:44:01Z</time>
      </trkpt>
      <trkpt lat="47.22524" lon="6.08371">
        <ele>404.37</ele>
        <time>2022-04-15T14:44:02Z</time>
      </trkpt>
      <trkpt lat="47.22528" lon="6.08375">
        <ele>403.89</ele>
        <time>2022-04-15T14:44:03Z</time>
      </trkpt>
      <trkpt lat="47.22587" lon="6.08425">
        <ele>403.41</ele>
        <time>2022-04-15T14:44:17Z</time>
      </trkpt>
      <trkpt lat="47.22656" lon="6.0848">
        <ele>402.45</ele>
        <time>2022-04-15T14:44:32Z</time>
      </trkpt>
      <trkpt lat="47.22695" lon="6.08508">
        <ele>401.01</ele>
        <time>2022-04-15T14:44:40Z</time>
      </trkpt>
      <trkpt lat="47.22758" lon="6.08547">
        <ele>399.08</ele>
        <time>2022-04-15T14:44:52Z</time>
      </trkpt>
      <trkpt lat="47.22816" lon="6.08563">
        <ele>398.6</ele>
        <time>2022-04-15T14:45:04Z</time>
      </trkpt>
      <trkpt lat="47.2285" lon="6.08574">
        <ele>398.6</ele>
        <time>2022-04-15T14:45:11Z</time>
      </trkpt>
      <trkpt lat="47.22864" lon="6.08581">
        <ele>398.6</ele>
        <time>2022-04-15T14:45:14Z</time>
      </trkpt>
      <trkpt lat="47.22909" lon="6.08614">
        <ele>398.12</ele>
        <time>2022-04-15T14:45:25Z</time>
      </trkpt>
      <trkpt lat="47.22949" lon="6.08666">
        <ele>398.6</ele>
        <time>2022-04-15T14:45:38Z</time>
      </trkpt>
      <trkpt lat="47.22959" lon="6.08688">
        <ele>398.12</ele>
        <time>2022-04-15T14:45:42Z</time>
      </trkpt>
      <trkpt lat="47.22962" lon="6.08694">
        <ele>398.12</ele>
        <time>2022-04-15T14:45:43Z</time>
      </trkpt>
      <trkpt lat="47.22964" lon="6.08699">
        <ele>398.12</ele>
        <time>2022-04-15T14:45:44Z</time>
      </trkpt>
      <trkpt lat="47.22966" lon="6.08705">
        <ele>398.12</ele>
        <time>2022-04-15T14:45:45Z</time>
      </trkpt>
      <trkpt lat="47.22969" lon="6.08711">
        <ele>397.64</ele>
        <time>2022-04-15T14:45:46Z</time>
      </trkpt>
      <trkpt lat="47.22993" lon="6.08764">
        <ele>398.12</ele>
        <time>2022-04-15T14:45:55Z</time>
      </trkpt>
      <trkpt lat="47.23019" lon="6.08801">
        <ele>397.64</ele>
        <time>2022-04-15T14:46:03Z</time>
      </trkpt>
      <trkpt lat="47.23032" lon="6.08825">
        <ele>396.68</ele>
        <time>2022-04-15T14:46:07Z</time>
      </trkpt>
      <trkpt lat="47.23035" lon="6.0883">
        <ele>396.68</ele>
        <time>2022-04-15T14:46:08Z</time>
      </trkpt>
      <trkpt lat="47.23066" lon="6.0886">
        <ele>399.57</ele>
        <time>2022-04-15T14:46:20Z</time>
      </trkpt>
      <trkpt lat="47.23088" lon="6.08878">
        <ele>402.45</ele>
        <time>2022-04-15T14:46:33Z</time>
      </trkpt>
      <trkpt lat="47.23111" lon="6.0889">
        <ele>405.33</ele>
        <time>2022-04-15T14:46:47Z</time>
      </trkpt>
      <trkpt lat="47.23112" lon="6.08891">
        <ele>405.33</ele>
        <time>2022-04-15T14:46:48Z</time>
      </trkpt>
      <trkpt lat="47.23113" lon="6.08892">
        <ele>405.33</ele>
        <time>2022-04-15T14:46:49Z</time>
      </trkpt>
      <trkpt lat="47.23114" lon="6.08893">
        <ele>405.81</ele>
        <time>2022-04-15T14:46:50Z</time>
      </trkpt>
      <trkpt lat="47.23115" lon="6.08895">
        <ele>405.81</ele>
        <time>2022-04-15T14:46:51Z</time>
      </trkpt>
      <trkpt lat="47.23129" lon="6.08907">
        <ele>408.7</ele>
        <time>2022-04-15T14:47:04Z</time>
      </trkpt>
      <trkpt lat="47.23153" lon="6.08929">
        <ele>411.58</ele>
        <time>2022-04-15T14:47:19Z</time>
      </trkpt>
      <trkpt lat="47.23154" lon="6.08931">
        <ele>411.58</ele>
        <time>2022-04-15T14:47:20Z</time>
      </trkpt>
      <trkpt lat="47.23156" lon="6.08933">
        <ele>412.06</ele>
        <time>2022-04-15T14:47:21Z</time>
      </trkpt>
      <trkpt lat="47.23157" lon="6.08934">
        <ele>412.06</ele>
        <time>2022-04-15T14:47:22Z</time>
      </trkpt>
      <trkpt lat="47.23158" lon="6.08936">
        <ele>412.06</ele>
        <time>2022-04-15T14:47:23Z</time>
      </trkpt>
      <trkpt lat="47.23172" lon="6.08945">
        <ele>413.5</ele>
        <time>2022-04-15T14:47:34Z</time>
      </trkpt>
      <trkpt lat="47.23188" lon="6.08952">
        <ele>415.91</ele>
        <time>2022-04-15T14:47:47Z</time>
      </trkpt>
      <trkpt lat="47.23201" lon="6.08955">
        <ele>418.79</ele>
        <time>2022-04-15T14:47:58Z</time>
      </trkpt>
      <trkpt lat="47.23207" lon="6.08956">
        <ele>420.23</ele>
        <time>2022-04-15T14:48:03Z</time>
      </trkpt>
      <trkpt lat="47.23219" lon="6.08952">
        <ele>423.12</ele>
        <time>2022-04-15T14:48:13Z</time>
      </trkpt>
      <trkpt lat="47.23221" lon="6.08953">
        <ele>423.12</ele>
        <time>2022-04-15T14:48:14Z</time>
      </trkpt>
      <trkpt lat="47.23221" lon="6.08956">
        <ele>423.12</ele>
        <time>2022-04-15T14:48:15Z</time>
      </trkpt>
      <trkpt lat="47.23222" lon="6.08959">
        <ele>423.12</ele>
        <time>2022-04-15T14:48:16Z</time>
      </trkpt>
      <trkpt lat="47.23242" lon="6.09025">
        <ele>421.19</ele>
        <time>2022-04-15T14:48:27Z</time>
      </trkpt>
      <trkpt lat="47.23284" lon="6.09117">
        <ele>418.31</ele>
        <time>2022-04-15T14:48:39Z</time>
      </trkpt>
      <trkpt lat="47.23348" lon="6.09228">
        <ele>414.95</ele>
        <time>2022-04-15T14:48:52Z</time>
      </trkpt>
      <trkpt lat="47.23406" lon="6.09326">
        <ele>413.5</ele>
        <time>2022-04-15T14:49:03Z</time>
      </trkpt>
      <trkpt lat="47.23418" lon="6.09338">
        <ele>413.02</ele>
        <time>2022-04-15T14:49:05Z</time>
      </trkpt>
      <trkpt lat="47.23422" lon="6.09344">
        <ele>413.02</ele>
        <time>2022-04-15T14:49:06Z</time>
      </trkpt>
      <trkpt lat="47.23458" lon="6.09416">
        <ele>413.98</ele>
        <time>2022-04-15T14:49:18Z</time>
      </trkpt>
      <trkpt lat="47.23472" lon="6.0942">
        <ele>414.47</ele>
        <time>2022-04-15T14:49:24Z</time>
      </trkpt>
      <trkpt lat="47.23474" lon="6.09419">
        <ele>413.98</ele>
        <time>2022-04-15T14:49:25Z</time>
      </trkpt>
      <trkpt lat="47.23475" lon="6.09418">
        <ele>414.47</ele>
        <time>2022-04-15T14:49:26Z</time>
      </trkpt>
      <trkpt lat="47.23477" lon="6.09412">
        <ele>414.95</ele>
        <time>2022-04-15T14:49:28Z</time>
      </trkpt>
      <trkpt lat="47.23478" lon="6.09389">
        <ele>415.91</ele>
        <time>2022-04-15T14:49:36Z</time>
      </trkpt>
      <trkpt lat="47.23479" lon="6.09387">
        <ele>415.43</ele>
        <time>2022-04-15T14:49:37Z</time>
      </trkpt>
      <trkpt lat="47.23481" lon="6.09384">
        <ele>415.91</ele>
        <time>2022-04-15T14:49:38Z</time>
      </trkpt>
      <trkpt lat="47.23482" lon="6.09381">
        <ele>415.91</ele>
        <time>2022-04-15T14:49:39Z</time>
      </trkpt>
      <trkpt lat="47.23484" lon="6.09378">
        <ele>416.39</ele>
        <time>2022-04-15T14:49:40Z</time>
      </trkpt>
      <trkpt lat="47.23485" lon="6.09374">
        <ele>416.39</ele>
        <time>2022-04-15T14:49:41Z</time>
      </trkpt>
      <trkpt lat="47.23486" lon="6.09372">
        <ele>416.39</ele>
        <time>2022-04-15T14:49:42Z</time>
      </trkpt>
      <trkpt lat="47.23488" lon="6.0937">
        <ele>416.39</ele>
        <time>2022-04-15T14:49:43Z</time>
      </trkpt>
      <trkpt lat="47.2349" lon="6.09367">
        <ele>415.91</ele>
        <time>2022-04-15T14:49:44Z</time>
      </trkpt>
      <trkpt lat="47.23491" lon="6.09364">
        <ele>416.39</ele>
        <time>2022-04-15T14:49:45Z</time>
      </trkpt>
      <trkpt lat="47.23491" lon="6.09362">
        <ele>416.39</ele>
        <time>2022-04-15T14:49:46Z</time>
      </trkpt>
      <trkpt lat="47.23492" lon="6.09358">
        <ele>416.39</ele>
        <time>2022-04-15T14:49:47Z</time>
      </trkpt>
      <trkpt lat="47.23493" lon="6.09355">
        <ele>416.39</ele>
        <time>2022-04-15T14:49:48Z</time>
      </trkpt>
      <trkpt lat="47.23493" lon="6.09352">
        <ele>416.39</ele>
        <time>2022-04-15T14:49:50Z</time>
      </trkpt>
      <trkpt lat="47.23493" lon="6.09349">
        <ele>416.87</ele>
        <time>2022-04-15T14:49:51Z</time>
      </trkpt>
      <trkpt lat="47.23495" lon="6.09344">
        <ele>416.87</ele>
        <time>2022-04-15T14:49:54Z</time>
      </trkpt>
      <trkpt lat="47.23499" lon="6.09342">
        <ele>416.87</ele>
        <time>2022-04-15T14:49:56Z</time>
      </trkpt>
      <trkpt lat="47.235" lon="6.09339">
        <ele>416.87</ele>
        <time>2022-04-15T14:49:57Z</time>
      </trkpt>
      <trkpt lat="47.23501" lon="6.09336">
        <ele>417.35</ele>
        <time>2022-04-15T14:49:58Z</time>
      </trkpt>
      <trkpt lat="47.23505" lon="6.09323">
        <ele>418.31</ele>
        <time>2022-04-15T14:50:03Z</time>
      </trkpt>
      <trkpt lat="47.23509" lon="6.09314">
        <ele>419.27</ele>
        <time>2022-04-15T14:50:07Z</time>
      </trkpt>
      <trkpt lat="47.23509" lon="6.09311">
        <ele>419.27</ele>
        <time>2022-04-15T14:50:08Z</time>
      </trkpt>
      <trkpt lat="47.23509" lon="6.09308">
        <ele>419.27</ele>
        <time>2022-04-15T14:50:09Z</time>
      </trkpt>
      <trkpt lat="47.2351" lon="6.09305">
        <ele>419.75</ele>
        <time>2022-04-15T14:50:10Z</time>
      </trkpt>
      <trkpt lat="47.2351" lon="6.09303">
        <ele>419.75</ele>
        <time>2022-04-15T14:50:11Z</time>
      </trkpt>
      <trkpt lat="47.23511" lon="6.09298">
        <ele>419.75</ele>
        <time>2022-04-15T14:50:12Z</time>
      </trkpt>
      <trkpt lat="47.23512" lon="6.09295">
        <ele>419.75</ele>
        <time>2022-04-15T14:50:13Z</time>
      </trkpt>
      <trkpt lat="47.23513" lon="6.09292">
        <ele>420.23</ele>
        <time>2022-04-15T14:50:14Z</time>
      </trkpt>
      <trkpt lat="47.23513" lon="6.09287">
        <ele>420.23</ele>
        <time>2022-04-15T14:50:15Z</time>
      </trkpt>
      <trkpt lat="47.23514" lon="6.09284">
        <ele>420.71</ele>
        <time>2022-04-15T14:50:16Z</time>
      </trkpt>
      <trkpt lat="47.23515" lon="6.09281">
        <ele>420.71</ele>
        <time>2022-04-15T14:50:17Z</time>
      </trkpt>
      <trkpt lat="47.23516" lon="6.09278">
        <ele>420.71</ele>
        <time>2022-04-15T14:50:18Z</time>
      </trkpt>
      <trkpt lat="47.23519" lon="6.09269">
        <ele>421.68</ele>
        <time>2022-04-15T14:50:22Z</time>
      </trkpt>
      <trkpt lat="47.23526" lon="6.0926">
        <ele>421.68</ele>
        <time>2022-04-15T14:50:28Z</time>
      </trkpt>
      <trkpt lat="47.2353" lon="6.09256">
        <ele>422.64</ele>
        <time>2022-04-15T14:50:31Z</time>
      </trkpt>
      <trkpt lat="47.2353" lon="6.09254">
        <ele>422.64</ele>
        <time>2022-04-15T14:50:32Z</time>
      </trkpt>
      <trkpt lat="47.23531" lon="6.09253">
        <ele>423.12</ele>
        <time>2022-04-15T14:50:33Z</time>
      </trkpt>
      <trkpt lat="47.23532" lon="6.09251">
        <ele>423.12</ele>
        <time>2022-04-15T14:50:34Z</time>
      </trkpt>
      <trkpt lat="47.23533" lon="6.0925">
        <ele>423.6</ele>
        <time>2022-04-15T14:50:35Z</time>
      </trkpt>
      <trkpt lat="47.23534" lon="6.09248">
        <ele>423.6</ele>
        <time>2022-04-15T14:50:36Z</time>
      </trkpt>
      <trkpt lat="47.23535" lon="6.09246">
        <ele>424.08</ele>
        <time>2022-04-15T14:50:37Z</time>
      </trkpt>
      <trkpt lat="47.23536" lon="6.09245">
        <ele>424.08</ele>
        <time>2022-04-15T14:50:38Z</time>
      </trkpt>
      <trkpt lat="47.2354" lon="6.09241">
        <ele>425.52</ele>
        <time>2022-04-15T14:50:42Z</time>
      </trkpt>
      <trkpt lat="47.23541" lon="6.0924">
        <ele>425.52</ele>
        <time>2022-04-15T14:50:43Z</time>
      </trkpt>
      <trkpt lat="47.23543" lon="6.09238">
        <ele>425.52</ele>
        <time>2022-04-15T14:50:44Z</time>
      </trkpt>
      <trkpt lat="47.23544" lon="6.09237">
        <ele>426</ele>
        <time>2022-04-15T14:50:45Z</time>
      </trkpt>
      <trkpt lat="47.23545" lon="6.09236">
        <ele>426</ele>
        <time>2022-04-15T14:50:46Z</time>
      </trkpt>
      <trkpt lat="47.23549" lon="6.09231">
        <ele>426.48</ele>
        <time>2022-04-15T14:50:49Z</time>
      </trkpt>
      <trkpt lat="47.2355" lon="6.09224">
        <ele>426.48</ele>
        <time>2022-04-15T14:50:51Z</time>
      </trkpt>
      <trkpt lat="47.23551" lon="6.09221">
        <ele>426.96</ele>
        <time>2022-04-15T14:50:52Z</time>
      </trkpt>
      <trkpt lat="47.23552" lon="6.09219">
        <ele>426.96</ele>
        <time>2022-04-15T14:50:53Z</time>
      </trkpt>
      <trkpt lat="47.23553" lon="6.09217">
        <ele>426.96</ele>
        <time>2022-04-15T14:50:54Z</time>
      </trkpt>
      <trkpt lat="47.23555" lon="6.09214">
        <ele>426.96</ele>
        <time>2022-04-15T14:50:55Z</time>
      </trkpt>
      <trkpt lat="47.23556" lon="6.09212">
        <ele>426.96</ele>
        <time>2022-04-15T14:50:56Z</time>
      </trkpt>
      <trkpt lat="47.23558" lon="6.09209">
        <ele>426.96</ele>
        <time>2022-04-15T14:50:57Z</time>
      </trkpt>
      <trkpt lat="47.2356" lon="6.09207">
        <ele>426.96</ele>
        <time>2022-04-15T14:50:58Z</time>
      </trkpt>
      <trkpt lat="47.23561" lon="6.09205">
        <ele>427.44</ele>
        <time>2022-04-15T14:50:59Z</time>
      </trkpt>
      <trkpt lat="47.23562" lon="6.09202">
        <ele>426.96</ele>
        <time>2022-04-15T14:51:00Z</time>
      </trkpt>
      <trkpt lat="47.23564" lon="6.092">
        <ele>427.44</ele>
        <time>2022-04-15T14:51:01Z</time>
      </trkpt>
      <trkpt lat="47.23565" lon="6.09197">
        <ele>427.44</ele>
        <time>2022-04-15T14:51:02Z</time>
      </trkpt>
      <trkpt lat="47.23567" lon="6.09195">
        <ele>427.44</ele>
        <time>2022-04-15T14:51:03Z</time>
      </trkpt>
      <trkpt lat="47.23573" lon="6.09187">
        <ele>427.92</ele>
        <time>2022-04-15T14:51:07Z</time>
      </trkpt>
      <trkpt lat="47.23574" lon="6.09185">
        <ele>427.92</ele>
        <time>2022-04-15T14:51:08Z</time>
      </trkpt>
      <trkpt lat="47.23575" lon="6.09182">
        <ele>427.92</ele>
        <time>2022-04-15T14:51:09Z</time>
      </trkpt>
      <trkpt lat="47.23576" lon="6.09178">
        <ele>428.4</ele>
        <time>2022-04-15T14:51:10Z</time>
      </trkpt>
      <trkpt lat="47.23578" lon="6.09174">
        <ele>428.4</ele>
        <time>2022-04-15T14:51:11Z</time>
      </trkpt>
      <trkpt lat="47.2358" lon="6.0917">
        <ele>428.4</ele>
        <time>2022-04-15T14:51:12Z</time>
      </trkpt>
      <trkpt lat="47.23582" lon="6.09168">
        <ele>428.4</ele>
        <time>2022-04-15T14:51:13Z</time>
      </trkpt>
      <trkpt lat="47.23584" lon="6.09166">
        <ele>428.89</ele>
        <time>2022-04-15T14:51:14Z</time>
      </trkpt>
      <trkpt lat="47.236" lon="6.09139">
        <ele>429.85</ele>
        <time>2022-04-15T14:51:26Z</time>
      </trkpt>
      <trkpt lat="47.23604" lon="6.09134">
        <ele>430.33</ele>
        <time>2022-04-15T14:51:28Z</time>
      </trkpt>
      <trkpt lat="47.23606" lon="6.09133">
        <ele>430.33</ele>
        <time>2022-04-15T14:51:29Z</time>
      </trkpt>
      <trkpt lat="47.23608" lon="6.0913">
        <ele>430.81</ele>
        <time>2022-04-15T14:51:30Z</time>
      </trkpt>
      <trkpt lat="47.2361" lon="6.09129">
        <ele>430.81</ele>
        <time>2022-04-15T14:51:31Z</time>
      </trkpt>
      <trkpt lat="47.23611" lon="6.09128">
        <ele>430.81</ele>
        <time>2022-04-15T14:51:32Z</time>
      </trkpt>
      <trkpt lat="47.23614" lon="6.09126">
        <ele>431.29</ele>
        <time>2022-04-15T14:51:33Z</time>
      </trkpt>
      <trkpt lat="47.23625" lon="6.09118">
        <ele>432.25</ele>
        <time>2022-04-15T14:51:39Z</time>
      </trkpt>
      <trkpt lat="47.23627" lon="6.09117">
        <ele>432.73</ele>
        <time>2022-04-15T14:51:40Z</time>
      </trkpt>
      <trkpt lat="47.2363" lon="6.09114">
        <ele>433.21</ele>
        <time>2022-04-15T14:51:42Z</time>
      </trkpt>
      <trkpt lat="47.23647" lon="6.09103">
        <ele>434.65</ele>
        <time>2022-04-15T14:51:52Z</time>
      </trkpt>
      <trkpt lat="47.23654" lon="6.091">
        <ele>435.61</ele>
        <time>2022-04-15T14:51:58Z</time>
      </trkpt>
      <trkpt lat="47.23656" lon="6.09099">
        <ele>436.1</ele>
        <time>2022-04-15T14:51:59Z</time>
      </trkpt>
      <trkpt lat="47.23657" lon="6.09098">
        <ele>436.1</ele>
        <time>2022-04-15T14:52:00Z</time>
      </trkpt>
      <trkpt lat="47.23659" lon="6.09096">
        <ele>436.1</ele>
        <time>2022-04-15T14:52:01Z</time>
      </trkpt>
      <trkpt lat="47.23663" lon="6.09094">
        <ele>436.58</ele>
        <time>2022-04-15T14:52:04Z</time>
      </trkpt>
      <trkpt lat="47.2367" lon="6.09092">
        <ele>437.06</ele>
        <time>2022-04-15T14:52:08Z</time>
      </trkpt>
      <trkpt lat="47.23677" lon="6.09086">
        <ele>438.5</ele>
        <time>2022-04-15T14:52:14Z</time>
      </trkpt>
      <trkpt lat="47.23679" lon="6.09086">
        <ele>438.5</ele>
        <time>2022-04-15T14:52:15Z</time>
      </trkpt>
      <trkpt lat="47.23685" lon="6.09084">
        <ele>438.98</ele>
        <time>2022-04-15T14:52:19Z</time>
      </trkpt>
      <trkpt lat="47.23686" lon="6.09083">
        <ele>439.46</ele>
        <time>2022-04-15T14:52:20Z</time>
      </trkpt>
      <trkpt lat="47.23692" lon="6.09082">
        <ele>440.42</ele>
        <time>2022-04-15T14:52:26Z</time>
      </trkpt>
      <trkpt lat="47.23693" lon="6.09082">
        <ele>440.9</ele>
        <time>2022-04-15T14:52:27Z</time>
      </trkpt>
      <trkpt lat="47.23695" lon="6.09083">
        <ele>440.9</ele>
        <time>2022-04-15T14:52:28Z</time>
      </trkpt>
      <trkpt lat="47.23696" lon="6.09084">
        <ele>440.9</ele>
        <time>2022-04-15T14:52:29Z</time>
      </trkpt>
      <trkpt lat="47.23697" lon="6.09085">
        <ele>440.9</ele>
        <time>2022-04-15T14:52:30Z</time>
      </trkpt>
      <trkpt lat="47.237" lon="6.09087">
        <ele>441.38</ele>
        <time>2022-04-15T14:52:31Z</time>
      </trkpt>
      <trkpt lat="47.23702" lon="6.09089">
        <ele>441.38</ele>
        <time>2022-04-15T14:52:32Z</time>
      </trkpt>
      <trkpt lat="47.23712" lon="6.09103">
        <ele>442.34</ele>
        <time>2022-04-15T14:52:42Z</time>
      </trkpt>
      <trkpt lat="47.23713" lon="6.09103">
        <ele>442.82</ele>
        <time>2022-04-15T14:52:43Z</time>
      </trkpt>
      <trkpt lat="47.23726" lon="6.0911">
        <ele>443.79</ele>
        <time>2022-04-15T14:52:53Z</time>
      </trkpt>
      <trkpt lat="47.23729" lon="6.09114">
        <ele>444.75</ele>
        <time>2022-04-15T14:52:56Z</time>
      </trkpt>
      <trkpt lat="47.23731" lon="6.09116">
        <ele>444.75</ele>
        <time>2022-04-15T14:52:57Z</time>
      </trkpt>
      <trkpt lat="47.2374" lon="6.09126">
        <ele>445.71</ele>
        <time>2022-04-15T14:53:02Z</time>
      </trkpt>
      <trkpt lat="47.23743" lon="6.09128">
        <ele>445.71</ele>
        <time>2022-04-15T14:53:03Z</time>
      </trkpt>
      <trkpt lat="47.23749" lon="6.09136">
        <ele>446.67</ele>
        <time>2022-04-15T14:53:07Z</time>
      </trkpt>
      <trkpt lat="47.23755" lon="6.09139">
        <ele>447.15</ele>
        <time>2022-04-15T14:53:09Z</time>
      </trkpt>
      <trkpt lat="47.23758" lon="6.0914">
        <ele>447.15</ele>
        <time>2022-04-15T14:53:10Z</time>
      </trkpt>
      <trkpt lat="47.23775" lon="6.09161">
        <ele>450.03</ele>
        <time>2022-04-15T14:53:25Z</time>
      </trkpt>
      <trkpt lat="47.23789" lon="6.0918">
        <ele>452.44</ele>
        <time>2022-04-15T14:53:37Z</time>
      </trkpt>
      <trkpt lat="47.23791" lon="6.09184">
        <ele>452.92</ele>
        <time>2022-04-15T14:53:40Z</time>
      </trkpt>
      <trkpt lat="47.23792" lon="6.09185">
        <ele>453.4</ele>
        <time>2022-04-15T14:53:41Z</time>
      </trkpt>
      <trkpt lat="47.23792" lon="6.09187">
        <ele>453.4</ele>
        <time>2022-04-15T14:53:42Z</time>
      </trkpt>
      <trkpt lat="47.23793" lon="6.09189">
        <ele>453.4</ele>
        <time>2022-04-15T14:53:43Z</time>
      </trkpt>
      <trkpt lat="47.23794" lon="6.09191">
        <ele>453.88</ele>
        <time>2022-04-15T14:53:44Z</time>
      </trkpt>
      <trkpt lat="47.23803" lon="6.09209">
        <ele>455.32</ele>
        <time>2022-04-15T14:53:53Z</time>
      </trkpt>
      <trkpt lat="47.23811" lon="6.09224">
        <ele>456.76</ele>
        <time>2022-04-15T14:54:01Z</time>
      </trkpt>
      <trkpt lat="47.23812" lon="6.09226">
        <ele>457.24</ele>
        <time>2022-04-15T14:54:02Z</time>
      </trkpt>
      <trkpt lat="47.23812" lon="6.09228">
        <ele>457.72</ele>
        <time>2022-04-15T14:54:03Z</time>
      </trkpt>
      <trkpt lat="47.23813" lon="6.09231">
        <ele>457.72</ele>
        <time>2022-04-15T14:54:04Z</time>
      </trkpt>
      <trkpt lat="47.23813" lon="6.09233">
        <ele>458.21</ele>
        <time>2022-04-15T14:54:05Z</time>
      </trkpt>
      <trkpt lat="47.23814" lon="6.09234">
        <ele>458.21</ele>
        <time>2022-04-15T14:54:06Z</time>
      </trkpt>
      <trkpt lat="47.23816" lon="6.09243">
        <ele>459.65</ele>
        <time>2022-04-15T14:54:13Z</time>
      </trkpt>
      <trkpt lat="47.23817" lon="6.09245">
        <ele>459.65</ele>
        <time>2022-04-15T14:54:14Z</time>
      </trkpt>
      <trkpt lat="47.23817" lon="6.09247">
        <ele>460.13</ele>
        <time>2022-04-15T14:54:15Z</time>
      </trkpt>
      <trkpt lat="47.23818" lon="6.09249">
        <ele>460.13</ele>
        <time>2022-04-15T14:54:16Z</time>
      </trkpt>
      <trkpt lat="47.23826" lon="6.09262">
        <ele>463.49</ele>
        <time>2022-04-15T14:54:29Z</time>
      </trkpt>
      <trkpt lat="47.23838" lon="6.09274">
        <ele>465.9</ele>
        <time>2022-04-15T14:54:41Z</time>
      </trkpt>
      <trkpt lat="47.23847" lon="6.09291">
        <ele>467.34</ele>
        <time>2022-04-15T14:54:53Z</time>
      </trkpt>
      <trkpt lat="47.23851" lon="6.09297">
        <ele>468.3</ele>
        <time>2022-04-15T14:55:05Z</time>
      </trkpt>
      <trkpt lat="47.23853" lon="6.09302">
        <ele>468.78</ele>
        <time>2022-04-15T14:55:16Z</time>
      </trkpt>
      <trkpt lat="47.23859" lon="6.09313">
        <ele>469.74</ele>
        <time>2022-04-15T14:55:26Z</time>
      </trkpt>
      <trkpt lat="47.23866" lon="6.09322">
        <ele>471.18</ele>
        <time>2022-04-15T14:55:38Z</time>
      </trkpt>
      <trkpt lat="47.2388" lon="6.09328">
        <ele>472.63</ele>
        <time>2022-04-15T14:55:49Z</time>
      </trkpt>
      <trkpt lat="47.23891" lon="6.09334">
        <ele>473.59</ele>
        <time>2022-04-15T14:55:59Z</time>
      </trkpt>
      <trkpt lat="47.23905" lon="6.09328">
        <ele>475.03</ele>
        <time>2022-04-15T14:56:12Z</time>
      </trkpt>
      <trkpt lat="47.23906" lon="6.09327">
        <ele>475.51</ele>
        <time>2022-04-15T14:56:14Z</time>
      </trkpt>
      <trkpt lat="47.23907" lon="6.09325">
        <ele>475.51</ele>
        <time>2022-04-15T14:56:15Z</time>
      </trkpt>
      <trkpt lat="47.23909" lon="6.09317">
        <ele>476.47</ele>
        <time>2022-04-15T14:56:20Z</time>
      </trkpt>
      <trkpt lat="47.23911" lon="6.0931">
        <ele>476.95</ele>
        <time>2022-04-15T14:56:24Z</time>
      </trkpt>
      <trkpt lat="47.23915" lon="6.0931">
        <ele>477.91</ele>
        <time>2022-04-15T14:56:27Z</time>
      </trkpt>
      <trkpt lat="47.23916" lon="6.09312">
        <ele>477.91</ele>
        <time>2022-04-15T14:56:28Z</time>
      </trkpt>
      <trkpt lat="47.23917" lon="6.09313">
        <ele>477.91</ele>
        <time>2022-04-15T14:56:29Z</time>
      </trkpt>
      <trkpt lat="47.23918" lon="6.09315">
        <ele>477.91</ele>
        <time>2022-04-15T14:56:30Z</time>
      </trkpt>
      <trkpt lat="47.2392" lon="6.09318">
        <ele>477.43</ele>
        <time>2022-04-15T14:56:33Z</time>
      </trkpt>
      <trkpt lat="47.2392" lon="6.09321">
        <ele>477.43</ele>
        <time>2022-04-15T14:56:34Z</time>
      </trkpt>
      <trkpt lat="47.23922" lon="6.09324">
        <ele>477.43</ele>
        <time>2022-04-15T14:56:35Z</time>
      </trkpt>
      <trkpt lat="47.23923" lon="6.09328">
        <ele>476.95</ele>
        <time>2022-04-15T14:56:36Z</time>
      </trkpt>
      <trkpt lat="47.23925" lon="6.09333">
        <ele>476.95</ele>
        <time>2022-04-15T14:56:37Z</time>
      </trkpt>
      <trkpt lat="47.23934" lon="6.09355">
        <ele>475.99</ele>
        <time>2022-04-15T14:56:41Z</time>
      </trkpt>
      <trkpt lat="47.2394" lon="6.09367">
        <ele>475.51</ele>
        <time>2022-04-15T14:56:43Z</time>
      </trkpt>
      <trkpt lat="47.23943" lon="6.09374">
        <ele>475.03</ele>
        <time>2022-04-15T14:56:44Z</time>
      </trkpt>
      <trkpt lat="47.23948" lon="6.0938">
        <ele>475.03</ele>
        <time>2022-04-15T14:56:45Z</time>
      </trkpt>
      <trkpt lat="47.23953" lon="6.09386">
        <ele>474.55</ele>
        <time>2022-04-15T14:56:46Z</time>
      </trkpt>
      <trkpt lat="47.23958" lon="6.09391">
        <ele>474.07</ele>
        <time>2022-04-15T14:56:47Z</time>
      </trkpt>
      <trkpt lat="47.23963" lon="6.09396">
        <ele>474.07</ele>
        <time>2022-04-15T14:56:48Z</time>
      </trkpt>
      <trkpt lat="47.23992" lon="6.0942">
        <ele>471.66</ele>
        <time>2022-04-15T14:56:54Z</time>
      </trkpt>
      <trkpt lat="47.23997" lon="6.09421">
        <ele>470.7</ele>
        <time>2022-04-15T14:56:55Z</time>
      </trkpt>
      <trkpt lat="47.24003" lon="6.09421">
        <ele>470.7</ele>
        <time>2022-04-15T14:56:56Z</time>
      </trkpt>
      <trkpt lat="47.24008" lon="6.09421">
        <ele>470.7</ele>
        <time>2022-04-15T14:56:57Z</time>
      </trkpt>
      <trkpt lat="47.24012" lon="6.09423">
        <ele>470.7</ele>
        <time>2022-04-15T14:56:58Z</time>
      </trkpt>
      <trkpt lat="47.24016" lon="6.09425">
        <ele>471.66</ele>
        <time>2022-04-15T14:56:59Z</time>
      </trkpt>
      <trkpt lat="47.24018" lon="6.09428">
        <ele>471.66</ele>
        <time>2022-04-15T14:57:00Z</time>
      </trkpt>
      <trkpt lat="47.24041" lon="6.09449">
        <ele>474.55</ele>
        <time>2022-04-15T14:57:13Z</time>
      </trkpt>
      <trkpt lat="47.24062" lon="6.09459">
        <ele>476.47</ele>
        <time>2022-04-15T14:57:24Z</time>
      </trkpt>
      <trkpt lat="47.24082" lon="6.09468">
        <ele>478.87</ele>
        <time>2022-04-15T14:57:35Z</time>
      </trkpt>
      <trkpt lat="47.24083" lon="6.09469">
        <ele>478.87</ele>
        <time>2022-04-15T14:57:36Z</time>
      </trkpt>
      <trkpt lat="47.24101" lon="6.09487">
        <ele>481.28</ele>
        <time>2022-04-15T14:57:49Z</time>
      </trkpt>
      <trkpt lat="47.24122" lon="6.09511">
        <ele>483.68</ele>
        <time>2022-04-15T14:58:02Z</time>
      </trkpt>
      <trkpt lat="47.24141" lon="6.09534">
        <ele>485.12</ele>
        <time>2022-04-15T14:58:14Z</time>
      </trkpt>
      <trkpt lat="47.24165" lon="6.09564">
        <ele>487.53</ele>
        <time>2022-04-15T14:58:29Z</time>
      </trkpt>
      <trkpt lat="47.2418" lon="6.09581">
        <ele>488.97</ele>
        <time>2022-04-15T14:58:39Z</time>
      </trkpt>
      <trkpt lat="47.242" lon="6.09609">
        <ele>490.89</ele>
        <time>2022-04-15T14:58:53Z</time>
      </trkpt>
      <trkpt lat="47.24218" lon="6.09633">
        <ele>493.29</ele>
        <time>2022-04-15T14:59:06Z</time>
      </trkpt>
      <trkpt lat="47.24238" lon="6.09664">
        <ele>494.26</ele>
        <time>2022-04-15T14:59:20Z</time>
      </trkpt>
      <trkpt lat="47.24258" lon="6.097">
        <ele>496.66</ele>
        <time>2022-04-15T14:59:34Z</time>
      </trkpt>
      <trkpt lat="47.24274" lon="6.09724">
        <ele>497.62</ele>
        <time>2022-04-15T14:59:45Z</time>
      </trkpt>
      <trkpt lat="47.24275" lon="6.09726">
        <ele>498.1</ele>
        <time>2022-04-15T14:59:47Z</time>
      </trkpt>
      <trkpt lat="47.24276" lon="6.09728">
        <ele>498.1</ele>
        <time>2022-04-15T14:59:48Z</time>
      </trkpt>
      <trkpt lat="47.24277" lon="6.09729">
        <ele>498.1</ele>
        <time>2022-04-15T14:59:49Z</time>
      </trkpt>
      <trkpt lat="47.24287" lon="6.09737">
        <ele>499.06</ele>
        <time>2022-04-15T14:59:55Z</time>
      </trkpt>
      <trkpt lat="47.24288" lon="6.0974">
        <ele>499.06</ele>
        <time>2022-04-15T14:59:57Z</time>
      </trkpt>
      <trkpt lat="47.24289" lon="6.09741">
        <ele>499.06</ele>
        <time>2022-04-15T14:59:58Z</time>
      </trkpt>
      <trkpt lat="47.2429" lon="6.09743">
        <ele>499.06</ele>
        <time>2022-04-15T14:59:59Z</time>
      </trkpt>
      <trkpt lat="47.24291" lon="6.09744">
        <ele>499.06</ele>
        <time>2022-04-15T15:00:00Z</time>
      </trkpt>
      <trkpt lat="47.24292" lon="6.09745">
        <ele>499.06</ele>
        <time>2022-04-15T15:00:01Z</time>
      </trkpt>
      <trkpt lat="47.24294" lon="6.09746">
        <ele>499.06</ele>
        <time>2022-04-15T15:00:02Z</time>
      </trkpt>
      <trkpt lat="47.24296" lon="6.09748">
        <ele>499.54</ele>
        <time>2022-04-15T15:00:04Z</time>
      </trkpt>
      <trkpt lat="47.24297" lon="6.09749">
        <ele>499.54</ele>
        <time>2022-04-15T15:00:05Z</time>
      </trkpt>
      <trkpt lat="47.24299" lon="6.0975">
        <ele>500.02</ele>
        <time>2022-04-15T15:00:06Z</time>
      </trkpt>
      <trkpt lat="47.243" lon="6.09752">
        <ele>500.02</ele>
        <time>2022-04-15T15:00:07Z</time>
      </trkpt>
      <trkpt lat="47.24302" lon="6.09753">
        <ele>500.5</ele>
        <time>2022-04-15T15:00:08Z</time>
      </trkpt>
      <trkpt lat="47.24303" lon="6.09755">
        <ele>500.5</ele>
        <time>2022-04-15T15:00:09Z</time>
      </trkpt>
      <trkpt lat="47.24315" lon="6.09762">
        <ele>500.98</ele>
        <time>2022-04-15T15:00:19Z</time>
      </trkpt>
      <trkpt lat="47.24319" lon="6.09764">
        <ele>501.46</ele>
        <time>2022-04-15T15:00:22Z</time>
      </trkpt>
      <trkpt lat="47.2432" lon="6.09764">
        <ele>501.95</ele>
        <time>2022-04-15T15:00:23Z</time>
      </trkpt>
      <trkpt lat="47.24322" lon="6.09765">
        <ele>501.95</ele>
        <time>2022-04-15T15:00:24Z</time>
      </trkpt>
      <trkpt lat="47.2433" lon="6.09765">
        <ele>502.43</ele>
        <time>2022-04-15T15:00:28Z</time>
      </trkpt>
      <trkpt lat="47.24331" lon="6.09764">
        <ele>502.43</ele>
        <time>2022-04-15T15:00:29Z</time>
      </trkpt>
      <trkpt lat="47.24332" lon="6.09764">
        <ele>502.91</ele>
        <time>2022-04-15T15:00:30Z</time>
      </trkpt>
      <trkpt lat="47.2435" lon="6.09769">
        <ele>503.87</ele>
        <time>2022-04-15T15:00:40Z</time>
      </trkpt>
      <trkpt lat="47.24352" lon="6.09771">
        <ele>503.87</ele>
        <time>2022-04-15T15:00:41Z</time>
      </trkpt>
      <trkpt lat="47.24372" lon="6.0978">
        <ele>505.79</ele>
        <time>2022-04-15T15:00:53Z</time>
      </trkpt>
      <trkpt lat="47.24403" lon="6.09785">
        <ele>507.71</ele>
        <time>2022-04-15T15:01:05Z</time>
      </trkpt>
      <trkpt lat="47.24431" lon="6.09775">
        <ele>509.16</ele>
        <time>2022-04-15T15:01:18Z</time>
      </trkpt>
      <trkpt lat="47.24454" lon="6.09755">
        <ele>510.12</ele>
        <time>2022-04-15T15:01:30Z</time>
      </trkpt>
      <trkpt lat="47.24479" lon="6.09738">
        <ele>512.52</ele>
        <time>2022-04-15T15:01:42Z</time>
      </trkpt>
      <trkpt lat="47.24501" lon="6.09724">
        <ele>514.44</ele>
        <time>2022-04-15T15:01:53Z</time>
      </trkpt>
      <trkpt lat="47.24502" lon="6.09723">
        <ele>514.44</ele>
        <time>2022-04-15T15:01:54Z</time>
      </trkpt>
      <trkpt lat="47.24504" lon="6.09723">
        <ele>514.44</ele>
        <time>2022-04-15T15:01:55Z</time>
      </trkpt>
      <trkpt lat="47.24506" lon="6.09724">
        <ele>514.92</ele>
        <time>2022-04-15T15:01:56Z</time>
      </trkpt>
      <trkpt lat="47.24508" lon="6.09725">
        <ele>515.4</ele>
        <time>2022-04-15T15:01:57Z</time>
      </trkpt>
      <trkpt lat="47.24513" lon="6.0973">
        <ele>515.88</ele>
        <time>2022-04-15T15:02:00Z</time>
      </trkpt>
      <trkpt lat="47.24514" lon="6.09733">
        <ele>515.88</ele>
        <time>2022-04-15T15:02:01Z</time>
      </trkpt>
      <trkpt lat="47.24529" lon="6.09755">
        <ele>517.81</ele>
        <time>2022-04-15T15:02:12Z</time>
      </trkpt>
      <trkpt lat="47.2454" lon="6.0977">
        <ele>519.25</ele>
        <time>2022-04-15T15:02:19Z</time>
      </trkpt>
      <trkpt lat="47.24541" lon="6.09772">
        <ele>519.25</ele>
        <time>2022-04-15T15:02:20Z</time>
      </trkpt>
      <trkpt lat="47.24543" lon="6.09774">
        <ele>520.21</ele>
        <time>2022-04-15T15:02:21Z</time>
      </trkpt>
      <trkpt lat="47.24544" lon="6.09776">
        <ele>520.21</ele>
        <time>2022-04-15T15:02:22Z</time>
      </trkpt>
      <trkpt lat="47.24545" lon="6.09778">
        <ele>520.21</ele>
        <time>2022-04-15T15:02:23Z</time>
      </trkpt>
      <trkpt lat="47.24566" lon="6.09811">
        <ele>521.17</ele>
        <time>2022-04-15T15:02:36Z</time>
      </trkpt>
      <trkpt lat="47.24573" lon="6.09822">
        <ele>521.17</ele>
        <time>2022-04-15T15:02:41Z</time>
      </trkpt>
      <trkpt lat="47.24575" lon="6.09825">
        <ele>521.17</ele>
        <time>2022-04-15T15:02:42Z</time>
      </trkpt>
      <trkpt lat="47.24576" lon="6.09828">
        <ele>520.69</ele>
        <time>2022-04-15T15:02:43Z</time>
      </trkpt>
      <trkpt lat="47.24589" lon="6.09867">
        <ele>520.21</ele>
        <time>2022-04-15T15:02:53Z</time>
      </trkpt>
      <trkpt lat="47.246" lon="6.09935">
        <ele>520.21</ele>
        <time>2022-04-15T15:03:04Z</time>
      </trkpt>
      <trkpt lat="47.24611" lon="6.09974">
        <ele>522.13</ele>
        <time>2022-04-15T15:03:13Z</time>
      </trkpt>
      <trkpt lat="47.24616" lon="6.09988">
        <ele>523.09</ele>
        <time>2022-04-15T15:03:17Z</time>
      </trkpt>
      <trkpt lat="47.24624" lon="6.10009">
        <ele>524.06</ele>
        <time>2022-04-15T15:03:23Z</time>
      </trkpt>
      <trkpt lat="47.24625" lon="6.10012">
        <ele>524.06</ele>
        <time>2022-04-15T15:03:24Z</time>
      </trkpt>
      <trkpt lat="47.24627" lon="6.10014">
        <ele>524.06</ele>
        <time>2022-04-15T15:03:25Z</time>
      </trkpt>
      <trkpt lat="47.24629" lon="6.10017">
        <ele>524.06</ele>
        <time>2022-04-15T15:03:26Z</time>
      </trkpt>
      <trkpt lat="47.24631" lon="6.10021">
        <ele>524.54</ele>
        <time>2022-04-15T15:03:27Z</time>
      </trkpt>
      <trkpt lat="47.24633" lon="6.10024">
        <ele>524.54</ele>
        <time>2022-04-15T15:03:28Z</time>
      </trkpt>
      <trkpt lat="47.24635" lon="6.10026">
        <ele>524.54</ele>
        <time>2022-04-15T15:03:29Z</time>
      </trkpt>
      <trkpt lat="47.24664" lon="6.10063">
        <ele>526.94</ele>
        <time>2022-04-15T15:03:45Z</time>
      </trkpt>
      <trkpt lat="47.2469" lon="6.10095">
        <ele>530.3</ele>
        <time>2022-04-15T15:04:00Z</time>
      </trkpt>
      <trkpt lat="47.24717" lon="6.10132">
        <ele>532.71</ele>
        <time>2022-04-15T15:04:15Z</time>
      </trkpt>
      <trkpt lat="47.24745" lon="6.10154">
        <ele>535.11</ele>
        <time>2022-04-15T15:04:29Z</time>
      </trkpt>
      <trkpt lat="47.24776" lon="6.10176">
        <ele>537.99</ele>
        <time>2022-04-15T15:04:45Z</time>
      </trkpt>
      <trkpt lat="47.24806" lon="6.10181">
        <ele>540.88</ele>
        <time>2022-04-15T15:04:59Z</time>
      </trkpt>
      <trkpt lat="47.24838" lon="6.10157">
        <ele>543.76</ele>
        <time>2022-04-15T15:05:15Z</time>
      </trkpt>
      <trkpt lat="47.24855" lon="6.10119">
        <ele>544.72</ele>
        <time>2022-04-15T15:05:27Z</time>
      </trkpt>
      <trkpt lat="47.24869" lon="6.10069">
        <ele>546.65</ele>
        <time>2022-04-15T15:05:42Z</time>
      </trkpt>
      <trkpt lat="47.24883" lon="6.10013">
        <ele>549.05</ele>
        <time>2022-04-15T15:05:58Z</time>
      </trkpt>
      <trkpt lat="47.24898" lon="6.09964">
        <ele>552.41</ele>
        <time>2022-04-15T15:06:13Z</time>
      </trkpt>
      <trkpt lat="47.24917" lon="6.09912">
        <ele>554.82</ele>
        <time>2022-04-15T15:06:29Z</time>
      </trkpt>
      <trkpt lat="47.24929" lon="6.09863">
        <ele>556.26</ele>
        <time>2022-04-15T15:06:43Z</time>
      </trkpt>
      <trkpt lat="47.24931" lon="6.09817">
        <ele>557.22</ele>
        <time>2022-04-15T15:06:55Z</time>
      </trkpt>
      <trkpt lat="47.24932" lon="6.09814">
        <ele>557.7</ele>
        <time>2022-04-15T15:06:56Z</time>
      </trkpt>
      <trkpt lat="47.24934" lon="6.09813">
        <ele>557.7</ele>
        <time>2022-04-15T15:06:57Z</time>
      </trkpt>
      <trkpt lat="47.24937" lon="6.09813">
        <ele>558.18</ele>
        <time>2022-04-15T15:06:58Z</time>
      </trkpt>
      <trkpt lat="47.2494" lon="6.09813">
        <ele>558.66</ele>
        <time>2022-04-15T15:06:59Z</time>
      </trkpt>
      <trkpt lat="47.24943" lon="6.09813">
        <ele>558.66</ele>
        <time>2022-04-15T15:07:00Z</time>
      </trkpt>
      <trkpt lat="47.24966" lon="6.09804">
        <ele>560.59</ele>
        <time>2022-04-15T15:07:11Z</time>
      </trkpt>
      <trkpt lat="47.2499" lon="6.09795">
        <ele>562.99</ele>
        <time>2022-04-15T15:07:23Z</time>
      </trkpt>
      <trkpt lat="47.24992" lon="6.09796">
        <ele>562.99</ele>
        <time>2022-04-15T15:07:24Z</time>
      </trkpt>
      <trkpt lat="47.24994" lon="6.09796">
        <ele>562.99</ele>
        <time>2022-04-15T15:07:25Z</time>
      </trkpt>
      <trkpt lat="47.24996" lon="6.09795">
        <ele>562.99</ele>
        <time>2022-04-15T15:07:26Z</time>
      </trkpt>
      <trkpt lat="47.24998" lon="6.09795">
        <ele>562.99</ele>
        <time>2022-04-15T15:07:27Z</time>
      </trkpt>
      <trkpt lat="47.2504" lon="6.09778">
        <ele>563.47</ele>
        <time>2022-04-15T15:07:40Z</time>
      </trkpt>
      <trkpt lat="47.2506" lon="6.0972">
        <ele>561.55</ele>
        <time>2022-04-15T15:07:50Z</time>
      </trkpt>
      <trkpt lat="47.25062" lon="6.09648">
        <ele>557.7</ele>
        <time>2022-04-15T15:07:57Z</time>
      </trkpt>
      <trkpt lat="47.25058" lon="6.09574">
        <ele>554.34</ele>
        <time>2022-04-15T15:08:03Z</time>
      </trkpt>
      <trkpt lat="47.25053" lon="6.09506">
        <ele>551.45</ele>
        <time>2022-04-15T15:08:08Z</time>
      </trkpt>
      <trkpt lat="47.25048" lon="6.0946">
        <ele>548.09</ele>
        <time>2022-04-15T15:08:11Z</time>
      </trkpt>
      <trkpt lat="47.25046" lon="6.09445">
        <ele>548.09</ele>
        <time>2022-04-15T15:08:12Z</time>
      </trkpt>
      <trkpt lat="47.25043" lon="6.09416">
        <ele>548.09</ele>
        <time>2022-04-15T15:08:14Z</time>
      </trkpt>
      <trkpt lat="47.25044" lon="6.09401">
        <ele>547.61</ele>
        <time>2022-04-15T15:08:15Z</time>
      </trkpt>
      <trkpt lat="47.25046" lon="6.0937">
        <ele>545.69</ele>
        <time>2022-04-15T15:08:17Z</time>
      </trkpt>
      <trkpt lat="47.25045" lon="6.09355">
        <ele>545.2</ele>
        <time>2022-04-15T15:08:18Z</time>
      </trkpt>
      <trkpt lat="47.25043" lon="6.09323">
        <ele>543.76</ele>
        <time>2022-04-15T15:08:20Z</time>
      </trkpt>
      <trkpt lat="47.25043" lon="6.09307">
        <ele>543.28</ele>
        <time>2022-04-15T15:08:21Z</time>
      </trkpt>
      <trkpt lat="47.25045" lon="6.09291">
        <ele>543.28</ele>
        <time>2022-04-15T15:08:22Z</time>
      </trkpt>
      <trkpt lat="47.25048" lon="6.09277">
        <ele>542.8</ele>
        <time>2022-04-15T15:08:23Z</time>
      </trkpt>
      <trkpt lat="47.25052" lon="6.09264">
        <ele>542.8</ele>
        <time>2022-04-15T15:08:24Z</time>
      </trkpt>
      <trkpt lat="47.25057" lon="6.09251">
        <ele>542.32</ele>
        <time>2022-04-15T15:08:25Z</time>
      </trkpt>
      <trkpt lat="47.25062" lon="6.09239">
        <ele>542.32</ele>
        <time>2022-04-15T15:08:26Z</time>
      </trkpt>
      <trkpt lat="47.25068" lon="6.09228">
        <ele>542.8</ele>
        <time>2022-04-15T15:08:27Z</time>
      </trkpt>
      <trkpt lat="47.25119" lon="6.09156">
        <ele>539.44</ele>
        <time>2022-04-15T15:08:35Z</time>
      </trkpt>
      <trkpt lat="47.25125" lon="6.09146">
        <ele>538.48</ele>
        <time>2022-04-15T15:08:36Z</time>
      </trkpt>
      <trkpt lat="47.25129" lon="6.09135">
        <ele>537.99</ele>
        <time>2022-04-15T15:08:37Z</time>
      </trkpt>
      <trkpt lat="47.25134" lon="6.09124">
        <ele>537.51</ele>
        <time>2022-04-15T15:08:38Z</time>
      </trkpt>
      <trkpt lat="47.25154" lon="6.09029">
        <ele>536.07</ele>
        <time>2022-04-15T15:08:46Z</time>
      </trkpt>
      <trkpt lat="47.25154" lon="6.09017">
        <ele>535.59</ele>
        <time>2022-04-15T15:08:47Z</time>
      </trkpt>
      <trkpt lat="47.25153" lon="6.09006">
        <ele>535.59</ele>
        <time>2022-04-15T15:08:48Z</time>
      </trkpt>
      <trkpt lat="47.25151" lon="6.08996">
        <ele>536.07</ele>
        <time>2022-04-15T15:08:49Z</time>
      </trkpt>
      <trkpt lat="47.25148" lon="6.08988">
        <ele>536.55</ele>
        <time>2022-04-15T15:08:50Z</time>
      </trkpt>
      <trkpt lat="47.25147" lon="6.0898">
        <ele>537.03</ele>
        <time>2022-04-15T15:08:51Z</time>
      </trkpt>
      <trkpt lat="47.25147" lon="6.08973">
        <ele>537.03</ele>
        <time>2022-04-15T15:08:52Z</time>
      </trkpt>
      <trkpt lat="47.25148" lon="6.08959">
        <ele>537.51</ele>
        <time>2022-04-15T15:08:54Z</time>
      </trkpt>
      <trkpt lat="47.25149" lon="6.08952">
        <ele>537.03</ele>
        <time>2022-04-15T15:08:55Z</time>
      </trkpt>
      <trkpt lat="47.2515" lon="6.08923">
        <ele>536.55</ele>
        <time>2022-04-15T15:08:59Z</time>
      </trkpt>
      <trkpt lat="47.2515" lon="6.08893">
        <ele>535.59</ele>
        <time>2022-04-15T15:09:03Z</time>
      </trkpt>
      <trkpt lat="47.25152" lon="6.08846">
        <ele>531.75</ele>
        <time>2022-04-15T15:09:08Z</time>
      </trkpt>
      <trkpt lat="47.25155" lon="6.08785">
        <ele>528.86</ele>
        <time>2022-04-15T15:09:13Z</time>
      </trkpt>
      <trkpt lat="47.25155" lon="6.08772">
        <ele>528.38</ele>
        <time>2022-04-15T15:09:14Z</time>
      </trkpt>
      <trkpt lat="47.25154" lon="6.08759">
        <ele>527.42</ele>
        <time>2022-04-15T15:09:15Z</time>
      </trkpt>
      <trkpt lat="47.25153" lon="6.08747">
        <ele>527.42</ele>
        <time>2022-04-15T15:09:16Z</time>
      </trkpt>
      <trkpt lat="47.25147" lon="6.08711">
        <ele>525.98</ele>
        <time>2022-04-15T15:09:19Z</time>
      </trkpt>
      <trkpt lat="47.25145" lon="6.08699">
        <ele>525.5</ele>
        <time>2022-04-15T15:09:20Z</time>
      </trkpt>
      <trkpt lat="47.25143" lon="6.08687">
        <ele>524.06</ele>
        <time>2022-04-15T15:09:21Z</time>
      </trkpt>
      <trkpt lat="47.25143" lon="6.08674">
        <ele>523.58</ele>
        <time>2022-04-15T15:09:22Z</time>
      </trkpt>
      <trkpt lat="47.25143" lon="6.08661">
        <ele>522.13</ele>
        <time>2022-04-15T15:09:23Z</time>
      </trkpt>
      <trkpt lat="47.25143" lon="6.08647">
        <ele>520.69</ele>
        <time>2022-04-15T15:09:24Z</time>
      </trkpt>
      <trkpt lat="47.25143" lon="6.08633">
        <ele>519.73</ele>
        <time>2022-04-15T15:09:25Z</time>
      </trkpt>
      <trkpt lat="47.25142" lon="6.08621">
        <ele>518.29</ele>
        <time>2022-04-15T15:09:26Z</time>
      </trkpt>
      <trkpt lat="47.2514" lon="6.0861">
        <ele>517.33</ele>
        <time>2022-04-15T15:09:27Z</time>
      </trkpt>
      <trkpt lat="47.25139" lon="6.08604">
        <ele>516.85</ele>
        <time>2022-04-15T15:09:28Z</time>
      </trkpt>
      <trkpt lat="47.25138" lon="6.086">
        <ele>516.37</ele>
        <time>2022-04-15T15:09:29Z</time>
      </trkpt>
      <trkpt lat="47.25139" lon="6.08594">
        <ele>516.85</ele>
        <time>2022-04-15T15:09:40Z</time>
      </trkpt>
      <trkpt lat="47.25139" lon="6.0859">
        <ele>515.88</ele>
        <time>2022-04-15T15:09:53Z</time>
      </trkpt>
      <trkpt lat="47.25136" lon="6.08567">
        <ele>513.96</ele>
        <time>2022-04-15T15:10:06Z</time>
      </trkpt>
      <trkpt lat="47.25133" lon="6.08553">
        <ele>513.48</ele>
        <time>2022-04-15T15:10:08Z</time>
      </trkpt>
      <trkpt lat="47.2513" lon="6.08545">
        <ele>513</ele>
        <time>2022-04-15T15:10:09Z</time>
      </trkpt>
      <trkpt lat="47.25109" lon="6.08501">
        <ele>512.04</ele>
        <time>2022-04-15T15:10:15Z</time>
      </trkpt>
      <trkpt lat="47.25104" lon="6.08497">
        <ele>512.04</ele>
        <time>2022-04-15T15:10:16Z</time>
      </trkpt>
      <trkpt lat="47.251" lon="6.08496">
        <ele>512.04</ele>
        <time>2022-04-15T15:10:17Z</time>
      </trkpt>
      <trkpt lat="47.25096" lon="6.08498">
        <ele>511.56</ele>
        <time>2022-04-15T15:10:18Z</time>
      </trkpt>
      <trkpt lat="47.25092" lon="6.08502">
        <ele>510.12</ele>
        <time>2022-04-15T15:10:19Z</time>
      </trkpt>
      <trkpt lat="47.25087" lon="6.08506">
        <ele>509.16</ele>
        <time>2022-04-15T15:10:20Z</time>
      </trkpt>
      <trkpt lat="47.25073" lon="6.08522">
        <ele>505.79</ele>
        <time>2022-04-15T15:10:23Z</time>
      </trkpt>
      <trkpt lat="47.25064" lon="6.08531">
        <ele>504.35</ele>
        <time>2022-04-15T15:10:25Z</time>
      </trkpt>
      <trkpt lat="47.25059" lon="6.08535">
        <ele>503.39</ele>
        <time>2022-04-15T15:10:26Z</time>
      </trkpt>
      <trkpt lat="47.25034" lon="6.08556">
        <ele>500.5</ele>
        <time>2022-04-15T15:10:32Z</time>
      </trkpt>
      <trkpt lat="47.25029" lon="6.08559">
        <ele>500.02</ele>
        <time>2022-04-15T15:10:33Z</time>
      </trkpt>
      <trkpt lat="47.25025" lon="6.08562">
        <ele>500.02</ele>
        <time>2022-04-15T15:10:34Z</time>
      </trkpt>
      <trkpt lat="47.25023" lon="6.08564">
        <ele>500.02</ele>
        <time>2022-04-15T15:10:35Z</time>
      </trkpt>
      <trkpt lat="47.25021" lon="6.08566">
        <ele>499.54</ele>
        <time>2022-04-15T15:10:36Z</time>
      </trkpt>
      <trkpt lat="47.2501" lon="6.08574">
        <ele>497.62</ele>
        <time>2022-04-15T15:10:41Z</time>
      </trkpt>
      <trkpt lat="47.25007" lon="6.08575">
        <ele>497.62</ele>
        <time>2022-04-15T15:10:42Z</time>
      </trkpt>
      <trkpt lat="47.25004" lon="6.08577">
        <ele>497.14</ele>
        <time>2022-04-15T15:10:43Z</time>
      </trkpt>
      <trkpt lat="47.25003" lon="6.08578">
        <ele>497.14</ele>
        <time>2022-04-15T15:10:44Z</time>
      </trkpt>
      <trkpt lat="47.24999" lon="6.0858">
        <ele>497.14</ele>
        <time>2022-04-15T15:10:46Z</time>
      </trkpt>
      <trkpt lat="47.2499" lon="6.08584">
        <ele>495.7</ele>
        <time>2022-04-15T15:10:52Z</time>
      </trkpt>
      <trkpt lat="47.24971" lon="6.0859">
        <ele>492.81</ele>
        <time>2022-04-15T15:10:59Z</time>
      </trkpt>
      <trkpt lat="47.2496" lon="6.08596">
        <ele>491.85</ele>
        <time>2022-04-15T15:11:01Z</time>
      </trkpt>
      <trkpt lat="47.24954" lon="6.08598">
        <ele>491.85</ele>
        <time>2022-04-15T15:11:02Z</time>
      </trkpt>
      <trkpt lat="47.24949" lon="6.086">
        <ele>491.85</ele>
        <time>2022-04-15T15:11:03Z</time>
      </trkpt>
      <trkpt lat="47.24912" lon="6.08597">
        <ele>490.41</ele>
        <time>2022-04-15T15:11:12Z</time>
      </trkpt>
      <trkpt lat="47.24893" lon="6.08589">
        <ele>489.93</ele>
        <time>2022-04-15T15:11:17Z</time>
      </trkpt>
      <trkpt lat="47.24873" lon="6.08585">
        <ele>489.45</ele>
        <time>2022-04-15T15:11:21Z</time>
      </trkpt>
      <trkpt lat="47.24868" lon="6.08583">
        <ele>488.97</ele>
        <time>2022-04-15T15:11:22Z</time>
      </trkpt>
      <trkpt lat="47.24864" lon="6.08579">
        <ele>488.97</ele>
        <time>2022-04-15T15:11:23Z</time>
      </trkpt>
      <trkpt lat="47.24861" lon="6.08574">
        <ele>489.45</ele>
        <time>2022-04-15T15:11:24Z</time>
      </trkpt>
      <trkpt lat="47.24858" lon="6.08569">
        <ele>489.45</ele>
        <time>2022-04-15T15:11:25Z</time>
      </trkpt>
      <trkpt lat="47.24855" lon="6.08565">
        <ele>488.97</ele>
        <time>2022-04-15T15:11:26Z</time>
      </trkpt>
      <trkpt lat="47.24853" lon="6.0856">
        <ele>488.97</ele>
        <time>2022-04-15T15:11:27Z</time>
      </trkpt>
      <trkpt lat="47.2485" lon="6.08556">
        <ele>488.01</ele>
        <time>2022-04-15T15:11:28Z</time>
      </trkpt>
      <trkpt lat="47.24846" lon="6.08552">
        <ele>487.05</ele>
        <time>2022-04-15T15:11:29Z</time>
      </trkpt>
      <trkpt lat="47.24842" lon="6.08548">
        <ele>486.56</ele>
        <time>2022-04-15T15:11:30Z</time>
      </trkpt>
      <trkpt lat="47.24837" lon="6.08545">
        <ele>485.6</ele>
        <time>2022-04-15T15:11:31Z</time>
      </trkpt>
      <trkpt lat="47.24833" lon="6.08543">
        <ele>484.16</ele>
        <time>2022-04-15T15:11:32Z</time>
      </trkpt>
      <trkpt lat="47.24829" lon="6.08541">
        <ele>483.2</ele>
        <time>2022-04-15T15:11:33Z</time>
      </trkpt>
      <trkpt lat="47.24815" lon="6.08535">
        <ele>481.76</ele>
        <time>2022-04-15T15:11:36Z</time>
      </trkpt>
      <trkpt lat="47.2481" lon="6.08532">
        <ele>481.28</ele>
        <time>2022-04-15T15:11:37Z</time>
      </trkpt>
      <trkpt lat="47.248" lon="6.08524">
        <ele>481.28</ele>
        <time>2022-04-15T15:11:39Z</time>
      </trkpt>
      <trkpt lat="47.2477" lon="6.085">
        <ele>479.84</ele>
        <time>2022-04-15T15:11:45Z</time>
      </trkpt>
      <trkpt lat="47.24743" lon="6.08481">
        <ele>477.91</ele>
        <time>2022-04-15T15:11:50Z</time>
      </trkpt>
      <trkpt lat="47.24739" lon="6.08474">
        <ele>477.43</ele>
        <time>2022-04-15T15:11:51Z</time>
      </trkpt>
      <trkpt lat="47.24737" lon="6.08467">
        <ele>476.95</ele>
        <time>2022-04-15T15:11:52Z</time>
      </trkpt>
      <trkpt lat="47.24734" lon="6.0846">
        <ele>475.99</ele>
        <time>2022-04-15T15:11:53Z</time>
      </trkpt>
      <trkpt lat="47.24729" lon="6.08453">
        <ele>475.03</ele>
        <time>2022-04-15T15:11:54Z</time>
      </trkpt>
      <trkpt lat="47.24725" lon="6.08446">
        <ele>474.55</ele>
        <time>2022-04-15T15:11:55Z</time>
      </trkpt>
      <trkpt lat="47.24722" lon="6.08438">
        <ele>473.59</ele>
        <time>2022-04-15T15:11:56Z</time>
      </trkpt>
      <trkpt lat="47.24718" lon="6.08432">
        <ele>472.14</ele>
        <time>2022-04-15T15:11:57Z</time>
      </trkpt>
      <trkpt lat="47.24705" lon="6.08405">
        <ele>468.78</ele>
        <time>2022-04-15T15:12:01Z</time>
      </trkpt>
      <trkpt lat="47.24703" lon="6.08398">
        <ele>467.82</ele>
        <time>2022-04-15T15:12:02Z</time>
      </trkpt>
      <trkpt lat="47.24698" lon="6.08367">
        <ele>465.9</ele>
        <time>2022-04-15T15:12:05Z</time>
      </trkpt>
      <trkpt lat="47.24696" lon="6.08354">
        <ele>464.93</ele>
        <time>2022-04-15T15:12:06Z</time>
      </trkpt>
      <trkpt lat="47.24696" lon="6.08342">
        <ele>464.45</ele>
        <time>2022-04-15T15:12:07Z</time>
      </trkpt>
      <trkpt lat="47.24693" lon="6.08294">
        <ele>463.97</ele>
        <time>2022-04-15T15:12:11Z</time>
      </trkpt>
      <trkpt lat="47.2469" lon="6.08254">
        <ele>462.05</ele>
        <time>2022-04-15T15:12:15Z</time>
      </trkpt>
      <trkpt lat="47.24687" lon="6.08236">
        <ele>460.13</ele>
        <time>2022-04-15T15:12:17Z</time>
      </trkpt>
      <trkpt lat="47.24676" lon="6.08203">
        <ele>456.76</ele>
        <time>2022-04-15T15:12:20Z</time>
      </trkpt>
      <trkpt lat="47.24661" lon="6.08157">
        <ele>455.32</ele>
        <time>2022-04-15T15:12:24Z</time>
      </trkpt>
      <trkpt lat="47.24652" lon="6.08124">
        <ele>454.84</ele>
        <time>2022-04-15T15:12:27Z</time>
      </trkpt>
      <trkpt lat="47.24649" lon="6.08114">
        <ele>454.84</ele>
        <time>2022-04-15T15:12:28Z</time>
      </trkpt>
      <trkpt lat="47.24625" lon="6.08049">
        <ele>453.4</ele>
        <time>2022-04-15T15:12:35Z</time>
      </trkpt>
      <trkpt lat="47.24612" lon="6.0801">
        <ele>452.44</ele>
        <time>2022-04-15T15:12:39Z</time>
      </trkpt>
      <trkpt lat="47.24611" lon="6.08002">
        <ele>452.44</ele>
        <time>2022-04-15T15:12:40Z</time>
      </trkpt>
      <trkpt lat="47.2461" lon="6.07985">
        <ele>452.92</ele>
        <time>2022-04-15T15:12:43Z</time>
      </trkpt>
      <trkpt lat="47.24612" lon="6.07984">
        <ele>452.92</ele>
        <time>2022-04-15T15:12:45Z</time>
      </trkpt>
      <trkpt lat="47.24614" lon="6.07986">
        <ele>452.92</ele>
        <time>2022-04-15T15:12:46Z</time>
      </trkpt>
      <trkpt lat="47.24636" lon="6.08007">
        <ele>451.48</ele>
        <time>2022-04-15T15:13:01Z</time>
      </trkpt>
      <trkpt lat="47.24658" lon="6.08029">
        <ele>448.11</ele>
        <time>2022-04-15T15:13:12Z</time>
      </trkpt>
      <trkpt lat="47.24679" lon="6.08046">
        <ele>444.75</ele>
        <time>2022-04-15T15:13:18Z</time>
      </trkpt>
      <trkpt lat="47.247" lon="6.08065">
        <ele>441.38</ele>
        <time>2022-04-15T15:13:24Z</time>
      </trkpt>
      <trkpt lat="47.24712" lon="6.08075">
        <ele>439.46</ele>
        <time>2022-04-15T15:13:28Z</time>
      </trkpt>
      <trkpt lat="47.2472" lon="6.0808">
        <ele>438.02</ele>
        <time>2022-04-15T15:13:30Z</time>
      </trkpt>
      <trkpt lat="47.24737" lon="6.08095">
        <ele>435.13</ele>
        <time>2022-04-15T15:13:35Z</time>
      </trkpt>
      <trkpt lat="47.24741" lon="6.08098">
        <ele>433.69</ele>
        <time>2022-04-15T15:13:36Z</time>
      </trkpt>
      <trkpt lat="47.24753" lon="6.08111">
        <ele>431.77</ele>
        <time>2022-04-15T15:13:39Z</time>
      </trkpt>
      <trkpt lat="47.24757" lon="6.08116">
        <ele>431.29</ele>
        <time>2022-04-15T15:13:40Z</time>
      </trkpt>
      <trkpt lat="47.24758" lon="6.0812">
        <ele>430.33</ele>
        <time>2022-04-15T15:13:41Z</time>
      </trkpt>
      <trkpt lat="47.2476" lon="6.08122">
        <ele>430.33</ele>
        <time>2022-04-15T15:13:42Z</time>
      </trkpt>
      <trkpt lat="47.24761" lon="6.08125">
        <ele>429.37</ele>
        <time>2022-04-15T15:13:43Z</time>
      </trkpt>
      <trkpt lat="47.24762" lon="6.08127">
        <ele>428.89</ele>
        <time>2022-04-15T15:13:44Z</time>
      </trkpt>
      <trkpt lat="47.24767" lon="6.08132">
        <ele>426.96</ele>
        <time>2022-04-15T15:13:49Z</time>
      </trkpt>
      <trkpt lat="47.24768" lon="6.08133">
        <ele>426.48</ele>
        <time>2022-04-15T15:13:50Z</time>
      </trkpt>
      <trkpt lat="47.24769" lon="6.08134">
        <ele>426</ele>
        <time>2022-04-15T15:13:51Z</time>
      </trkpt>
      <trkpt lat="47.24771" lon="6.08135">
        <ele>425.52</ele>
        <time>2022-04-15T15:13:52Z</time>
      </trkpt>
      <trkpt lat="47.24773" lon="6.08136">
        <ele>425.04</ele>
        <time>2022-04-15T15:13:53Z</time>
      </trkpt>
      <trkpt lat="47.24775" lon="6.08137">
        <ele>424.56</ele>
        <time>2022-04-15T15:13:54Z</time>
      </trkpt>
      <trkpt lat="47.24777" lon="6.08138">
        <ele>424.08</ele>
        <time>2022-04-15T15:13:55Z</time>
      </trkpt>
      <trkpt lat="47.24779" lon="6.08139">
        <ele>423.6</ele>
        <time>2022-04-15T15:13:56Z</time>
      </trkpt>
      <trkpt lat="47.24793" lon="6.08154">
        <ele>420.71</ele>
        <time>2022-04-15T15:14:05Z</time>
      </trkpt>
      <trkpt lat="47.24794" lon="6.08156">
        <ele>420.23</ele>
        <time>2022-04-15T15:14:06Z</time>
      </trkpt>
      <trkpt lat="47.24796" lon="6.08157">
        <ele>419.75</ele>
        <time>2022-04-15T15:14:07Z</time>
      </trkpt>
      <trkpt lat="47.24797" lon="6.0816">
        <ele>419.27</ele>
        <time>2022-04-15T15:14:08Z</time>
      </trkpt>
      <trkpt lat="47.24798" lon="6.08162">
        <ele>419.27</ele>
        <time>2022-04-15T15:14:09Z</time>
      </trkpt>
      <trkpt lat="47.24802" lon="6.08163">
        <ele>418.31</ele>
        <time>2022-04-15T15:14:12Z</time>
      </trkpt>
      <trkpt lat="47.24803" lon="6.08162">
        <ele>418.31</ele>
        <time>2022-04-15T15:14:13Z</time>
      </trkpt>
      <trkpt lat="47.24804" lon="6.08161">
        <ele>417.83</ele>
        <time>2022-04-15T15:14:14Z</time>
      </trkpt>
      <trkpt lat="47.2481" lon="6.08155">
        <ele>416.87</ele>
        <time>2022-04-15T15:14:19Z</time>
      </trkpt>
      <trkpt lat="47.24814" lon="6.08149">
        <ele>415.43</ele>
        <time>2022-04-15T15:14:27Z</time>
      </trkpt>
      <trkpt lat="47.24815" lon="6.08148">
        <ele>415.43</ele>
        <time>2022-04-15T15:14:28Z</time>
      </trkpt>
      <trkpt lat="47.24822" lon="6.08142">
        <ele>412.54</ele>
        <time>2022-04-15T15:14:33Z</time>
      </trkpt>
      <trkpt lat="47.24823" lon="6.0814">
        <ele>412.06</ele>
        <time>2022-04-15T15:14:34Z</time>
      </trkpt>
      <trkpt lat="47.24839" lon="6.08122">
        <ele>410.14</ele>
        <time>2022-04-15T15:14:44Z</time>
      </trkpt>
      <trkpt lat="47.24839" lon="6.08119">
        <ele>409.66</ele>
        <time>2022-04-15T15:14:45Z</time>
      </trkpt>
      <trkpt lat="47.24841" lon="6.08117">
        <ele>409.66</ele>
        <time>2022-04-15T15:14:46Z</time>
      </trkpt>
      <trkpt lat="47.24843" lon="6.08115">
        <ele>409.66</ele>
        <time>2022-04-15T15:14:47Z</time>
      </trkpt>
      <trkpt lat="47.24845" lon="6.08113">
        <ele>409.66</ele>
        <time>2022-04-15T15:14:48Z</time>
      </trkpt>
      <trkpt lat="47.24847" lon="6.08111">
        <ele>409.18</ele>
        <time>2022-04-15T15:14:49Z</time>
      </trkpt>
      <trkpt lat="47.24864" lon="6.0809">
        <ele>406.29</ele>
        <time>2022-04-15T15:14:59Z</time>
      </trkpt>
      <trkpt lat="47.24885" lon="6.08048">
        <ele>404.37</ele>
        <time>2022-04-15T15:15:11Z</time>
      </trkpt>
      <trkpt lat="47.24891" lon="6.08031">
        <ele>403.89</ele>
        <time>2022-04-15T15:15:16Z</time>
      </trkpt>
      <trkpt lat="47.24892" lon="6.0803">
        <ele>403.89</ele>
        <time>2022-04-15T15:15:17Z</time>
      </trkpt>
      <trkpt lat="47.24893" lon="6.08027">
        <ele>403.89</ele>
        <time>2022-04-15T15:15:18Z</time>
      </trkpt>
      <trkpt lat="47.24893" lon="6.08025">
        <ele>403.89</ele>
        <time>2022-04-15T15:15:19Z</time>
      </trkpt>
      <trkpt lat="47.24893" lon="6.08021">
        <ele>403.89</ele>
        <time>2022-04-15T15:15:20Z</time>
      </trkpt>
      <trkpt lat="47.24898" lon="6.08002">
        <ele>403.41</ele>
        <time>2022-04-15T15:15:28Z</time>
      </trkpt>
      <trkpt lat="47.249" lon="6.07986">
        <ele>403.89</ele>
        <time>2022-04-15T15:15:36Z</time>
      </trkpt>
      <trkpt lat="47.24901" lon="6.07983">
        <ele>403.41</ele>
        <time>2022-04-15T15:15:37Z</time>
      </trkpt>
      <trkpt lat="47.24902" lon="6.0798">
        <ele>403.41</ele>
        <time>2022-04-15T15:15:38Z</time>
      </trkpt>
      <trkpt lat="47.24903" lon="6.07976">
        <ele>402.93</ele>
        <time>2022-04-15T15:15:39Z</time>
      </trkpt>
      <trkpt lat="47.24903" lon="6.07973">
        <ele>402.93</ele>
        <time>2022-04-15T15:15:40Z</time>
      </trkpt>
      <trkpt lat="47.24909" lon="6.07953">
        <ele>403.41</ele>
        <time>2022-04-15T15:15:46Z</time>
      </trkpt>
      <trkpt lat="47.24909" lon="6.07951">
        <ele>403.41</ele>
        <time>2022-04-15T15:15:47Z</time>
      </trkpt>
      <trkpt lat="47.24916" lon="6.07934">
        <ele>401.49</ele>
        <time>2022-04-15T15:15:54Z</time>
      </trkpt>
      <trkpt lat="47.24916" lon="6.07928">
        <ele>401.01</ele>
        <time>2022-04-15T15:15:55Z</time>
      </trkpt>
      <trkpt lat="47.24915" lon="6.07923">
        <ele>400.05</ele>
        <time>2022-04-15T15:15:56Z</time>
      </trkpt>
      <trkpt lat="47.24915" lon="6.07918">
        <ele>399.08</ele>
        <time>2022-04-15T15:15:57Z</time>
      </trkpt>
      <trkpt lat="47.24913" lon="6.07914">
        <ele>398.12</ele>
        <time>2022-04-15T15:15:58Z</time>
      </trkpt>
      <trkpt lat="47.24911" lon="6.07907">
        <ele>397.64</ele>
        <time>2022-04-15T15:15:59Z</time>
      </trkpt>
      <trkpt lat="47.24909" lon="6.07901">
        <ele>396.68</ele>
        <time>2022-04-15T15:16:00Z</time>
      </trkpt>
      <trkpt lat="47.24906" lon="6.07889">
        <ele>394.76</ele>
        <time>2022-04-15T15:16:02Z</time>
      </trkpt>
      <trkpt lat="47.24904" lon="6.07883">
        <ele>393.8</ele>
        <time>2022-04-15T15:16:03Z</time>
      </trkpt>
      <trkpt lat="47.24902" lon="6.07878">
        <ele>392.84</ele>
        <time>2022-04-15T15:16:04Z</time>
      </trkpt>
      <trkpt lat="47.24899" lon="6.07871">
        <ele>390.43</ele>
        <time>2022-04-15T15:16:05Z</time>
      </trkpt>
      <trkpt lat="47.24896" lon="6.07864">
        <ele>388.99</ele>
        <time>2022-04-15T15:16:06Z</time>
      </trkpt>
      <trkpt lat="47.24893" lon="6.07858">
        <ele>388.03</ele>
        <time>2022-04-15T15:16:07Z</time>
      </trkpt>
      <trkpt lat="47.24888" lon="6.07847">
        <ele>386.11</ele>
        <time>2022-04-15T15:16:09Z</time>
      </trkpt>
      <trkpt lat="47.24886" lon="6.07841">
        <ele>385.15</ele>
        <time>2022-04-15T15:16:10Z</time>
      </trkpt>
      <trkpt lat="47.2488" lon="6.0783">
        <ele>383.7</ele>
        <time>2022-04-15T15:16:12Z</time>
      </trkpt>
      <trkpt lat="47.24873" lon="6.0781">
        <ele>379.86</ele>
        <time>2022-04-15T15:16:16Z</time>
      </trkpt>
      <trkpt lat="47.24868" lon="6.07799">
        <ele>377.94</ele>
        <time>2022-04-15T15:16:18Z</time>
      </trkpt>
      <trkpt lat="47.24857" lon="6.07775">
        <ele>374.09</ele>
        <time>2022-04-15T15:16:22Z</time>
      </trkpt>
      <trkpt lat="47.24849" lon="6.07759">
        <ele>371.21</ele>
        <time>2022-04-15T15:16:25Z</time>
      </trkpt>
      <trkpt lat="47.24846" lon="6.07754">
        <ele>370.24</ele>
        <time>2022-04-15T15:16:26Z</time>
      </trkpt>
      <trkpt lat="47.24844" lon="6.07749">
        <ele>369.76</ele>
        <time>2022-04-15T15:16:27Z</time>
      </trkpt>
      <trkpt lat="47.24834" lon="6.07728">
        <ele>365.92</ele>
        <time>2022-04-15T15:16:30Z</time>
      </trkpt>
      <trkpt lat="47.24824" lon="6.07707">
        <ele>362.55</ele>
        <time>2022-04-15T15:16:33Z</time>
      </trkpt>
      <trkpt lat="47.24811" lon="6.07685">
        <ele>359.19</ele>
        <time>2022-04-15T15:16:36Z</time>
      </trkpt>
      <trkpt lat="47.24798" lon="6.07661">
        <ele>355.83</ele>
        <time>2022-04-15T15:16:39Z</time>
      </trkpt>
      <trkpt lat="47.24785" lon="6.07636">
        <ele>351.98</ele>
        <time>2022-04-15T15:16:42Z</time>
      </trkpt>
      <trkpt lat="47.24776" lon="6.0762">
        <ele>348.62</ele>
        <time>2022-04-15T15:16:44Z</time>
      </trkpt>
      <trkpt lat="47.24769" lon="6.07603">
        <ele>345.73</ele>
        <time>2022-04-15T15:16:46Z</time>
      </trkpt>
      <trkpt lat="47.24763" lon="6.07589">
        <ele>341.89</ele>
        <time>2022-04-15T15:16:48Z</time>
      </trkpt>
      <trkpt lat="47.2476" lon="6.07583">
        <ele>340.44</ele>
        <time>2022-04-15T15:16:49Z</time>
      </trkpt>
      <trkpt lat="47.24752" lon="6.07567">
        <ele>337.56</ele>
        <time>2022-04-15T15:16:51Z</time>
      </trkpt>
      <trkpt lat="47.24748" lon="6.07559">
        <ele>335.64</ele>
        <time>2022-04-15T15:16:52Z</time>
      </trkpt>
      <trkpt lat="47.2474" lon="6.07543">
        <ele>332.75</ele>
        <time>2022-04-15T15:16:54Z</time>
      </trkpt>
      <trkpt lat="47.24729" lon="6.07523">
        <ele>328.91</ele>
        <time>2022-04-15T15:16:57Z</time>
      </trkpt>
      <trkpt lat="47.24721" lon="6.07508">
        <ele>324.1</ele>
        <time>2022-04-15T15:16:59Z</time>
      </trkpt>
      <trkpt lat="47.24712" lon="6.07492">
        <ele>322.18</ele>
        <time>2022-04-15T15:17:01Z</time>
      </trkpt>
      <trkpt lat="47.24698" lon="6.07469">
        <ele>317.85</ele>
        <time>2022-04-15T15:17:04Z</time>
      </trkpt>
      <trkpt lat="47.24685" lon="6.07449">
        <ele>314.49</ele>
        <time>2022-04-15T15:17:07Z</time>
      </trkpt>
      <trkpt lat="47.24681" lon="6.07443">
        <ele>313.53</ele>
        <time>2022-04-15T15:17:08Z</time>
      </trkpt>
      <trkpt lat="47.24674" lon="6.07432">
        <ele>310.64</ele>
        <time>2022-04-15T15:17:10Z</time>
      </trkpt>
      <trkpt lat="47.2467" lon="6.07426">
        <ele>309.68</ele>
        <time>2022-04-15T15:17:11Z</time>
      </trkpt>
      <trkpt lat="47.24666" lon="6.0742">
        <ele>308.24</ele>
        <time>2022-04-15T15:17:12Z</time>
      </trkpt>
      <trkpt lat="47.24661" lon="6.07414">
        <ele>306.32</ele>
        <time>2022-04-15T15:17:13Z</time>
      </trkpt>
      <trkpt lat="47.24657" lon="6.07408">
        <ele>304.39</ele>
        <time>2022-04-15T15:17:14Z</time>
      </trkpt>
      <trkpt lat="47.24653" lon="6.07403">
        <ele>302.47</ele>
        <time>2022-04-15T15:17:15Z</time>
      </trkpt>
      <trkpt lat="47.24651" lon="6.07398">
        <ele>301.51</ele>
        <time>2022-04-15T15:17:16Z</time>
      </trkpt>
      <trkpt lat="47.24647" lon="6.07392">
        <ele>300.07</ele>
        <time>2022-04-15T15:17:17Z</time>
      </trkpt>
      <trkpt lat="47.24644" lon="6.07387">
        <ele>298.63</ele>
        <time>2022-04-15T15:17:18Z</time>
      </trkpt>
      <trkpt lat="47.24637" lon="6.07374">
        <ele>296.7</ele>
        <time>2022-04-15T15:17:20Z</time>
      </trkpt>
      <trkpt lat="47.24629" lon="6.0736">
        <ele>293.34</ele>
        <time>2022-04-15T15:17:23Z</time>
      </trkpt>
      <trkpt lat="47.24618" lon="6.07339">
        <ele>289.49</ele>
        <time>2022-04-15T15:17:27Z</time>
      </trkpt>
      <trkpt lat="47.2461" lon="6.0733">
        <ele>288.05</ele>
        <time>2022-04-15T15:17:29Z</time>
      </trkpt>
      <trkpt lat="47.24605" lon="6.07325">
        <ele>287.57</ele>
        <time>2022-04-15T15:17:30Z</time>
      </trkpt>
      <trkpt lat="47.24601" lon="6.07322">
        <ele>286.61</ele>
        <time>2022-04-15T15:17:31Z</time>
      </trkpt>
      <trkpt lat="47.24597" lon="6.07319">
        <ele>285.65</ele>
        <time>2022-04-15T15:17:32Z</time>
      </trkpt>
      <trkpt lat="47.24594" lon="6.07317">
        <ele>284.69</ele>
        <time>2022-04-15T15:17:33Z</time>
      </trkpt>
      <trkpt lat="47.24589" lon="6.07316">
        <ele>284.21</ele>
        <time>2022-04-15T15:17:34Z</time>
      </trkpt>
      <trkpt lat="47.24576" lon="6.07308">
        <ele>282.28</ele>
        <time>2022-04-15T15:17:37Z</time>
      </trkpt>
      <trkpt lat="47.24573" lon="6.07305">
        <ele>281.8</ele>
        <time>2022-04-15T15:17:38Z</time>
      </trkpt>
      <trkpt lat="47.24561" lon="6.07283">
        <ele>278.44</ele>
        <time>2022-04-15T15:17:44Z</time>
      </trkpt>
      <trkpt lat="47.24556" lon="6.07266">
        <ele>276.52</ele>
        <time>2022-04-15T15:17:47Z</time>
      </trkpt>
      <trkpt lat="47.24554" lon="6.07226">
        <ele>276.04</ele>
        <time>2022-04-15T15:17:58Z</time>
      </trkpt>
      <trkpt lat="47.24553" lon="6.07218">
        <ele>275.56</ele>
        <time>2022-04-15T15:18:00Z</time>
      </trkpt>
      <trkpt lat="47.24552" lon="6.07202">
        <ele>275.56</ele>
        <time>2022-04-15T15:18:13Z</time>
      </trkpt>
      <trkpt lat="47.24552" lon="6.07201">
        <ele>276.04</ele>
        <time>2022-04-15T15:18:15Z</time>
      </trkpt>
      <trkpt lat="47.24551" lon="6.07199">
        <ele>275.56</ele>
        <time>2022-04-15T15:18:16Z</time>
      </trkpt>
      <trkpt lat="47.24537" lon="6.07164">
        <ele>272.67</ele>
        <time>2022-04-15T15:18:25Z</time>
      </trkpt>
      <trkpt lat="47.2453" lon="6.07141">
        <ele>269.79</ele>
        <time>2022-04-15T15:18:29Z</time>
      </trkpt>
      <trkpt lat="47.24523" lon="6.07122">
        <ele>266.42</ele>
        <time>2022-04-15T15:18:32Z</time>
      </trkpt>
      <trkpt lat="47.24516" lon="6.07098">
        <ele>262.1</ele>
        <time>2022-04-15T15:18:35Z</time>
      </trkpt>
      <trkpt lat="47.24508" lon="6.07069">
        <ele>259.21</ele>
        <time>2022-04-15T15:18:39Z</time>
      </trkpt>
      <trkpt lat="47.24502" lon="6.07055">
        <ele>258.25</ele>
        <time>2022-04-15T15:18:41Z</time>
      </trkpt>
      <trkpt lat="47.24491" lon="6.07033">
        <ele>256.81</ele>
        <time>2022-04-15T15:18:47Z</time>
      </trkpt>
      <trkpt lat="47.24442" lon="6.06988">
        <ele>255.85</ele>
        <time>2022-04-15T15:19:00Z</time>
      </trkpt>
      <trkpt lat="47.24399" lon="6.06942">
        <ele>254.89</ele>
        <time>2022-04-15T15:19:10Z</time>
      </trkpt>
      <trkpt lat="47.24395" lon="6.06937">
        <ele>254.41</ele>
        <time>2022-04-15T15:19:11Z</time>
      </trkpt>
      <trkpt lat="47.24341" lon="6.06871">
        <ele>253.44</ele>
        <time>2022-04-15T15:19:23Z</time>
      </trkpt>
      <trkpt lat="47.24328" lon="6.06852">
        <ele>253.44</ele>
        <time>2022-04-15T15:19:26Z</time>
      </trkpt>
      <trkpt lat="47.24323" lon="6.06846">
        <ele>253.44</ele>
        <time>2022-04-15T15:19:27Z</time>
      </trkpt>
      <trkpt lat="47.24245" lon="6.06767">
        <ele>253.44</ele>
        <time>2022-04-15T15:19:44Z</time>
      </trkpt>
      <trkpt lat="47.24177" lon="6.06693">
        <ele>252.48</ele>
        <time>2022-04-15T15:19:59Z</time>
      </trkpt>
      <trkpt lat="47.24172" lon="6.06688">
        <ele>252.48</ele>
        <time>2022-04-15T15:20:00Z</time>
      </trkpt>
      <trkpt lat="47.24101" lon="6.06609">
        <ele>252</ele>
        <time>2022-04-15T15:20:16Z</time>
      </trkpt>
      <trkpt lat="47.24028" lon="6.06523">
        <ele>252</ele>
        <time>2022-04-15T15:20:33Z</time>
      </trkpt>
      <trkpt lat="47.23972" lon="6.06463">
        <ele>252.48</ele>
        <time>2022-04-15T15:20:46Z</time>
      </trkpt>
      <trkpt lat="47.23912" lon="6.0638">
        <ele>252</ele>
        <time>2022-04-15T15:21:01Z</time>
      </trkpt>
      <trkpt lat="47.23855" lon="6.06305">
        <ele>252.48</ele>
        <time>2022-04-15T15:21:16Z</time>
      </trkpt>
      <trkpt lat="47.23814" lon="6.06261">
        <ele>252</ele>
        <time>2022-04-15T15:21:26Z</time>
      </trkpt>
      <trkpt lat="47.23735" lon="6.06204">
        <ele>251.52</ele>
        <time>2022-04-15T15:21:42Z</time>
      </trkpt>
      <trkpt lat="47.23649" lon="6.06159">
        <ele>251.04</ele>
        <time>2022-04-15T15:21:59Z</time>
      </trkpt>
      <trkpt lat="47.23562" lon="6.06132">
        <ele>251.52</ele>
        <time>2022-04-15T15:22:16Z</time>
      </trkpt>
      <trkpt lat="47.23553" lon="6.06129">
        <ele>251.52</ele>
        <time>2022-04-15T15:22:18Z</time>
      </trkpt>
      <trkpt lat="47.23535" lon="6.06124">
        <ele>251.52</ele>
        <time>2022-04-15T15:22:22Z</time>
      </trkpt>
      <trkpt lat="47.23446" lon="6.06103">
        <ele>251.04</ele>
        <time>2022-04-15T15:22:39Z</time>
      </trkpt>
      <trkpt lat="47.23347" lon="6.06069">
        <ele>251.04</ele>
        <time>2022-04-15T15:22:59Z</time>
      </trkpt>
      <trkpt lat="47.23274" lon="6.06004">
        <ele>251.04</ele>
        <time>2022-04-15T15:23:16Z</time>
      </trkpt>
      <trkpt lat="47.23237" lon="6.05965">
        <ele>251.04</ele>
        <time>2022-04-15T15:23:25Z</time>
      </trkpt>
      <trkpt lat="47.23208" lon="6.05937">
        <ele>251.04</ele>
        <time>2022-04-15T15:23:32Z</time>
      </trkpt>
      <trkpt lat="47.23138" lon="6.05878">
        <ele>250.56</ele>
        <time>2022-04-15T15:23:48Z</time>
      </trkpt>
      <trkpt lat="47.23084" lon="6.05832">
        <ele>252</ele>
        <time>2022-04-15T15:24:02Z</time>
      </trkpt>
      <trkpt lat="47.23076" lon="6.05825">
        <ele>252</ele>
        <time>2022-04-15T15:24:05Z</time>
      </trkpt>
      <trkpt lat="47.23076" lon="6.05823">
        <ele>252</ele>
        <time>2022-04-15T15:24:06Z</time>
      </trkpt>
      <trkpt lat="47.23076" lon="6.0582">
        <ele>252</ele>
        <time>2022-04-15T15:24:07Z</time>
      </trkpt>
      <trkpt lat="47.23074" lon="6.05817">
        <ele>252.48</ele>
        <time>2022-04-15T15:24:08Z</time>
      </trkpt>
      <trkpt lat="47.23071" lon="6.05816">
        <ele>252.48</ele>
        <time>2022-04-15T15:24:09Z</time>
      </trkpt>
      <trkpt lat="47.23062" lon="6.05807">
        <ele>252.96</ele>
        <time>2022-04-15T15:24:13Z</time>
      </trkpt>
      <trkpt lat="47.23062" lon="6.05803">
        <ele>253.44</ele>
        <time>2022-04-15T15:24:14Z</time>
      </trkpt>
      <trkpt lat="47.23063" lon="6.058">
        <ele>253.44</ele>
        <time>2022-04-15T15:24:15Z</time>
      </trkpt>
      <trkpt lat="47.23064" lon="6.05797">
        <ele>253.44</ele>
        <time>2022-04-15T15:24:16Z</time>
      </trkpt>
      <trkpt lat="47.23065" lon="6.05793">
        <ele>253.44</ele>
        <time>2022-04-15T15:24:17Z</time>
      </trkpt>
      <trkpt lat="47.23067" lon="6.05792">
        <ele>253.44</ele>
        <time>2022-04-15T15:24:18Z</time>
      </trkpt>
      <trkpt lat="47.2307" lon="6.05792">
        <ele>253.44</ele>
        <time>2022-04-15T15:24:19Z</time>
      </trkpt>
      <trkpt lat="47.23072" lon="6.05794">
        <ele>253.44</ele>
        <time>2022-04-15T15:24:20Z</time>
      </trkpt>
      <trkpt lat="47.23075" lon="6.05797">
        <ele>253.44</ele>
        <time>2022-04-15T15:24:21Z</time>
      </trkpt>
      <trkpt lat="47.23077" lon="6.05799">
        <ele>253.93</ele>
        <time>2022-04-15T15:24:22Z</time>
      </trkpt>
      <trkpt lat="47.2308" lon="6.05801">
        <ele>253.93</ele>
        <time>2022-04-15T15:24:23Z</time>
      </trkpt>
      <trkpt lat="47.23082" lon="6.05803">
        <ele>254.41</ele>
        <time>2022-04-15T15:24:24Z</time>
      </trkpt>
      <trkpt lat="47.23107" lon="6.05824">
        <ele>256.33</ele>
        <time>2022-04-15T15:24:36Z</time>
      </trkpt>
      <trkpt lat="47.23108" lon="6.05823">
        <ele>256.81</ele>
        <time>2022-04-15T15:24:37Z</time>
      </trkpt>
      <trkpt lat="47.23109" lon="6.05821">
        <ele>256.81</ele>
        <time>2022-04-15T15:24:38Z</time>
      </trkpt>
      <trkpt lat="47.2311" lon="6.05819">
        <ele>256.81</ele>
        <time>2022-04-15T15:24:39Z</time>
      </trkpt>
      <trkpt lat="47.23111" lon="6.05816">
        <ele>256.81</ele>
        <time>2022-04-15T15:24:40Z</time>
      </trkpt>
      <trkpt lat="47.23137" lon="6.05756">
        <ele>256.33</ele>
        <time>2022-04-15T15:24:54Z</time>
      </trkpt>
      <trkpt lat="47.23155" lon="6.05718">
        <ele>256.33</ele>
        <time>2022-04-15T15:25:03Z</time>
      </trkpt>
      <trkpt lat="47.2314" lon="6.05704">
        <ele>255.37</ele>
        <time>2022-04-15T15:25:10Z</time>
      </trkpt>
      <trkpt lat="47.23099" lon="6.05675">
        <ele>252.48</ele>
        <time>2022-04-15T15:25:20Z</time>
      </trkpt>
      <trkpt lat="47.23095" lon="6.05671">
        <ele>252.48</ele>
        <time>2022-04-15T15:25:21Z</time>
      </trkpt>
      <trkpt lat="47.23092" lon="6.05665">
        <ele>252.48</ele>
        <time>2022-04-15T15:25:22Z</time>
      </trkpt>
      <trkpt lat="47.2309" lon="6.05659">
        <ele>252</ele>
        <time>2022-04-15T15:25:23Z</time>
      </trkpt>
      <trkpt lat="47.23088" lon="6.05652">
        <ele>252</ele>
        <time>2022-04-15T15:25:24Z</time>
      </trkpt>
      <trkpt lat="47.23088" lon="6.05645">
        <ele>252</ele>
        <time>2022-04-15T15:25:25Z</time>
      </trkpt>
      <trkpt lat="47.23088" lon="6.05638">
        <ele>252.48</ele>
        <time>2022-04-15T15:25:26Z</time>
      </trkpt>
      <trkpt lat="47.23088" lon="6.05632">
        <ele>252</ele>
        <time>2022-04-15T15:25:27Z</time>
      </trkpt>
      <trkpt lat="47.23089" lon="6.05609">
        <ele>252</ele>
        <time>2022-04-15T15:25:31Z</time>
      </trkpt>
      <trkpt lat="47.23092" lon="6.05606">
        <ele>252.48</ele>
        <time>2022-04-15T15:25:32Z</time>
      </trkpt>
      <trkpt lat="47.23095" lon="6.05605">
        <ele>252</ele>
        <time>2022-04-15T15:25:33Z</time>
      </trkpt>
      <trkpt lat="47.23099" lon="6.05605">
        <ele>252.48</ele>
        <time>2022-04-15T15:25:34Z</time>
      </trkpt>
      <trkpt lat="47.23103" lon="6.05605">
        <ele>252.48</ele>
        <time>2022-04-15T15:25:35Z</time>
      </trkpt>
      <trkpt lat="47.23107" lon="6.05605">
        <ele>252.48</ele>
        <time>2022-04-15T15:25:36Z</time>
      </trkpt>
      <trkpt lat="47.2311" lon="6.05606">
        <ele>252.48</ele>
        <time>2022-04-15T15:25:37Z</time>
      </trkpt>
      <trkpt lat="47.23133" lon="6.05604">
        <ele>252.48</ele>
        <time>2022-04-15T15:25:45Z</time>
      </trkpt>
      <trkpt lat="47.23135" lon="6.05606">
        <ele>252.48</ele>
        <time>2022-04-15T15:25:46Z</time>
      </trkpt>
      <trkpt lat="47.23138" lon="6.05608">
        <ele>252.48</ele>
        <time>2022-04-15T15:25:47Z</time>
      </trkpt>
      <trkpt lat="47.23173" lon="6.05641">
        <ele>252.48</ele>
        <time>2022-04-15T15:26:00Z</time>
      </trkpt>
      <trkpt lat="47.23191" lon="6.05662">
        <ele>251.52</ele>
        <time>2022-04-15T15:26:06Z</time>
      </trkpt>
      <trkpt lat="47.23197" lon="6.05672">
        <ele>251.52</ele>
        <time>2022-04-15T15:26:08Z</time>
      </trkpt>
      <trkpt lat="47.23215" lon="6.05755">
        <ele>251.52</ele>
        <time>2022-04-15T15:26:23Z</time>
      </trkpt>
      <trkpt lat="47.23221" lon="6.0577">
        <ele>251.52</ele>
        <time>2022-04-15T15:26:26Z</time>
      </trkpt>
      <trkpt lat="47.23224" lon="6.05774">
        <ele>251.52</ele>
        <time>2022-04-15T15:26:27Z</time>
      </trkpt>
      <trkpt lat="47.23227" lon="6.05778">
        <ele>251.52</ele>
        <time>2022-04-15T15:26:28Z</time>
      </trkpt>
      <trkpt lat="47.23234" lon="6.05785">
        <ele>251.52</ele>
        <time>2022-04-15T15:26:30Z</time>
      </trkpt>
      <trkpt lat="47.23237" lon="6.05789">
        <ele>251.52</ele>
        <time>2022-04-15T15:26:31Z</time>
      </trkpt>
      <trkpt lat="47.2324" lon="6.05793">
        <ele>251.52</ele>
        <time>2022-04-15T15:26:32Z</time>
      </trkpt>
      <trkpt lat="47.2329" lon="6.05849">
        <ele>252</ele>
        <time>2022-04-15T15:26:48Z</time>
      </trkpt>
      <trkpt lat="47.23303" lon="6.05864">
        <ele>251.52</ele>
        <time>2022-04-15T15:26:52Z</time>
      </trkpt>
      <trkpt lat="47.2336" lon="6.05906">
        <ele>251.52</ele>
        <time>2022-04-15T15:27:08Z</time>
      </trkpt>
      <trkpt lat="47.23404" lon="6.0593">
        <ele>251.52</ele>
        <time>2022-04-15T15:27:19Z</time>
      </trkpt>
      <trkpt lat="47.2346" lon="6.05944">
        <ele>252</ele>
        <time>2022-04-15T15:27:33Z</time>
      </trkpt>
      <trkpt lat="47.23482" lon="6.05947">
        <ele>251.52</ele>
        <time>2022-04-15T15:27:38Z</time>
      </trkpt>
      <trkpt lat="47.23543" lon="6.05961">
        <ele>251.52</ele>
        <time>2022-04-15T15:27:52Z</time>
      </trkpt>
      <trkpt lat="47.23616" lon="6.05997">
        <ele>251.52</ele>
        <time>2022-04-15T15:28:09Z</time>
      </trkpt>
      <trkpt lat="47.23659" lon="6.06015">
        <ele>251.52</ele>
        <time>2022-04-15T15:28:19Z</time>
      </trkpt>
      <trkpt lat="47.23663" lon="6.06016">
        <ele>251.04</ele>
        <time>2022-04-15T15:28:20Z</time>
      </trkpt>
      <trkpt lat="47.23668" lon="6.06014">
        <ele>251.04</ele>
        <time>2022-04-15T15:28:21Z</time>
      </trkpt>
      <trkpt lat="47.23672" lon="6.06011">
        <ele>251.52</ele>
        <time>2022-04-15T15:28:22Z</time>
      </trkpt>
      <trkpt lat="47.23675" lon="6.06007">
        <ele>251.52</ele>
        <time>2022-04-15T15:28:23Z</time>
      </trkpt>
      <trkpt lat="47.23679" lon="6.06003">
        <ele>251.52</ele>
        <time>2022-04-15T15:28:24Z</time>
      </trkpt>
      <trkpt lat="47.23707" lon="6.05975">
        <ele>253.93</ele>
        <time>2022-04-15T15:28:36Z</time>
      </trkpt>
      <trkpt lat="47.23724" lon="6.05968">
        <ele>256.33</ele>
        <time>2022-04-15T15:28:48Z</time>
      </trkpt>
      <trkpt lat="47.2373" lon="6.05966">
        <ele>257.77</ele>
        <time>2022-04-15T15:28:53Z</time>
      </trkpt>
      <trkpt lat="47.23733" lon="6.05967">
        <ele>258.73</ele>
        <time>2022-04-15T15:28:55Z</time>
      </trkpt>
      <trkpt lat="47.23734" lon="6.05967">
        <ele>258.73</ele>
        <time>2022-04-15T15:28:56Z</time>
      </trkpt>
      <trkpt lat="47.23735" lon="6.05967">
        <ele>258.73</ele>
        <time>2022-04-15T15:28:57Z</time>
      </trkpt>
      <trkpt lat="47.23737" lon="6.05967">
        <ele>259.21</ele>
        <time>2022-04-15T15:28:58Z</time>
      </trkpt>
      <trkpt lat="47.23738" lon="6.05967">
        <ele>259.69</ele>
        <time>2022-04-15T15:28:59Z</time>
      </trkpt>
      <trkpt lat="47.2374" lon="6.05967">
        <ele>259.69</ele>
        <time>2022-04-15T15:29:00Z</time>
      </trkpt>
      <trkpt lat="47.23742" lon="6.05967">
        <ele>260.17</ele>
        <time>2022-04-15T15:29:01Z</time>
      </trkpt>
      <trkpt lat="47.23744" lon="6.05967">
        <ele>260.65</ele>
        <time>2022-04-15T15:29:02Z</time>
      </trkpt>
      <trkpt lat="47.23745" lon="6.05967">
        <ele>260.65</ele>
        <time>2022-04-15T15:29:03Z</time>
      </trkpt>
      <trkpt lat="47.23761" lon="6.05968">
        <ele>264.02</ele>
        <time>2022-04-15T15:29:14Z</time>
      </trkpt>
      <trkpt lat="47.23772" lon="6.05974">
        <ele>266.42</ele>
        <time>2022-04-15T15:29:24Z</time>
      </trkpt>
      <trkpt lat="47.23772" lon="6.05975">
        <ele>266.9</ele>
        <time>2022-04-15T15:29:25Z</time>
      </trkpt>
      <trkpt lat="47.23774" lon="6.05976">
        <ele>267.38</ele>
        <time>2022-04-15T15:29:26Z</time>
      </trkpt>
      <trkpt lat="47.23784" lon="6.05987">
        <ele>269.79</ele>
        <time>2022-04-15T15:29:37Z</time>
      </trkpt>
      <trkpt lat="47.23785" lon="6.05988">
        <ele>270.27</ele>
        <time>2022-04-15T15:29:38Z</time>
      </trkpt>
      <trkpt lat="47.23787" lon="6.05989">
        <ele>270.27</ele>
        <time>2022-04-15T15:29:39Z</time>
      </trkpt>
      <trkpt lat="47.23797" lon="6.06">
        <ele>272.67</ele>
        <time>2022-04-15T15:29:48Z</time>
      </trkpt>
      <trkpt lat="47.23798" lon="6.06">
        <ele>273.15</ele>
        <time>2022-04-15T15:29:49Z</time>
      </trkpt>
      <trkpt lat="47.23818" lon="6.06011">
        <ele>275.56</ele>
        <time>2022-04-15T15:30:03Z</time>
      </trkpt>
      <trkpt lat="47.23853" lon="6.06016">
        <ele>277</ele>
        <time>2022-04-15T15:30:18Z</time>
      </trkpt>
      <trkpt lat="47.23901" lon="6.06019">
        <ele>278.44</ele>
        <time>2022-04-15T15:30:33Z</time>
      </trkpt>
      <trkpt lat="47.23938" lon="6.06031">
        <ele>279.88</ele>
        <time>2022-04-15T15:30:47Z</time>
      </trkpt>
      <trkpt lat="47.23968" lon="6.06038">
        <ele>282.28</ele>
        <time>2022-04-15T15:31:00Z</time>
      </trkpt>
      <trkpt lat="47.2399" lon="6.06033">
        <ele>285.17</ele>
        <time>2022-04-15T15:31:12Z</time>
      </trkpt>
      <trkpt lat="47.24019" lon="6.06028">
        <ele>288.05</ele>
        <time>2022-04-15T15:31:29Z</time>
      </trkpt>
      <trkpt lat="47.2405" lon="6.06036">
        <ele>290.46</ele>
        <time>2022-04-15T15:31:45Z</time>
      </trkpt>
      <trkpt lat="47.24074" lon="6.06035">
        <ele>293.34</ele>
        <time>2022-04-15T15:31:59Z</time>
      </trkpt>
      <trkpt lat="47.24094" lon="6.06034">
        <ele>296.22</ele>
        <time>2022-04-15T15:32:14Z</time>
      </trkpt>
      <trkpt lat="47.24096" lon="6.06035">
        <ele>296.22</ele>
        <time>2022-04-15T15:32:16Z</time>
      </trkpt>
      <trkpt lat="47.24097" lon="6.06036">
        <ele>296.7</ele>
        <time>2022-04-15T15:32:17Z</time>
      </trkpt>
      <trkpt lat="47.24098" lon="6.06036">
        <ele>296.7</ele>
        <time>2022-04-15T15:32:18Z</time>
      </trkpt>
      <trkpt lat="47.241" lon="6.06036">
        <ele>297.18</ele>
        <time>2022-04-15T15:32:19Z</time>
      </trkpt>
      <trkpt lat="47.24117" lon="6.06048">
        <ele>298.15</ele>
        <time>2022-04-15T15:32:30Z</time>
      </trkpt>
      <trkpt lat="47.24148" lon="6.06062">
        <ele>300.07</ele>
        <time>2022-04-15T15:32:44Z</time>
      </trkpt>
      <trkpt lat="47.24176" lon="6.06073">
        <ele>302.95</ele>
        <time>2022-04-15T15:32:59Z</time>
      </trkpt>
      <trkpt lat="47.24195" lon="6.06085">
        <ele>306.32</ele>
        <time>2022-04-15T15:33:11Z</time>
      </trkpt>
      <trkpt lat="47.24225" lon="6.06104">
        <ele>308.24</ele>
        <time>2022-04-15T15:33:27Z</time>
      </trkpt>
      <trkpt lat="47.24247" lon="6.06116">
        <ele>309.68</ele>
        <time>2022-04-15T15:33:38Z</time>
      </trkpt>
      <trkpt lat="47.2427" lon="6.06134">
        <ele>311.12</ele>
        <time>2022-04-15T15:33:50Z</time>
      </trkpt>
      <trkpt lat="47.24295" lon="6.06151">
        <ele>314.49</ele>
        <time>2022-04-15T15:34:03Z</time>
      </trkpt>
      <trkpt lat="47.24323" lon="6.06172">
        <ele>315.93</ele>
        <time>2022-04-15T15:34:18Z</time>
      </trkpt>
      <trkpt lat="47.24352" lon="6.06179">
        <ele>318.81</ele>
        <time>2022-04-15T15:34:34Z</time>
      </trkpt>
      <trkpt lat="47.24368" lon="6.06181">
        <ele>321.7</ele>
        <time>2022-04-15T15:34:45Z</time>
      </trkpt>
      <trkpt lat="47.24392" lon="6.06189">
        <ele>323.62</ele>
        <time>2022-04-15T15:35:00Z</time>
      </trkpt>
      <trkpt lat="47.24412" lon="6.06195">
        <ele>326.5</ele>
        <time>2022-04-15T15:35:15Z</time>
      </trkpt>
      <trkpt lat="47.24432" lon="6.0619">
        <ele>328.91</ele>
        <time>2022-04-15T15:35:29Z</time>
      </trkpt>
      <trkpt lat="47.24448" lon="6.06186">
        <ele>330.35</ele>
        <time>2022-04-15T15:35:39Z</time>
      </trkpt>
      <trkpt lat="47.2445" lon="6.06186">
        <ele>330.83</ele>
        <time>2022-04-15T15:35:40Z</time>
      </trkpt>
      <trkpt lat="47.24467" lon="6.06171">
        <ele>333.23</ele>
        <time>2022-04-15T15:35:53Z</time>
      </trkpt>
      <trkpt lat="47.24472" lon="6.06161">
        <ele>334.68</ele>
        <time>2022-04-15T15:35:59Z</time>
      </trkpt>
      <trkpt lat="47.24473" lon="6.0616">
        <ele>334.68</ele>
        <time>2022-04-15T15:36:00Z</time>
      </trkpt>
      <trkpt lat="47.24474" lon="6.06159">
        <ele>334.68</ele>
        <time>2022-04-15T15:36:01Z</time>
      </trkpt>
      <trkpt lat="47.24475" lon="6.06157">
        <ele>335.64</ele>
        <time>2022-04-15T15:36:02Z</time>
      </trkpt>
      <trkpt lat="47.24479" lon="6.06144">
        <ele>338.04</ele>
        <time>2022-04-15T15:36:12Z</time>
      </trkpt>
      <trkpt lat="47.24479" lon="6.06142">
        <ele>338.04</ele>
        <time>2022-04-15T15:36:13Z</time>
      </trkpt>
      <trkpt lat="47.24479" lon="6.0614">
        <ele>338.04</ele>
        <time>2022-04-15T15:36:14Z</time>
      </trkpt>
      <trkpt lat="47.24478" lon="6.06138">
        <ele>338.04</ele>
        <time>2022-04-15T15:36:15Z</time>
      </trkpt>
      <trkpt lat="47.24479" lon="6.06129">
        <ele>339.48</ele>
        <time>2022-04-15T15:36:19Z</time>
      </trkpt>
      <trkpt lat="47.24479" lon="6.06128">
        <ele>339.48</ele>
        <time>2022-04-15T15:36:20Z</time>
      </trkpt>
      <trkpt lat="47.24482" lon="6.06118">
        <ele>342.37</ele>
        <time>2022-04-15T15:36:28Z</time>
      </trkpt>
      <trkpt lat="47.24482" lon="6.06106">
        <ele>345.73</ele>
        <time>2022-04-15T15:36:38Z</time>
      </trkpt>
      <trkpt lat="47.24485" lon="6.06102">
        <ele>346.69</ele>
        <time>2022-04-15T15:36:42Z</time>
      </trkpt>
      <trkpt lat="47.2449" lon="6.06101">
        <ele>348.13</ele>
        <time>2022-04-15T15:36:46Z</time>
      </trkpt>
      <trkpt lat="47.24499" lon="6.06099">
        <ele>351.02</ele>
        <time>2022-04-15T15:36:55Z</time>
      </trkpt>
      <trkpt lat="47.24509" lon="6.06092">
        <ele>353.9</ele>
        <time>2022-04-15T15:37:05Z</time>
      </trkpt>
      <trkpt lat="47.24517" lon="6.06094">
        <ele>356.31</ele>
        <time>2022-04-15T15:37:16Z</time>
      </trkpt>
      <trkpt lat="47.24528" lon="6.06096">
        <ele>358.71</ele>
        <time>2022-04-15T15:37:29Z</time>
      </trkpt>
      <trkpt lat="47.24539" lon="6.061">
        <ele>360.63</ele>
        <time>2022-04-15T15:37:41Z</time>
      </trkpt>
      <trkpt lat="47.24552" lon="6.06109">
        <ele>362.07</ele>
        <time>2022-04-15T15:37:52Z</time>
      </trkpt>
      <trkpt lat="47.24554" lon="6.0611">
        <ele>362.07</ele>
        <time>2022-04-15T15:37:53Z</time>
      </trkpt>
      <trkpt lat="47.24555" lon="6.06112">
        <ele>362.55</ele>
        <time>2022-04-15T15:37:54Z</time>
      </trkpt>
      <trkpt lat="47.24557" lon="6.06113">
        <ele>362.07</ele>
        <time>2022-04-15T15:37:55Z</time>
      </trkpt>
      <trkpt lat="47.24563" lon="6.0612">
        <ele>362.55</ele>
        <time>2022-04-15T15:37:59Z</time>
      </trkpt>
      <trkpt lat="47.24564" lon="6.06121">
        <ele>362.55</ele>
        <time>2022-04-15T15:38:00Z</time>
      </trkpt>
      <trkpt lat="47.24566" lon="6.06123">
        <ele>362.55</ele>
        <time>2022-04-15T15:38:01Z</time>
      </trkpt>
      <trkpt lat="47.24573" lon="6.0613">
        <ele>363.04</ele>
        <time>2022-04-15T15:38:08Z</time>
      </trkpt>
      <trkpt lat="47.24574" lon="6.06131">
        <ele>363.52</ele>
        <time>2022-04-15T15:38:09Z</time>
      </trkpt>
      <trkpt lat="47.24578" lon="6.06134">
        <ele>363.52</ele>
        <time>2022-04-15T15:38:12Z</time>
      </trkpt>
      <trkpt lat="47.24579" lon="6.06134">
        <ele>363.52</ele>
        <time>2022-04-15T15:38:13Z</time>
      </trkpt>
      <trkpt lat="47.24584" lon="6.06139">
        <ele>364.48</ele>
        <time>2022-04-15T15:38:19Z</time>
      </trkpt>
      <trkpt lat="47.24593" lon="6.06146">
        <ele>365.44</ele>
        <time>2022-04-15T15:38:27Z</time>
      </trkpt>
      <trkpt lat="47.24596" lon="6.06147">
        <ele>365.92</ele>
        <time>2022-04-15T15:38:29Z</time>
      </trkpt>
      <trkpt lat="47.24598" lon="6.06148">
        <ele>365.92</ele>
        <time>2022-04-15T15:38:30Z</time>
      </trkpt>
      <trkpt lat="47.24604" lon="6.06151">
        <ele>366.88</ele>
        <time>2022-04-15T15:38:36Z</time>
      </trkpt>
      <trkpt lat="47.24606" lon="6.06151">
        <ele>366.88</ele>
        <time>2022-04-15T15:38:37Z</time>
      </trkpt>
      <trkpt lat="47.24615" lon="6.06156">
        <ele>367.84</ele>
        <time>2022-04-15T15:38:44Z</time>
      </trkpt>
      <trkpt lat="47.24616" lon="6.06157">
        <ele>367.84</ele>
        <time>2022-04-15T15:38:45Z</time>
      </trkpt>
      <trkpt lat="47.24618" lon="6.06158">
        <ele>368.32</ele>
        <time>2022-04-15T15:38:46Z</time>
      </trkpt>
      <trkpt lat="47.24625" lon="6.06161">
        <ele>369.28</ele>
        <time>2022-04-15T15:38:52Z</time>
      </trkpt>
      <trkpt lat="47.24631" lon="6.06164">
        <ele>370.24</ele>
        <time>2022-04-15T15:38:57Z</time>
      </trkpt>
      <trkpt lat="47.24633" lon="6.06165">
        <ele>370.73</ele>
        <time>2022-04-15T15:38:58Z</time>
      </trkpt>
      <trkpt lat="47.24634" lon="6.06165">
        <ele>370.73</ele>
        <time>2022-04-15T15:38:59Z</time>
      </trkpt>
      <trkpt lat="47.24636" lon="6.06165">
        <ele>371.21</ele>
        <time>2022-04-15T15:39:00Z</time>
      </trkpt>
      <trkpt lat="47.24638" lon="6.06166">
        <ele>371.21</ele>
        <time>2022-04-15T15:39:01Z</time>
      </trkpt>
      <trkpt lat="47.2464" lon="6.06167">
        <ele>371.69</ele>
        <time>2022-04-15T15:39:02Z</time>
      </trkpt>
      <trkpt lat="47.24653" lon="6.0617">
        <ele>373.61</ele>
        <time>2022-04-15T15:39:11Z</time>
      </trkpt>
      <trkpt lat="47.24654" lon="6.06171">
        <ele>374.09</ele>
        <time>2022-04-15T15:39:12Z</time>
      </trkpt>
      <trkpt lat="47.24655" lon="6.06171">
        <ele>374.57</ele>
        <time>2022-04-15T15:39:13Z</time>
      </trkpt>
      <trkpt lat="47.24658" lon="6.06172">
        <ele>375.05</ele>
        <time>2022-04-15T15:39:15Z</time>
      </trkpt>
      <trkpt lat="47.24659" lon="6.06172">
        <ele>375.05</ele>
        <time>2022-04-15T15:39:16Z</time>
      </trkpt>
      <trkpt lat="47.2467" lon="6.06176">
        <ele>376.49</ele>
        <time>2022-04-15T15:39:24Z</time>
      </trkpt>
      <trkpt lat="47.24675" lon="6.06179">
        <ele>376.49</ele>
        <time>2022-04-15T15:39:28Z</time>
      </trkpt>
      <trkpt lat="47.24677" lon="6.06179">
        <ele>376.49</ele>
        <time>2022-04-15T15:39:29Z</time>
      </trkpt>
      <trkpt lat="47.24678" lon="6.0618">
        <ele>376.49</ele>
        <time>2022-04-15T15:39:30Z</time>
      </trkpt>
      <trkpt lat="47.24704" lon="6.06193">
        <ele>376.49</ele>
        <time>2022-04-15T15:39:45Z</time>
      </trkpt>
      <trkpt lat="47.24707" lon="6.06194">
        <ele>376.97</ele>
        <time>2022-04-15T15:39:47Z</time>
      </trkpt>
      <trkpt lat="47.24708" lon="6.06195">
        <ele>376.97</ele>
        <time>2022-04-15T15:39:48Z</time>
      </trkpt>
      <trkpt lat="47.24709" lon="6.06195">
        <ele>376.97</ele>
        <time>2022-04-15T15:39:49Z</time>
      </trkpt>
      <trkpt lat="47.24711" lon="6.06196">
        <ele>376.49</ele>
        <time>2022-04-15T15:39:50Z</time>
      </trkpt>
      <trkpt lat="47.24713" lon="6.06197">
        <ele>376.97</ele>
        <time>2022-04-15T15:39:51Z</time>
      </trkpt>
      <trkpt lat="47.24714" lon="6.06198">
        <ele>376.97</ele>
        <time>2022-04-15T15:39:52Z</time>
      </trkpt>
      <trkpt lat="47.24716" lon="6.06199">
        <ele>376.97</ele>
        <time>2022-04-15T15:39:53Z</time>
      </trkpt>
      <trkpt lat="47.24718" lon="6.062">
        <ele>376.49</ele>
        <time>2022-04-15T15:39:54Z</time>
      </trkpt>
      <trkpt lat="47.2472" lon="6.062">
        <ele>376.97</ele>
        <time>2022-04-15T15:39:55Z</time>
      </trkpt>
      <trkpt lat="47.24723" lon="6.06203">
        <ele>376.97</ele>
        <time>2022-04-15T15:39:58Z</time>
      </trkpt>
      <trkpt lat="47.24724" lon="6.06204">
        <ele>376.97</ele>
        <time>2022-04-15T15:39:59Z</time>
      </trkpt>
      <trkpt lat="47.24726" lon="6.06206">
        <ele>376.97</ele>
        <time>2022-04-15T15:40:00Z</time>
      </trkpt>
      <trkpt lat="47.24727" lon="6.06208">
        <ele>376.97</ele>
        <time>2022-04-15T15:40:01Z</time>
      </trkpt>
      <trkpt lat="47.24729" lon="6.0621">
        <ele>376.97</ele>
        <time>2022-04-15T15:40:02Z</time>
      </trkpt>
      <trkpt lat="47.24731" lon="6.06211">
        <ele>376.97</ele>
        <time>2022-04-15T15:40:03Z</time>
      </trkpt>
      <trkpt lat="47.24753" lon="6.0622">
        <ele>376.49</ele>
        <time>2022-04-15T15:40:16Z</time>
      </trkpt>
      <trkpt lat="47.24755" lon="6.0622">
        <ele>376.49</ele>
        <time>2022-04-15T15:40:30Z</time>
      </trkpt>
      <trkpt lat="47.24755" lon="6.06222">
        <ele>376.49</ele>
        <time>2022-04-15T15:40:42Z</time>
      </trkpt>
      <trkpt lat="47.24757" lon="6.06221">
        <ele>376.01</ele>
        <time>2022-04-15T15:40:43Z</time>
      </trkpt>
      <trkpt lat="47.24759" lon="6.06221">
        <ele>376.01</ele>
        <time>2022-04-15T15:40:44Z</time>
      </trkpt>
      <trkpt lat="47.24761" lon="6.06221">
        <ele>376.01</ele>
        <time>2022-04-15T15:40:45Z</time>
      </trkpt>
      <trkpt lat="47.24764" lon="6.06223">
        <ele>376.01</ele>
        <time>2022-04-15T15:40:46Z</time>
      </trkpt>
      <trkpt lat="47.24768" lon="6.06225">
        <ele>375.53</ele>
        <time>2022-04-15T15:40:47Z</time>
      </trkpt>
      <trkpt lat="47.24797" lon="6.06242">
        <ele>371.69</ele>
        <time>2022-04-15T15:40:52Z</time>
      </trkpt>
      <trkpt lat="47.24805" lon="6.06245">
        <ele>370.24</ele>
        <time>2022-04-15T15:40:53Z</time>
      </trkpt>
      <trkpt lat="47.24812" lon="6.06245">
        <ele>369.76</ele>
        <time>2022-04-15T15:40:54Z</time>
      </trkpt>
      <trkpt lat="47.24821" lon="6.06243">
        <ele>367.84</ele>
        <time>2022-04-15T15:40:55Z</time>
      </trkpt>
      <trkpt lat="47.24846" lon="6.06228">
        <ele>364.48</ele>
        <time>2022-04-15T15:40:58Z</time>
      </trkpt>
      <trkpt lat="47.24876" lon="6.06212">
        <ele>360.63</ele>
        <time>2022-04-15T15:41:01Z</time>
      </trkpt>
      <trkpt lat="47.24908" lon="6.06195">
        <ele>357.27</ele>
        <time>2022-04-15T15:41:05Z</time>
      </trkpt>
      <trkpt lat="47.24913" lon="6.06195">
        <ele>356.79</ele>
        <time>2022-04-15T15:41:06Z</time>
      </trkpt>
      <trkpt lat="47.24918" lon="6.06198">
        <ele>356.79</ele>
        <time>2022-04-15T15:41:07Z</time>
      </trkpt>
      <trkpt lat="47.24922" lon="6.06204">
        <ele>356.31</ele>
        <time>2022-04-15T15:41:08Z</time>
      </trkpt>
      <trkpt lat="47.24927" lon="6.0621">
        <ele>356.31</ele>
        <time>2022-04-15T15:41:09Z</time>
      </trkpt>
      <trkpt lat="47.24986" lon="6.0627">
        <ele>355.83</ele>
        <time>2022-04-15T15:41:22Z</time>
      </trkpt>
      <trkpt lat="47.25025" lon="6.06304">
        <ele>358.23</ele>
        <time>2022-04-15T15:41:34Z</time>
      </trkpt>
      <trkpt lat="47.25041" lon="6.0633">
        <ele>358.71</ele>
        <time>2022-04-15T15:41:40Z</time>
      </trkpt>
      <trkpt lat="47.25071" lon="6.06385">
        <ele>359.19</ele>
        <time>2022-04-15T15:41:53Z</time>
      </trkpt>
      <trkpt lat="47.25077" lon="6.06393">
        <ele>359.19</ele>
        <time>2022-04-15T15:41:55Z</time>
      </trkpt>
      <trkpt lat="47.25081" lon="6.06396">
        <ele>358.71</ele>
        <time>2022-04-15T15:41:56Z</time>
      </trkpt>
      <trkpt lat="47.25128" lon="6.06428">
        <ele>361.11</ele>
        <time>2022-04-15T15:42:10Z</time>
      </trkpt>
      <trkpt lat="47.2518" lon="6.0645">
        <ele>362.07</ele>
        <time>2022-04-15T15:42:25Z</time>
      </trkpt>
      <trkpt lat="47.2524" lon="6.06484">
        <ele>358.71</ele>
        <time>2022-04-15T15:42:38Z</time>
      </trkpt>
      <trkpt lat="47.25254" lon="6.06491">
        <ele>357.75</ele>
        <time>2022-04-15T15:42:40Z</time>
      </trkpt>
      <trkpt lat="47.25261" lon="6.06492">
        <ele>357.27</ele>
        <time>2022-04-15T15:42:41Z</time>
      </trkpt>
      <trkpt lat="47.25268" lon="6.06491">
        <ele>356.79</ele>
        <time>2022-04-15T15:42:42Z</time>
      </trkpt>
      <trkpt lat="47.25276" lon="6.06488">
        <ele>355.83</ele>
        <time>2022-04-15T15:42:43Z</time>
      </trkpt>
      <trkpt lat="47.25283" lon="6.06483">
        <ele>355.34</ele>
        <time>2022-04-15T15:42:44Z</time>
      </trkpt>
      <trkpt lat="47.2529" lon="6.06477">
        <ele>354.38</ele>
        <time>2022-04-15T15:42:45Z</time>
      </trkpt>
      <trkpt lat="47.25297" lon="6.0647">
        <ele>353.42</ele>
        <time>2022-04-15T15:42:46Z</time>
      </trkpt>
      <trkpt lat="47.25305" lon="6.06462">
        <ele>352.46</ele>
        <time>2022-04-15T15:42:47Z</time>
      </trkpt>
      <trkpt lat="47.25312" lon="6.06452">
        <ele>351.5</ele>
        <time>2022-04-15T15:42:48Z</time>
      </trkpt>
      <trkpt lat="47.25318" lon="6.06443">
        <ele>351.5</ele>
        <time>2022-04-15T15:42:49Z</time>
      </trkpt>
      <trkpt lat="47.25325" lon="6.06438">
        <ele>350.54</ele>
        <time>2022-04-15T15:42:50Z</time>
      </trkpt>
      <trkpt lat="47.25331" lon="6.06437">
        <ele>351.5</ele>
        <time>2022-04-15T15:42:51Z</time>
      </trkpt>
      <trkpt lat="47.25335" lon="6.06439">
        <ele>350.54</ele>
        <time>2022-04-15T15:42:52Z</time>
      </trkpt>
      <trkpt lat="47.25339" lon="6.06443">
        <ele>350.06</ele>
        <time>2022-04-15T15:42:53Z</time>
      </trkpt>
      <trkpt lat="47.25341" lon="6.06449">
        <ele>350.06</ele>
        <time>2022-04-15T15:42:54Z</time>
      </trkpt>
      <trkpt lat="47.25344" lon="6.06455">
        <ele>349.58</ele>
        <time>2022-04-15T15:42:55Z</time>
      </trkpt>
      <trkpt lat="47.25347" lon="6.06461">
        <ele>349.58</ele>
        <time>2022-04-15T15:42:56Z</time>
      </trkpt>
      <trkpt lat="47.25351" lon="6.06466">
        <ele>350.06</ele>
        <time>2022-04-15T15:42:57Z</time>
      </trkpt>
      <trkpt lat="47.25355" lon="6.06469">
        <ele>349.58</ele>
        <time>2022-04-15T15:42:58Z</time>
      </trkpt>
      <trkpt lat="47.2536" lon="6.06469">
        <ele>349.58</ele>
        <time>2022-04-15T15:42:59Z</time>
      </trkpt>
      <trkpt lat="47.25364" lon="6.06466">
        <ele>349.1</ele>
        <time>2022-04-15T15:43:00Z</time>
      </trkpt>
      <trkpt lat="47.25368" lon="6.06464">
        <ele>349.1</ele>
        <time>2022-04-15T15:43:01Z</time>
      </trkpt>
      <trkpt lat="47.25384" lon="6.06452">
        <ele>348.62</ele>
        <time>2022-04-15T15:43:05Z</time>
      </trkpt>
      <trkpt lat="47.25388" lon="6.06449">
        <ele>348.13</ele>
        <time>2022-04-15T15:43:06Z</time>
      </trkpt>
      <trkpt lat="47.25392" lon="6.06445">
        <ele>348.13</ele>
        <time>2022-04-15T15:43:07Z</time>
      </trkpt>
      <trkpt lat="47.25396" lon="6.0644">
        <ele>347.65</ele>
        <time>2022-04-15T15:43:08Z</time>
      </trkpt>
      <trkpt lat="47.254" lon="6.06435">
        <ele>347.65</ele>
        <time>2022-04-15T15:43:09Z</time>
      </trkpt>
      <trkpt lat="47.25403" lon="6.06431">
        <ele>347.65</ele>
        <time>2022-04-15T15:43:10Z</time>
      </trkpt>
      <trkpt lat="47.25407" lon="6.06426">
        <ele>347.65</ele>
        <time>2022-04-15T15:43:11Z</time>
      </trkpt>
      <trkpt lat="47.25411" lon="6.06422">
        <ele>347.65</ele>
        <time>2022-04-15T15:43:12Z</time>
      </trkpt>
      <trkpt lat="47.25415" lon="6.06418">
        <ele>347.65</ele>
        <time>2022-04-15T15:43:13Z</time>
      </trkpt>
      <trkpt lat="47.25419" lon="6.06414">
        <ele>347.17</ele>
        <time>2022-04-15T15:43:14Z</time>
      </trkpt>
      <trkpt lat="47.25422" lon="6.0641">
        <ele>347.17</ele>
        <time>2022-04-15T15:43:15Z</time>
      </trkpt>
      <trkpt lat="47.25437" lon="6.06392">
        <ele>346.69</ele>
        <time>2022-04-15T15:43:19Z</time>
      </trkpt>
      <trkpt lat="47.25441" lon="6.06388">
        <ele>346.69</ele>
        <time>2022-04-15T15:43:20Z</time>
      </trkpt>
      <trkpt lat="47.25444" lon="6.06384">
        <ele>346.21</ele>
        <time>2022-04-15T15:43:21Z</time>
      </trkpt>
      <trkpt lat="47.25448" lon="6.06379">
        <ele>346.21</ele>
        <time>2022-04-15T15:43:22Z</time>
      </trkpt>
      <trkpt lat="47.25452" lon="6.06375">
        <ele>346.21</ele>
        <time>2022-04-15T15:43:23Z</time>
      </trkpt>
      <trkpt lat="47.25459" lon="6.06365">
        <ele>346.21</ele>
        <time>2022-04-15T15:43:25Z</time>
      </trkpt>
      <trkpt lat="47.25462" lon="6.06359">
        <ele>346.21</ele>
        <time>2022-04-15T15:43:26Z</time>
      </trkpt>
      <trkpt lat="47.25465" lon="6.06355">
        <ele>346.21</ele>
        <time>2022-04-15T15:43:27Z</time>
      </trkpt>
      <trkpt lat="47.25477" lon="6.06341">
        <ele>346.21</ele>
        <time>2022-04-15T15:43:31Z</time>
      </trkpt>
      <trkpt lat="47.25479" lon="6.06337">
        <ele>346.21</ele>
        <time>2022-04-15T15:43:32Z</time>
      </trkpt>
      <trkpt lat="47.25482" lon="6.06332">
        <ele>346.21</ele>
        <time>2022-04-15T15:43:33Z</time>
      </trkpt>
      <trkpt lat="47.25485" lon="6.06328">
        <ele>346.21</ele>
        <time>2022-04-15T15:43:34Z</time>
      </trkpt>
      <trkpt lat="47.25489" lon="6.06324">
        <ele>346.21</ele>
        <time>2022-04-15T15:43:35Z</time>
      </trkpt>
      <trkpt lat="47.25492" lon="6.0632">
        <ele>346.21</ele>
        <time>2022-04-15T15:43:36Z</time>
      </trkpt>
      <trkpt lat="47.25495" lon="6.06316">
        <ele>346.21</ele>
        <time>2022-04-15T15:43:37Z</time>
      </trkpt>
      <trkpt lat="47.25498" lon="6.06312">
        <ele>346.21</ele>
        <time>2022-04-15T15:43:38Z</time>
      </trkpt>
      <trkpt lat="47.25501" lon="6.06308">
        <ele>346.21</ele>
        <time>2022-04-15T15:43:39Z</time>
      </trkpt>
      <trkpt lat="47.25504" lon="6.06304">
        <ele>346.21</ele>
        <time>2022-04-15T15:43:40Z</time>
      </trkpt>
      <trkpt lat="47.25506" lon="6.063">
        <ele>346.21</ele>
        <time>2022-04-15T15:43:41Z</time>
      </trkpt>
      <trkpt lat="47.25509" lon="6.06296">
        <ele>346.21</ele>
        <time>2022-04-15T15:43:42Z</time>
      </trkpt>
      <trkpt lat="47.25511" lon="6.06291">
        <ele>346.21</ele>
        <time>2022-04-15T15:43:43Z</time>
      </trkpt>
      <trkpt lat="47.25513" lon="6.06285">
        <ele>346.21</ele>
        <time>2022-04-15T15:43:44Z</time>
      </trkpt>
      <trkpt lat="47.25515" lon="6.06279">
        <ele>346.21</ele>
        <time>2022-04-15T15:43:45Z</time>
      </trkpt>
      <trkpt lat="47.25517" lon="6.06273">
        <ele>346.21</ele>
        <time>2022-04-15T15:43:46Z</time>
      </trkpt>
      <trkpt lat="47.2552" lon="6.06268">
        <ele>346.21</ele>
        <time>2022-04-15T15:43:47Z</time>
      </trkpt>
      <trkpt lat="47.25522" lon="6.06264">
        <ele>346.21</ele>
        <time>2022-04-15T15:43:48Z</time>
      </trkpt>
      <trkpt lat="47.25525" lon="6.06259">
        <ele>345.73</ele>
        <time>2022-04-15T15:43:49Z</time>
      </trkpt>
      <trkpt lat="47.25527" lon="6.06254">
        <ele>345.73</ele>
        <time>2022-04-15T15:43:50Z</time>
      </trkpt>
      <trkpt lat="47.2553" lon="6.06249">
        <ele>345.25</ele>
        <time>2022-04-15T15:43:51Z</time>
      </trkpt>
      <trkpt lat="47.25536" lon="6.06237">
        <ele>345.25</ele>
        <time>2022-04-15T15:43:53Z</time>
      </trkpt>
      <trkpt lat="47.25539" lon="6.06231">
        <ele>344.77</ele>
        <time>2022-04-15T15:43:54Z</time>
      </trkpt>
      <trkpt lat="47.25554" lon="6.062">
        <ele>343.81</ele>
        <time>2022-04-15T15:43:59Z</time>
      </trkpt>
      <trkpt lat="47.2557" lon="6.06174">
        <ele>342.37</ele>
        <time>2022-04-15T15:44:03Z</time>
      </trkpt>
      <trkpt lat="47.25588" lon="6.06145">
        <ele>340.92</ele>
        <time>2022-04-15T15:44:07Z</time>
      </trkpt>
      <trkpt lat="47.25627" lon="6.06085">
        <ele>338.04</ele>
        <time>2022-04-15T15:44:15Z</time>
      </trkpt>
      <trkpt lat="47.25635" lon="6.0607">
        <ele>337.56</ele>
        <time>2022-04-15T15:44:17Z</time>
      </trkpt>
      <trkpt lat="47.25637" lon="6.06062">
        <ele>338.04</ele>
        <time>2022-04-15T15:44:18Z</time>
      </trkpt>
      <trkpt lat="47.25638" lon="6.06055">
        <ele>338.04</ele>
        <time>2022-04-15T15:44:19Z</time>
      </trkpt>
      <trkpt lat="47.25638" lon="6.06049">
        <ele>337.56</ele>
        <time>2022-04-15T15:44:20Z</time>
      </trkpt>
      <trkpt lat="47.25639" lon="6.06042">
        <ele>338.04</ele>
        <time>2022-04-15T15:44:21Z</time>
      </trkpt>
      <trkpt lat="47.2564" lon="6.06038">
        <ele>338.52</ele>
        <time>2022-04-15T15:44:22Z</time>
      </trkpt>
      <trkpt lat="47.25642" lon="6.06033">
        <ele>339</ele>
        <time>2022-04-15T15:44:23Z</time>
      </trkpt>
      <trkpt lat="47.25644" lon="6.06028">
        <ele>339</ele>
        <time>2022-04-15T15:44:24Z</time>
      </trkpt>
      <trkpt lat="47.25645" lon="6.06023">
        <ele>339</ele>
        <time>2022-04-15T15:44:25Z</time>
      </trkpt>
      <trkpt lat="47.25648" lon="6.06017">
        <ele>339</ele>
        <time>2022-04-15T15:44:26Z</time>
      </trkpt>
      <trkpt lat="47.25651" lon="6.06012">
        <ele>339</ele>
        <time>2022-04-15T15:44:27Z</time>
      </trkpt>
      <trkpt lat="47.25653" lon="6.06007">
        <ele>339</ele>
        <time>2022-04-15T15:44:28Z</time>
      </trkpt>
      <trkpt lat="47.25666" lon="6.05986">
        <ele>339</ele>
        <time>2022-04-15T15:44:32Z</time>
      </trkpt>
      <trkpt lat="47.25667" lon="6.05979">
        <ele>339</ele>
        <time>2022-04-15T15:44:33Z</time>
      </trkpt>
      <trkpt lat="47.25666" lon="6.05974">
        <ele>339</ele>
        <time>2022-04-15T15:44:34Z</time>
      </trkpt>
      <trkpt lat="47.25666" lon="6.05968">
        <ele>339.48</ele>
        <time>2022-04-15T15:44:35Z</time>
      </trkpt>
      <trkpt lat="47.25665" lon="6.05964">
        <ele>339.96</ele>
        <time>2022-04-15T15:44:36Z</time>
      </trkpt>
      <trkpt lat="47.25667" lon="6.0596">
        <ele>339.96</ele>
        <time>2022-04-15T15:44:37Z</time>
      </trkpt>
      <trkpt lat="47.25668" lon="6.05957">
        <ele>339.96</ele>
        <time>2022-04-15T15:44:38Z</time>
      </trkpt>
      <trkpt lat="47.25683" lon="6.05935">
        <ele>339</ele>
        <time>2022-04-15T15:44:44Z</time>
      </trkpt>
      <trkpt lat="47.25703" lon="6.05905">
        <ele>339.48</ele>
        <time>2022-04-15T15:44:52Z</time>
      </trkpt>
      <trkpt lat="47.25702" lon="6.05901">
        <ele>339.96</ele>
        <time>2022-04-15T15:44:53Z</time>
      </trkpt>
      <trkpt lat="47.25701" lon="6.05896">
        <ele>340.44</ele>
        <time>2022-04-15T15:44:54Z</time>
      </trkpt>
      <trkpt lat="47.25696" lon="6.05859">
        <ele>342.85</ele>
        <time>2022-04-15T15:45:03Z</time>
      </trkpt>
      <trkpt lat="47.25699" lon="6.05839">
        <ele>344.77</ele>
        <time>2022-04-15T15:45:08Z</time>
      </trkpt>
      <trkpt lat="47.25699" lon="6.05835">
        <ele>344.77</ele>
        <time>2022-04-15T15:45:09Z</time>
      </trkpt>
      <trkpt lat="47.25699" lon="6.05833">
        <ele>345.25</ele>
        <time>2022-04-15T15:45:10Z</time>
      </trkpt>
      <trkpt lat="47.257" lon="6.05829">
        <ele>345.25</ele>
        <time>2022-04-15T15:45:11Z</time>
      </trkpt>
      <trkpt lat="47.25701" lon="6.05826">
        <ele>345.73</ele>
        <time>2022-04-15T15:45:12Z</time>
      </trkpt>
      <trkpt lat="47.25701" lon="6.05821">
        <ele>345.73</ele>
        <time>2022-04-15T15:45:13Z</time>
      </trkpt>
      <trkpt lat="47.25703" lon="6.05804">
        <ele>347.17</ele>
        <time>2022-04-15T15:45:18Z</time>
      </trkpt>
      <trkpt lat="47.25704" lon="6.058">
        <ele>347.17</ele>
        <time>2022-04-15T15:45:19Z</time>
      </trkpt>
      <trkpt lat="47.25705" lon="6.05795">
        <ele>347.65</ele>
        <time>2022-04-15T15:45:20Z</time>
      </trkpt>
      <trkpt lat="47.25717" lon="6.05762">
        <ele>350.06</ele>
        <time>2022-04-15T15:45:31Z</time>
      </trkpt>
      <trkpt lat="47.25734" lon="6.05735">
        <ele>350.54</ele>
        <time>2022-04-15T15:45:43Z</time>
      </trkpt>
      <trkpt lat="47.25749" lon="6.0571">
        <ele>351.5</ele>
        <time>2022-04-15T15:45:54Z</time>
      </trkpt>
      <trkpt lat="47.25753" lon="6.057">
        <ele>351.98</ele>
        <time>2022-04-15T15:46:02Z</time>
      </trkpt>
      <trkpt lat="47.25754" lon="6.057">
        <ele>351.5</ele>
        <time>2022-04-15T15:46:03Z</time>
      </trkpt>
      <trkpt lat="47.25755" lon="6.057">
        <ele>351.98</ele>
        <time>2022-04-15T15:46:04Z</time>
      </trkpt>
      <trkpt lat="47.25776" lon="6.05677">
        <ele>351.5</ele>
        <time>2022-04-15T15:46:15Z</time>
      </trkpt>
      <trkpt lat="47.258" lon="6.05654">
        <ele>352.46</ele>
        <time>2022-04-15T15:46:27Z</time>
      </trkpt>
      <trkpt lat="47.25807" lon="6.05647">
        <ele>352.94</ele>
        <time>2022-04-15T15:46:29Z</time>
      </trkpt>
      <trkpt lat="47.2581" lon="6.05643">
        <ele>352.94</ele>
        <time>2022-04-15T15:46:30Z</time>
      </trkpt>
      <trkpt lat="47.25812" lon="6.05639">
        <ele>352.94</ele>
        <time>2022-04-15T15:46:31Z</time>
      </trkpt>
      <trkpt lat="47.25814" lon="6.05634">
        <ele>352.94</ele>
        <time>2022-04-15T15:46:32Z</time>
      </trkpt>
      <trkpt lat="47.25816" lon="6.05631">
        <ele>352.94</ele>
        <time>2022-04-15T15:46:33Z</time>
      </trkpt>
      <trkpt lat="47.25818" lon="6.05628">
        <ele>353.42</ele>
        <time>2022-04-15T15:46:34Z</time>
      </trkpt>
      <trkpt lat="47.25819" lon="6.05624">
        <ele>353.42</ele>
        <time>2022-04-15T15:46:35Z</time>
      </trkpt>
      <trkpt lat="47.25821" lon="6.0562">
        <ele>353.42</ele>
        <time>2022-04-15T15:46:36Z</time>
      </trkpt>
      <trkpt lat="47.25821" lon="6.05615">
        <ele>353.42</ele>
        <time>2022-04-15T15:46:37Z</time>
      </trkpt>
      <trkpt lat="47.25822" lon="6.05612">
        <ele>353.42</ele>
        <time>2022-04-15T15:46:38Z</time>
      </trkpt>
      <trkpt lat="47.2584" lon="6.05571">
        <ele>354.86</ele>
        <time>2022-04-15T15:46:49Z</time>
      </trkpt>
      <trkpt lat="47.25843" lon="6.05563">
        <ele>355.34</ele>
        <time>2022-04-15T15:46:51Z</time>
      </trkpt>
      <trkpt lat="47.25844" lon="6.05559">
        <ele>354.86</ele>
        <time>2022-04-15T15:46:52Z</time>
      </trkpt>
      <trkpt lat="47.25845" lon="6.05556">
        <ele>354.86</ele>
        <time>2022-04-15T15:46:53Z</time>
      </trkpt>
      <trkpt lat="47.25847" lon="6.05553">
        <ele>354.86</ele>
        <time>2022-04-15T15:46:54Z</time>
      </trkpt>
      <trkpt lat="47.25849" lon="6.05549">
        <ele>354.86</ele>
        <time>2022-04-15T15:46:55Z</time>
      </trkpt>
      <trkpt lat="47.2585" lon="6.05545">
        <ele>354.86</ele>
        <time>2022-04-15T15:46:56Z</time>
      </trkpt>
      <trkpt lat="47.25852" lon="6.05542">
        <ele>354.86</ele>
        <time>2022-04-15T15:46:57Z</time>
      </trkpt>
      <trkpt lat="47.25854" lon="6.05541">
        <ele>355.34</ele>
        <time>2022-04-15T15:46:58Z</time>
      </trkpt>
      <trkpt lat="47.25856" lon="6.05539">
        <ele>355.34</ele>
        <time>2022-04-15T15:46:59Z</time>
      </trkpt>
      <trkpt lat="47.25858" lon="6.05539">
        <ele>355.34</ele>
        <time>2022-04-15T15:47:00Z</time>
      </trkpt>
      <trkpt lat="47.25859" lon="6.05538">
        <ele>355.34</ele>
        <time>2022-04-15T15:47:01Z</time>
      </trkpt>
      <trkpt lat="47.2586" lon="6.05536">
        <ele>355.83</ele>
        <time>2022-04-15T15:47:02Z</time>
      </trkpt>
      <trkpt lat="47.25861" lon="6.05533">
        <ele>355.83</ele>
        <time>2022-04-15T15:47:03Z</time>
      </trkpt>
      <trkpt lat="47.25862" lon="6.0553">
        <ele>355.83</ele>
        <time>2022-04-15T15:47:04Z</time>
      </trkpt>
      <trkpt lat="47.25863" lon="6.05527">
        <ele>355.83</ele>
        <time>2022-04-15T15:47:05Z</time>
      </trkpt>
      <trkpt lat="47.25865" lon="6.05525">
        <ele>355.83</ele>
        <time>2022-04-15T15:47:07Z</time>
      </trkpt>
      <trkpt lat="47.25867" lon="6.05525">
        <ele>355.83</ele>
        <time>2022-04-15T15:47:08Z</time>
      </trkpt>
      <trkpt lat="47.25868" lon="6.05525">
        <ele>355.83</ele>
        <time>2022-04-15T15:47:09Z</time>
      </trkpt>
      <trkpt lat="47.2587" lon="6.05524">
        <ele>355.83</ele>
        <time>2022-04-15T15:47:10Z</time>
      </trkpt>
      <trkpt lat="47.25871" lon="6.05523">
        <ele>356.31</ele>
        <time>2022-04-15T15:47:11Z</time>
      </trkpt>
      <trkpt lat="47.25872" lon="6.05523">
        <ele>356.31</ele>
        <time>2022-04-15T15:47:12Z</time>
      </trkpt>
      <trkpt lat="47.25883" lon="6.05525">
        <ele>358.71</ele>
        <time>2022-04-15T15:47:18Z</time>
      </trkpt>
      <trkpt lat="47.25894" lon="6.05518">
        <ele>358.71</ele>
        <time>2022-04-15T15:47:24Z</time>
      </trkpt>
      <trkpt lat="47.25904" lon="6.055">
        <ele>360.15</ele>
        <time>2022-04-15T15:47:34Z</time>
      </trkpt>
      <trkpt lat="47.25906" lon="6.05501">
        <ele>359.19</ele>
        <time>2022-04-15T15:47:35Z</time>
      </trkpt>
      <trkpt lat="47.25908" lon="6.05503">
        <ele>358.23</ele>
        <time>2022-04-15T15:47:36Z</time>
      </trkpt>
      <trkpt lat="47.25912" lon="6.05506">
        <ele>358.23</ele>
        <time>2022-04-15T15:47:37Z</time>
      </trkpt>
      <trkpt lat="47.25914" lon="6.05507">
        <ele>358.23</ele>
        <time>2022-04-15T15:47:38Z</time>
      </trkpt>
      <trkpt lat="47.25917" lon="6.05506">
        <ele>358.71</ele>
        <time>2022-04-15T15:47:39Z</time>
      </trkpt>
      <trkpt lat="47.25921" lon="6.05503">
        <ele>358.23</ele>
        <time>2022-04-15T15:47:40Z</time>
      </trkpt>
      <trkpt lat="47.25924" lon="6.05501">
        <ele>358.23</ele>
        <time>2022-04-15T15:47:41Z</time>
      </trkpt>
      <trkpt lat="47.25954" lon="6.05485">
        <ele>358.23</ele>
        <time>2022-04-15T15:47:51Z</time>
      </trkpt>
      <trkpt lat="47.25985" lon="6.05462">
        <ele>358.23</ele>
        <time>2022-04-15T15:48:02Z</time>
      </trkpt>
      <trkpt lat="47.26024" lon="6.05441">
        <ele>358.71</ele>
        <time>2022-04-15T15:48:14Z</time>
      </trkpt>
      <trkpt lat="47.26064" lon="6.05425">
        <ele>358.23</ele>
        <time>2022-04-15T15:48:25Z</time>
      </trkpt>
      <trkpt lat="47.261" lon="6.05415">
        <ele>355.83</ele>
        <time>2022-04-15T15:48:34Z</time>
      </trkpt>
      <trkpt lat="47.26106" lon="6.05415">
        <ele>354.86</ele>
        <time>2022-04-15T15:48:35Z</time>
      </trkpt>
      <trkpt lat="47.26113" lon="6.05413">
        <ele>354.38</ele>
        <time>2022-04-15T15:48:36Z</time>
      </trkpt>
      <trkpt lat="47.26119" lon="6.05411">
        <ele>354.38</ele>
        <time>2022-04-15T15:48:37Z</time>
      </trkpt>
      <trkpt lat="47.26124" lon="6.05409">
        <ele>354.86</ele>
        <time>2022-04-15T15:48:38Z</time>
      </trkpt>
      <trkpt lat="47.26127" lon="6.05405">
        <ele>355.34</ele>
        <time>2022-04-15T15:48:39Z</time>
      </trkpt>
      <trkpt lat="47.2613" lon="6.05402">
        <ele>354.86</ele>
        <time>2022-04-15T15:48:40Z</time>
      </trkpt>
      <trkpt lat="47.26133" lon="6.05398">
        <ele>354.38</ele>
        <time>2022-04-15T15:48:41Z</time>
      </trkpt>
      <trkpt lat="47.26135" lon="6.05394">
        <ele>353.42</ele>
        <time>2022-04-15T15:48:42Z</time>
      </trkpt>
      <trkpt lat="47.26137" lon="6.05389">
        <ele>353.42</ele>
        <time>2022-04-15T15:48:43Z</time>
      </trkpt>
      <trkpt lat="47.26139" lon="6.05384">
        <ele>352.46</ele>
        <time>2022-04-15T15:48:44Z</time>
      </trkpt>
      <trkpt lat="47.26139" lon="6.05377">
        <ele>351.98</ele>
        <time>2022-04-15T15:48:45Z</time>
      </trkpt>
      <trkpt lat="47.26139" lon="6.0537">
        <ele>351.02</ele>
        <time>2022-04-15T15:48:46Z</time>
      </trkpt>
      <trkpt lat="47.26127" lon="6.05328">
        <ele>349.58</ele>
        <time>2022-04-15T15:48:52Z</time>
      </trkpt>
      <trkpt lat="47.26123" lon="6.05321">
        <ele>349.58</ele>
        <time>2022-04-15T15:48:53Z</time>
      </trkpt>
      <trkpt lat="47.2612" lon="6.05315">
        <ele>349.1</ele>
        <time>2022-04-15T15:48:54Z</time>
      </trkpt>
      <trkpt lat="47.26103" lon="6.05277">
        <ele>345.73</ele>
        <time>2022-04-15T15:48:59Z</time>
      </trkpt>
      <trkpt lat="47.261" lon="6.05268">
        <ele>344.29</ele>
        <time>2022-04-15T15:49:00Z</time>
      </trkpt>
      <trkpt lat="47.26095" lon="6.05252">
        <ele>342.37</ele>
        <time>2022-04-15T15:49:02Z</time>
      </trkpt>
      <trkpt lat="47.26092" lon="6.05245">
        <ele>341.41</ele>
        <time>2022-04-15T15:49:03Z</time>
      </trkpt>
      <trkpt lat="47.26088" lon="6.05239">
        <ele>339.96</ele>
        <time>2022-04-15T15:49:04Z</time>
      </trkpt>
      <trkpt lat="47.26086" lon="6.05233">
        <ele>339.48</ele>
        <time>2022-04-15T15:49:05Z</time>
      </trkpt>
      <trkpt lat="47.26085" lon="6.05227">
        <ele>339</ele>
        <time>2022-04-15T15:49:06Z</time>
      </trkpt>
      <trkpt lat="47.26084" lon="6.05221">
        <ele>338.52</ele>
        <time>2022-04-15T15:49:07Z</time>
      </trkpt>
      <trkpt lat="47.26085" lon="6.05214">
        <ele>338.04</ele>
        <time>2022-04-15T15:49:08Z</time>
      </trkpt>
      <trkpt lat="47.26086" lon="6.05206">
        <ele>337.56</ele>
        <time>2022-04-15T15:49:09Z</time>
      </trkpt>
      <trkpt lat="47.26086" lon="6.05198">
        <ele>337.08</ele>
        <time>2022-04-15T15:49:10Z</time>
      </trkpt>
      <trkpt lat="47.26084" lon="6.05189">
        <ele>336.6</ele>
        <time>2022-04-15T15:49:11Z</time>
      </trkpt>
      <trkpt lat="47.2608" lon="6.05182">
        <ele>335.64</ele>
        <time>2022-04-15T15:49:12Z</time>
      </trkpt>
      <trkpt lat="47.26074" lon="6.05176">
        <ele>335.16</ele>
        <time>2022-04-15T15:49:13Z</time>
      </trkpt>
      <trkpt lat="47.26068" lon="6.05172">
        <ele>334.68</ele>
        <time>2022-04-15T15:49:14Z</time>
      </trkpt>
      <trkpt lat="47.26061" lon="6.05169">
        <ele>334.2</ele>
        <time>2022-04-15T15:49:15Z</time>
      </trkpt>
      <trkpt lat="47.26054" lon="6.05166">
        <ele>333.71</ele>
        <time>2022-04-15T15:49:16Z</time>
      </trkpt>
      <trkpt lat="47.26042" lon="6.0516">
        <ele>333.23</ele>
        <time>2022-04-15T15:49:18Z</time>
      </trkpt>
      <trkpt lat="47.26038" lon="6.05155">
        <ele>332.75</ele>
        <time>2022-04-15T15:49:19Z</time>
      </trkpt>
      <trkpt lat="47.26035" lon="6.05149">
        <ele>332.27</ele>
        <time>2022-04-15T15:49:20Z</time>
      </trkpt>
      <trkpt lat="47.26036" lon="6.05142">
        <ele>331.31</ele>
        <time>2022-04-15T15:49:21Z</time>
      </trkpt>
      <trkpt lat="47.26038" lon="6.05137">
        <ele>330.35</ele>
        <time>2022-04-15T15:49:22Z</time>
      </trkpt>
      <trkpt lat="47.26043" lon="6.05133">
        <ele>329.87</ele>
        <time>2022-04-15T15:49:23Z</time>
      </trkpt>
      <trkpt lat="47.26047" lon="6.0513">
        <ele>329.39</ele>
        <time>2022-04-15T15:49:24Z</time>
      </trkpt>
      <trkpt lat="47.26053" lon="6.05129">
        <ele>328.91</ele>
        <time>2022-04-15T15:49:25Z</time>
      </trkpt>
      <trkpt lat="47.26058" lon="6.05129">
        <ele>328.91</ele>
        <time>2022-04-15T15:49:26Z</time>
      </trkpt>
      <trkpt lat="47.26064" lon="6.05129">
        <ele>328.91</ele>
        <time>2022-04-15T15:49:27Z</time>
      </trkpt>
      <trkpt lat="47.26089" lon="6.0513">
        <ele>327.47</ele>
        <time>2022-04-15T15:49:31Z</time>
      </trkpt>
      <trkpt lat="47.26095" lon="6.05128">
        <ele>327.47</ele>
        <time>2022-04-15T15:49:32Z</time>
      </trkpt>
      <trkpt lat="47.26101" lon="6.05123">
        <ele>326.5</ele>
        <time>2022-04-15T15:49:33Z</time>
      </trkpt>
      <trkpt lat="47.26107" lon="6.05116">
        <ele>325.54</ele>
        <time>2022-04-15T15:49:34Z</time>
      </trkpt>
      <trkpt lat="47.26111" lon="6.05106">
        <ele>325.54</ele>
        <time>2022-04-15T15:49:35Z</time>
      </trkpt>
      <trkpt lat="47.26115" lon="6.05097">
        <ele>326.02</ele>
        <time>2022-04-15T15:49:36Z</time>
      </trkpt>
      <trkpt lat="47.26128" lon="6.0507">
        <ele>324.58</ele>
        <time>2022-04-15T15:49:39Z</time>
      </trkpt>
      <trkpt lat="47.26154" lon="6.05019">
        <ele>323.14</ele>
        <time>2022-04-15T15:49:45Z</time>
      </trkpt>
      <trkpt lat="47.26159" lon="6.05012">
        <ele>322.66</ele>
        <time>2022-04-15T15:49:46Z</time>
      </trkpt>
      <trkpt lat="47.26165" lon="6.05006">
        <ele>323.14</ele>
        <time>2022-04-15T15:49:47Z</time>
      </trkpt>
      <trkpt lat="47.26174" lon="6.04997">
        <ele>322.66</ele>
        <time>2022-04-15T15:49:49Z</time>
      </trkpt>
      <trkpt lat="47.26178" lon="6.04992">
        <ele>322.66</ele>
        <time>2022-04-15T15:49:50Z</time>
      </trkpt>
      <trkpt lat="47.26185" lon="6.04981">
        <ele>321.7</ele>
        <time>2022-04-15T15:49:52Z</time>
      </trkpt>
      <trkpt lat="47.26187" lon="6.04974">
        <ele>321.22</ele>
        <time>2022-04-15T15:49:53Z</time>
      </trkpt>
      <trkpt lat="47.2619" lon="6.04953">
        <ele>321.7</ele>
        <time>2022-04-15T15:49:57Z</time>
      </trkpt>
      <trkpt lat="47.2619" lon="6.04947">
        <ele>322.18</ele>
        <time>2022-04-15T15:50:00Z</time>
      </trkpt>
      <trkpt lat="47.26191" lon="6.04943">
        <ele>321.7</ele>
        <time>2022-04-15T15:50:01Z</time>
      </trkpt>
      <trkpt lat="47.26193" lon="6.0494">
        <ele>321.7</ele>
        <time>2022-04-15T15:50:02Z</time>
      </trkpt>
      <trkpt lat="47.26195" lon="6.04937">
        <ele>321.7</ele>
        <time>2022-04-15T15:50:03Z</time>
      </trkpt>
      <trkpt lat="47.26196" lon="6.04932">
        <ele>321.7</ele>
        <time>2022-04-15T15:50:04Z</time>
      </trkpt>
      <trkpt lat="47.26194" lon="6.04927">
        <ele>321.7</ele>
        <time>2022-04-15T15:50:05Z</time>
      </trkpt>
      <trkpt lat="47.26191" lon="6.04922">
        <ele>321.7</ele>
        <time>2022-04-15T15:50:06Z</time>
      </trkpt>
      <trkpt lat="47.26187" lon="6.04918">
        <ele>321.22</ele>
        <time>2022-04-15T15:50:07Z</time>
      </trkpt>
      <trkpt lat="47.26177" lon="6.04903">
        <ele>321.22</ele>
        <time>2022-04-15T15:50:10Z</time>
      </trkpt>
      <trkpt lat="47.26176" lon="6.04897">
        <ele>320.74</ele>
        <time>2022-04-15T15:50:11Z</time>
      </trkpt>
      <trkpt lat="47.26178" lon="6.04891">
        <ele>320.74</ele>
        <time>2022-04-15T15:50:12Z</time>
      </trkpt>
      <trkpt lat="47.2618" lon="6.04886">
        <ele>320.74</ele>
        <time>2022-04-15T15:50:13Z</time>
      </trkpt>
      <trkpt lat="47.26183" lon="6.04882">
        <ele>321.22</ele>
        <time>2022-04-15T15:50:14Z</time>
      </trkpt>
      <trkpt lat="47.26211" lon="6.0484">
        <ele>323.14</ele>
        <time>2022-04-15T15:50:26Z</time>
      </trkpt>
      <trkpt lat="47.26224" lon="6.04779">
        <ele>324.58</ele>
        <time>2022-04-15T15:50:39Z</time>
      </trkpt>
      <trkpt lat="47.26219" lon="6.04701">
        <ele>326.02</ele>
        <time>2022-04-15T15:50:52Z</time>
      </trkpt>
      <trkpt lat="47.26219" lon="6.04601">
        <ele>326.02</ele>
        <time>2022-04-15T15:51:09Z</time>
      </trkpt>
      <trkpt lat="47.26219" lon="6.04595">
        <ele>326.02</ele>
        <time>2022-04-15T15:51:10Z</time>
      </trkpt>
      <trkpt lat="47.26219" lon="6.04589">
        <ele>326.02</ele>
        <time>2022-04-15T15:51:11Z</time>
      </trkpt>
      <trkpt lat="47.26217" lon="6.04584">
        <ele>326.02</ele>
        <time>2022-04-15T15:51:12Z</time>
      </trkpt>
      <trkpt lat="47.26214" lon="6.04571">
        <ele>326.02</ele>
        <time>2022-04-15T15:51:14Z</time>
      </trkpt>
      <trkpt lat="47.26213" lon="6.04565">
        <ele>326.02</ele>
        <time>2022-04-15T15:51:15Z</time>
      </trkpt>
      <trkpt lat="47.26212" lon="6.04527">
        <ele>326.5</ele>
        <time>2022-04-15T15:51:21Z</time>
      </trkpt>
      <trkpt lat="47.26212" lon="6.04521">
        <ele>326.5</ele>
        <time>2022-04-15T15:51:22Z</time>
      </trkpt>
      <trkpt lat="47.26212" lon="6.04516">
        <ele>326.5</ele>
        <time>2022-04-15T15:51:23Z</time>
      </trkpt>
      <trkpt lat="47.26207" lon="6.04435">
        <ele>327.47</ele>
        <time>2022-04-15T15:51:38Z</time>
      </trkpt>
      <trkpt lat="47.26213" lon="6.0441">
        <ele>328.91</ele>
        <time>2022-04-15T15:51:48Z</time>
      </trkpt>
      <trkpt lat="47.26213" lon="6.0441">
        <ele>327.95</ele>
        <time>2022-04-15T15:51:55Z</time>
      </trkpt>
    </trkseg>
  </trk>
</gpx>